<?xml version="1.0" encoding="UTF-8" standalone="no" ?>
<gpx xmlns="http://www.topografix.com/GPX/1/1" xmlns:xsi="http://www.w3.org/2001/XMLSchema-instance" xsi:schemaLocation="http://www.topografix.com/GPX/1/1 http://www.topografix.com/GPX/1/1/gpx.xsd" version="1.1" creator="VisuGPX - https://www.visugpx.com">
  <metadata>
    <name>VTT le 12 mai 2019</name>
    <desc><![CDATA[VTT le 12 mai 2019
]]></desc>
  </metadata>
  <trk>
    <name><![CDATA[2019-05-01 16:22:14]]></name>
    <trkseg>
      <trkpt lat="43.43956" lon="5.86022">
        <ele>348.62</ele>
        <time>2019-03-24T10:00:55Z</time>
      </trkpt>
      <trkpt lat="43.43955" lon="5.86022">
        <ele>348.62</ele>
        <time>2019-03-24T10:00:56Z</time>
      </trkpt>
      <trkpt lat="43.43955" lon="5.86021">
        <ele>351.02</ele>
        <time>2019-03-24T10:01:00Z</time>
      </trkpt>
      <trkpt lat="43.43959" lon="5.86022">
        <ele>351.02</ele>
        <time>2019-03-24T10:01:35Z</time>
      </trkpt>
      <trkpt lat="43.43958" lon="5.86022">
        <ele>351.5</ele>
        <time>2019-03-24T10:02:13Z</time>
      </trkpt>
      <trkpt lat="43.43958" lon="5.86025">
        <ele>351.5</ele>
        <time>2019-03-24T10:02:43Z</time>
      </trkpt>
      <trkpt lat="43.4396" lon="5.86027">
        <ele>351.5</ele>
        <time>2019-03-24T10:03:18Z</time>
      </trkpt>
      <trkpt lat="43.43959" lon="5.86025">
        <ele>351.5</ele>
        <time>2019-03-24T10:03:53Z</time>
      </trkpt>
      <trkpt lat="43.43959" lon="5.86028">
        <ele>351.98</ele>
        <time>2019-03-24T10:04:35Z</time>
      </trkpt>
      <trkpt lat="43.43962" lon="5.86026">
        <ele>351.98</ele>
        <time>2019-03-24T10:05:07Z</time>
      </trkpt>
      <trkpt lat="43.43963" lon="5.86026">
        <ele>351.98</ele>
        <time>2019-03-24T10:05:27Z</time>
      </trkpt>
      <trkpt lat="43.4396" lon="5.86025">
        <ele>352.46</ele>
        <time>2019-03-24T10:05:49Z</time>
      </trkpt>
      <trkpt lat="43.43959" lon="5.86023">
        <ele>352.46</ele>
        <time>2019-03-24T10:06:07Z</time>
      </trkpt>
      <trkpt lat="43.43959" lon="5.86022">
        <ele>352.46</ele>
        <time>2019-03-24T10:06:39Z</time>
      </trkpt>
      <trkpt lat="43.43954" lon="5.8602">
        <ele>352.46</ele>
        <time>2019-03-24T10:07:06Z</time>
      </trkpt>
      <trkpt lat="43.43953" lon="5.86019">
        <ele>352.94</ele>
        <time>2019-03-24T10:07:30Z</time>
      </trkpt>
      <trkpt lat="43.43953" lon="5.86018">
        <ele>352.94</ele>
        <time>2019-03-24T10:08:00Z</time>
      </trkpt>
      <trkpt lat="43.43953" lon="5.86019">
        <ele>352.94</ele>
        <time>2019-03-24T10:08:30Z</time>
      </trkpt>
      <trkpt lat="43.43953" lon="5.86022">
        <ele>352.94</ele>
        <time>2019-03-24T10:09:02Z</time>
      </trkpt>
      <trkpt lat="43.4395" lon="5.86021">
        <ele>353.42</ele>
        <time>2019-03-24T10:09:35Z</time>
      </trkpt>
      <trkpt lat="43.4395" lon="5.86025">
        <ele>353.42</ele>
        <time>2019-03-24T10:10:15Z</time>
      </trkpt>
      <trkpt lat="43.43952" lon="5.86022">
        <ele>353.9</ele>
        <time>2019-03-24T10:10:54Z</time>
      </trkpt>
      <trkpt lat="43.43951" lon="5.86022">
        <ele>355.34</ele>
        <time>2019-03-24T10:11:28Z</time>
      </trkpt>
      <trkpt lat="43.43954" lon="5.86023">
        <ele>355.34</ele>
        <time>2019-03-24T10:12:10Z</time>
      </trkpt>
      <trkpt lat="43.43955" lon="5.86022">
        <ele>355.34</ele>
        <time>2019-03-24T10:12:50Z</time>
      </trkpt>
      <trkpt lat="43.43956" lon="5.86024">
        <ele>355.34</ele>
        <time>2019-03-24T10:13:20Z</time>
      </trkpt>
      <trkpt lat="43.43959" lon="5.86024">
        <ele>355.34</ele>
        <time>2019-03-24T10:13:58Z</time>
      </trkpt>
      <trkpt lat="43.43961" lon="5.86024">
        <ele>355.83</ele>
        <time>2019-03-24T10:14:39Z</time>
      </trkpt>
      <trkpt lat="43.4396" lon="5.86023">
        <ele>355.83</ele>
        <time>2019-03-24T10:15:22Z</time>
      </trkpt>
      <trkpt lat="43.43958" lon="5.86023">
        <ele>355.83</ele>
        <time>2019-03-24T10:16:00Z</time>
      </trkpt>
      <trkpt lat="43.43959" lon="5.86023">
        <ele>355.83</ele>
        <time>2019-03-24T10:16:39Z</time>
      </trkpt>
      <trkpt lat="43.43961" lon="5.86024">
        <ele>355.83</ele>
        <time>2019-03-24T10:17:14Z</time>
      </trkpt>
      <trkpt lat="43.43958" lon="5.86023">
        <ele>356.31</ele>
        <time>2019-03-24T10:17:57Z</time>
      </trkpt>
      <trkpt lat="43.43955" lon="5.8602">
        <ele>356.31</ele>
        <time>2019-03-24T10:18:35Z</time>
      </trkpt>
      <trkpt lat="43.43959" lon="5.86023">
        <ele>356.31</ele>
        <time>2019-03-24T10:19:16Z</time>
      </trkpt>
      <trkpt lat="43.43958" lon="5.86023">
        <ele>356.79</ele>
        <time>2019-03-24T10:19:55Z</time>
      </trkpt>
      <trkpt lat="43.43956" lon="5.86023">
        <ele>357.75</ele>
        <time>2019-03-24T10:20:18Z</time>
      </trkpt>
      <trkpt lat="43.43966" lon="5.86012">
        <ele>321.22</ele>
        <time>2019-04-30T19:41:21Z</time>
      </trkpt>
      <trkpt lat="43.43959" lon="5.8602">
        <ele>324.58</ele>
        <time>2019-04-30T19:41:36Z</time>
      </trkpt>
      <trkpt lat="43.4396" lon="5.86021">
        <ele>326.5</ele>
        <time>2019-04-30T19:41:38Z</time>
      </trkpt>
      <trkpt lat="43.43961" lon="5.86022">
        <ele>329.87</ele>
        <time>2019-04-30T19:41:42Z</time>
      </trkpt>
      <trkpt lat="43.43961" lon="5.86022">
        <ele>333.23</ele>
        <time>2019-04-30T19:41:47Z</time>
      </trkpt>
      <trkpt lat="43.43961" lon="5.86022">
        <ele>337.08</ele>
        <time>2019-04-30T19:41:52Z</time>
      </trkpt>
      <trkpt lat="43.43961" lon="5.86022">
        <ele>337.08</ele>
        <time>2019-04-30T19:41:53Z</time>
      </trkpt>
      <trkpt lat="43.43962" lon="5.86023">
        <ele>339.96</ele>
        <time>2019-04-30T19:41:59Z</time>
      </trkpt>
      <trkpt lat="43.43962" lon="5.86022">
        <ele>343.33</ele>
        <time>2019-04-30T19:42:06Z</time>
      </trkpt>
      <trkpt lat="43.43961" lon="5.86023">
        <ele>346.21</ele>
        <time>2019-04-30T19:42:14Z</time>
      </trkpt>
      <trkpt lat="43.43962" lon="5.86026">
        <ele>349.58</ele>
        <time>2019-04-30T19:42:28Z</time>
      </trkpt>
      <trkpt lat="43.43964" lon="5.86028">
        <ele>352.46</ele>
        <time>2019-04-30T19:42:40Z</time>
      </trkpt>
      <trkpt lat="43.43964" lon="5.86028">
        <ele>355.34</ele>
        <time>2019-04-30T19:43:01Z</time>
      </trkpt>
      <trkpt lat="43.43961" lon="5.86027">
        <ele>357.75</ele>
        <time>2019-04-30T19:43:27Z</time>
      </trkpt>
      <trkpt lat="43.43962" lon="5.86027">
        <ele>358.23</ele>
        <time>2019-04-30T19:43:41Z</time>
      </trkpt>
      <trkpt lat="43.43961" lon="5.86029">
        <ele>358.23</ele>
        <time>2019-04-30T19:43:46Z</time>
      </trkpt>
      <trkpt lat="43.43961" lon="5.86026">
        <ele>355.83</ele>
        <time>2019-04-30T20:02:01Z</time>
      </trkpt>
      <trkpt lat="43.43961" lon="5.86026">
        <ele>355.83</ele>
        <time>2019-04-30T20:02:02Z</time>
      </trkpt>
      <trkpt lat="43.4396" lon="5.86026">
        <ele>355.83</ele>
        <time>2019-04-30T20:02:25Z</time>
      </trkpt>
      <trkpt lat="43.43963" lon="5.86026">
        <ele>355.83</ele>
        <time>2019-04-30T20:02:49Z</time>
      </trkpt>
      <trkpt lat="43.43962" lon="5.86027">
        <ele>355.83</ele>
        <time>2019-04-30T20:03:16Z</time>
      </trkpt>
      <trkpt lat="43.43961" lon="5.86026">
        <ele>355.83</ele>
        <time>2019-04-30T20:03:43Z</time>
      </trkpt>
      <trkpt lat="43.43962" lon="5.86024">
        <ele>355.83</ele>
        <time>2019-04-30T20:04:10Z</time>
      </trkpt>
      <trkpt lat="43.43965" lon="5.86023">
        <ele>355.83</ele>
        <time>2019-04-30T20:04:46Z</time>
      </trkpt>
      <trkpt lat="43.43964" lon="5.86023">
        <ele>355.83</ele>
        <time>2019-04-30T20:05:14Z</time>
      </trkpt>
      <trkpt lat="43.43962" lon="5.86027">
        <ele>355.83</ele>
        <time>2019-04-30T20:05:49Z</time>
      </trkpt>
      <trkpt lat="43.43963" lon="5.86028">
        <ele>355.83</ele>
        <time>2019-04-30T20:06:23Z</time>
      </trkpt>
      <trkpt lat="43.43964" lon="5.86026">
        <ele>355.83</ele>
        <time>2019-04-30T20:06:59Z</time>
      </trkpt>
      <trkpt lat="43.43965" lon="5.86023">
        <ele>355.83</ele>
        <time>2019-04-30T20:07:32Z</time>
      </trkpt>
      <trkpt lat="43.43966" lon="5.86021">
        <ele>355.83</ele>
        <time>2019-04-30T20:08:03Z</time>
      </trkpt>
      <trkpt lat="43.43966" lon="5.8602">
        <ele>355.83</ele>
        <time>2019-04-30T20:08:33Z</time>
      </trkpt>
      <trkpt lat="43.43966" lon="5.86023">
        <ele>355.83</ele>
        <time>2019-04-30T20:09:03Z</time>
      </trkpt>
      <trkpt lat="43.43967" lon="5.86024">
        <ele>355.83</ele>
        <time>2019-04-30T20:09:33Z</time>
      </trkpt>
      <trkpt lat="43.43966" lon="5.86025">
        <ele>355.83</ele>
        <time>2019-04-30T20:10:00Z</time>
      </trkpt>
      <trkpt lat="43.43964" lon="5.86023">
        <ele>355.83</ele>
        <time>2019-04-30T20:10:21Z</time>
      </trkpt>
      <trkpt lat="43.43966" lon="5.86023">
        <ele>355.34</ele>
        <time>2019-04-30T20:31:32Z</time>
      </trkpt>
      <trkpt lat="43.43966" lon="5.86023">
        <ele>355.34</ele>
        <time>2019-04-30T20:31:33Z</time>
      </trkpt>
      <trkpt lat="43.43964" lon="5.86021">
        <ele>354.38</ele>
        <time>2019-04-30T20:32:12Z</time>
      </trkpt>
      <trkpt lat="43.43965" lon="5.86022">
        <ele>354.38</ele>
        <time>2019-04-30T20:32:48Z</time>
      </trkpt>
      <trkpt lat="43.43965" lon="5.86023">
        <ele>354.38</ele>
        <time>2019-04-30T20:33:18Z</time>
      </trkpt>
      <trkpt lat="43.43963" lon="5.86025">
        <ele>354.38</ele>
        <time>2019-04-30T20:33:41Z</time>
      </trkpt>
      <trkpt lat="43.4396" lon="5.86022">
        <ele>354.38</ele>
        <time>2019-04-30T20:49:33Z</time>
      </trkpt>
      <trkpt lat="43.4396" lon="5.86022">
        <ele>354.38</ele>
        <time>2019-04-30T20:49:34Z</time>
      </trkpt>
      <trkpt lat="43.43971" lon="5.86029">
        <ele>354.38</ele>
        <time>2019-04-30T20:51:58Z</time>
      </trkpt>
      <trkpt lat="43.43967" lon="5.86027">
        <ele>354.86</ele>
        <time>2019-04-30T20:52:29Z</time>
      </trkpt>
      <trkpt lat="43.43965" lon="5.86026">
        <ele>354.86</ele>
        <time>2019-04-30T20:53:00Z</time>
      </trkpt>
      <trkpt lat="43.43965" lon="5.86026">
        <ele>355.34</ele>
        <time>2019-04-30T20:53:37Z</time>
      </trkpt>
      <trkpt lat="43.43964" lon="5.86026">
        <ele>355.34</ele>
        <time>2019-04-30T20:54:02Z</time>
      </trkpt>
      <trkpt lat="43.43964" lon="5.86026">
        <ele>355.34</ele>
        <time>2019-04-30T20:54:07Z</time>
      </trkpt>
      <trkpt lat="43.48328" lon="5.74642">
        <ele>270.27</ele>
        <time>2019-05-01T10:39:33Z</time>
      </trkpt>
      <trkpt lat="43.48335" lon="5.74631">
        <ele>269.79</ele>
        <time>2019-05-01T10:39:34Z</time>
      </trkpt>
      <trkpt lat="43.48341" lon="5.74626">
        <ele>269.79</ele>
        <time>2019-05-01T10:39:35Z</time>
      </trkpt>
      <trkpt lat="43.48347" lon="5.7462">
        <ele>269.79</ele>
        <time>2019-05-01T10:39:36Z</time>
      </trkpt>
      <trkpt lat="43.48357" lon="5.74606">
        <ele>269.31</ele>
        <time>2019-05-01T10:39:38Z</time>
      </trkpt>
      <trkpt lat="43.48357" lon="5.74598">
        <ele>269.31</ele>
        <time>2019-05-01T10:39:39Z</time>
      </trkpt>
      <trkpt lat="43.48356" lon="5.7459">
        <ele>269.31</ele>
        <time>2019-05-01T10:39:40Z</time>
      </trkpt>
      <trkpt lat="43.48346" lon="5.74558">
        <ele>269.31</ele>
        <time>2019-05-01T10:39:42Z</time>
      </trkpt>
      <trkpt lat="43.48346" lon="5.74544">
        <ele>270.75</ele>
        <time>2019-05-01T10:39:43Z</time>
      </trkpt>
      <trkpt lat="43.48348" lon="5.74525">
        <ele>270.75</ele>
        <time>2019-05-01T10:39:44Z</time>
      </trkpt>
      <trkpt lat="43.48377" lon="5.74359">
        <ele>272.67</ele>
        <time>2019-05-01T10:39:51Z</time>
      </trkpt>
      <trkpt lat="43.48431" lon="5.74072">
        <ele>276.04</ele>
        <time>2019-05-01T10:40:01Z</time>
      </trkpt>
      <trkpt lat="43.4846" lon="5.73791">
        <ele>277.96</ele>
        <time>2019-05-01T10:40:11Z</time>
      </trkpt>
      <trkpt lat="43.48469" lon="5.7362">
        <ele>274.59</ele>
        <time>2019-05-01T10:40:17Z</time>
      </trkpt>
      <trkpt lat="43.48475" lon="5.73488">
        <ele>271.23</ele>
        <time>2019-05-01T10:40:22Z</time>
      </trkpt>
      <trkpt lat="43.48482" lon="5.73352">
        <ele>267.86</ele>
        <time>2019-05-01T10:40:27Z</time>
      </trkpt>
      <trkpt lat="43.48485" lon="5.73297">
        <ele>267.38</ele>
        <time>2019-05-01T10:40:29Z</time>
      </trkpt>
      <trkpt lat="43.48495" lon="5.73107">
        <ele>264.02</ele>
        <time>2019-05-01T10:40:36Z</time>
      </trkpt>
      <trkpt lat="43.48508" lon="5.72856">
        <ele>260.65</ele>
        <time>2019-05-01T10:40:46Z</time>
      </trkpt>
      <trkpt lat="43.48513" lon="5.7277">
        <ele>258.73</ele>
        <time>2019-05-01T10:40:49Z</time>
      </trkpt>
      <trkpt lat="43.48527" lon="5.72532">
        <ele>255.85</ele>
        <time>2019-05-01T10:40:58Z</time>
      </trkpt>
      <trkpt lat="43.48538" lon="5.72329">
        <ele>252.48</ele>
        <time>2019-05-01T10:41:06Z</time>
      </trkpt>
      <trkpt lat="43.48552" lon="5.721">
        <ele>249.12</ele>
        <time>2019-05-01T10:41:16Z</time>
      </trkpt>
      <trkpt lat="43.48553" lon="5.72081">
        <ele>249.12</ele>
        <time>2019-05-01T10:41:17Z</time>
      </trkpt>
      <trkpt lat="43.4856" lon="5.71991">
        <ele>246.72</ele>
        <time>2019-05-01T10:41:23Z</time>
      </trkpt>
      <trkpt lat="43.48562" lon="5.71981">
        <ele>246.23</ele>
        <time>2019-05-01T10:41:24Z</time>
      </trkpt>
      <trkpt lat="43.48566" lon="5.71972">
        <ele>246.23</ele>
        <time>2019-05-01T10:41:25Z</time>
      </trkpt>
      <trkpt lat="43.48569" lon="5.71963">
        <ele>246.23</ele>
        <time>2019-05-01T10:41:26Z</time>
      </trkpt>
      <trkpt lat="43.48571" lon="5.71953">
        <ele>246.23</ele>
        <time>2019-05-01T10:41:27Z</time>
      </trkpt>
      <trkpt lat="43.48571" lon="5.71943">
        <ele>245.75</ele>
        <time>2019-05-01T10:41:28Z</time>
      </trkpt>
      <trkpt lat="43.48569" lon="5.71931">
        <ele>245.75</ele>
        <time>2019-05-01T10:41:29Z</time>
      </trkpt>
      <trkpt lat="43.48566" lon="5.71918">
        <ele>245.75</ele>
        <time>2019-05-01T10:41:30Z</time>
      </trkpt>
      <trkpt lat="43.48565" lon="5.71904">
        <ele>245.75</ele>
        <time>2019-05-01T10:41:31Z</time>
      </trkpt>
      <trkpt lat="43.48564" lon="5.71889">
        <ele>245.75</ele>
        <time>2019-05-01T10:41:32Z</time>
      </trkpt>
      <trkpt lat="43.48574" lon="5.71725">
        <ele>246.72</ele>
        <time>2019-05-01T10:41:40Z</time>
      </trkpt>
      <trkpt lat="43.48558" lon="5.71513">
        <ele>247.2</ele>
        <time>2019-05-01T10:41:49Z</time>
      </trkpt>
      <trkpt lat="43.48459" lon="5.71181">
        <ele>247.2</ele>
        <time>2019-05-01T10:42:03Z</time>
      </trkpt>
      <trkpt lat="43.48434" lon="5.71083">
        <ele>246.23</ele>
        <time>2019-05-01T10:42:07Z</time>
      </trkpt>
      <trkpt lat="43.48393" lon="5.7092">
        <ele>244.31</ele>
        <time>2019-05-01T10:42:14Z</time>
      </trkpt>
      <trkpt lat="43.48299" lon="5.70555">
        <ele>241.43</ele>
        <time>2019-05-01T10:42:30Z</time>
      </trkpt>
      <trkpt lat="43.48249" lon="5.70268">
        <ele>240.95</ele>
        <time>2019-05-01T10:42:42Z</time>
      </trkpt>
      <trkpt lat="43.48218" lon="5.69984">
        <ele>237.58</ele>
        <time>2019-05-01T10:42:54Z</time>
      </trkpt>
      <trkpt lat="43.48216" lon="5.69947">
        <ele>237.1</ele>
        <time>2019-05-01T10:42:56Z</time>
      </trkpt>
      <trkpt lat="43.48223" lon="5.69874">
        <ele>237.1</ele>
        <time>2019-05-01T10:43:00Z</time>
      </trkpt>
      <trkpt lat="43.48228" lon="5.69855">
        <ele>238.54</ele>
        <time>2019-05-01T10:43:01Z</time>
      </trkpt>
      <trkpt lat="43.48234" lon="5.69836">
        <ele>238.54</ele>
        <time>2019-05-01T10:43:02Z</time>
      </trkpt>
      <trkpt lat="43.48292" lon="5.69668">
        <ele>241.91</ele>
        <time>2019-05-01T10:43:10Z</time>
      </trkpt>
      <trkpt lat="43.48324" lon="5.69552">
        <ele>243.83</ele>
        <time>2019-05-01T10:43:15Z</time>
      </trkpt>
      <trkpt lat="43.48326" lon="5.6953">
        <ele>244.31</ele>
        <time>2019-05-01T10:43:16Z</time>
      </trkpt>
      <trkpt lat="43.48328" lon="5.69506">
        <ele>244.79</ele>
        <time>2019-05-01T10:43:17Z</time>
      </trkpt>
      <trkpt lat="43.48328" lon="5.69482">
        <ele>245.75</ele>
        <time>2019-05-01T10:43:18Z</time>
      </trkpt>
      <trkpt lat="43.48327" lon="5.69455">
        <ele>246.23</ele>
        <time>2019-05-01T10:43:19Z</time>
      </trkpt>
      <trkpt lat="43.48324" lon="5.69432">
        <ele>246.23</ele>
        <time>2019-05-01T10:43:20Z</time>
      </trkpt>
      <trkpt lat="43.48311" lon="5.69165">
        <ele>246.23</ele>
        <time>2019-05-01T10:43:30Z</time>
      </trkpt>
      <trkpt lat="43.48319" lon="5.68813">
        <ele>248.64</ele>
        <time>2019-05-01T10:43:44Z</time>
      </trkpt>
      <trkpt lat="43.48359" lon="5.68542">
        <ele>248.16</ele>
        <time>2019-05-01T10:43:56Z</time>
      </trkpt>
      <trkpt lat="43.48392" lon="5.68398">
        <ele>244.79</ele>
        <time>2019-05-01T10:44:02Z</time>
      </trkpt>
      <trkpt lat="43.48489" lon="5.67993">
        <ele>243.83</ele>
        <time>2019-05-01T10:44:18Z</time>
      </trkpt>
      <trkpt lat="43.48512" lon="5.67914">
        <ele>245.27</ele>
        <time>2019-05-01T10:44:21Z</time>
      </trkpt>
      <trkpt lat="43.48593" lon="5.67634">
        <ele>248.64</ele>
        <time>2019-05-01T10:44:32Z</time>
      </trkpt>
      <trkpt lat="43.48651" lon="5.6744">
        <ele>251.52</ele>
        <time>2019-05-01T10:44:39Z</time>
      </trkpt>
      <trkpt lat="43.48704" lon="5.67285">
        <ele>255.85</ele>
        <time>2019-05-01T10:44:45Z</time>
      </trkpt>
      <trkpt lat="43.48714" lon="5.67259">
        <ele>255.85</ele>
        <time>2019-05-01T10:44:46Z</time>
      </trkpt>
      <trkpt lat="43.48756" lon="5.67164">
        <ele>260.17</ele>
        <time>2019-05-01T10:44:50Z</time>
      </trkpt>
      <trkpt lat="43.48804" lon="5.67079">
        <ele>263.54</ele>
        <time>2019-05-01T10:44:54Z</time>
      </trkpt>
      <trkpt lat="43.48815" lon="5.67055">
        <ele>263.54</ele>
        <time>2019-05-01T10:44:55Z</time>
      </trkpt>
      <trkpt lat="43.48845" lon="5.66983">
        <ele>265.46</ele>
        <time>2019-05-01T10:44:58Z</time>
      </trkpt>
      <trkpt lat="43.48882" lon="5.66874">
        <ele>269.79</ele>
        <time>2019-05-01T10:45:02Z</time>
      </trkpt>
      <trkpt lat="43.48921" lon="5.6674">
        <ele>273.15</ele>
        <time>2019-05-01T10:45:07Z</time>
      </trkpt>
      <trkpt lat="43.48942" lon="5.6667">
        <ele>273.63</ele>
        <time>2019-05-01T10:45:10Z</time>
      </trkpt>
      <trkpt lat="43.49016" lon="5.66414">
        <ele>275.07</ele>
        <time>2019-05-01T10:45:20Z</time>
      </trkpt>
      <trkpt lat="43.49107" lon="5.66092">
        <ele>277</ele>
        <time>2019-05-01T10:45:33Z</time>
      </trkpt>
      <trkpt lat="43.49126" lon="5.65894">
        <ele>279.4</ele>
        <time>2019-05-01T10:45:40Z</time>
      </trkpt>
      <trkpt lat="43.49105" lon="5.65711">
        <ele>280.84</ele>
        <time>2019-05-01T10:45:46Z</time>
      </trkpt>
      <trkpt lat="43.49074" lon="5.65465">
        <ele>278.92</ele>
        <time>2019-05-01T10:45:54Z</time>
      </trkpt>
      <trkpt lat="43.49039" lon="5.65186">
        <ele>281.8</ele>
        <time>2019-05-01T10:46:03Z</time>
      </trkpt>
      <trkpt lat="43.49021" lon="5.65047">
        <ele>284.69</ele>
        <time>2019-05-01T10:46:08Z</time>
      </trkpt>
      <trkpt lat="43.48995" lon="5.64811">
        <ele>289.01</ele>
        <time>2019-05-01T10:46:15Z</time>
      </trkpt>
      <trkpt lat="43.48991" lon="5.64782">
        <ele>289.01</ele>
        <time>2019-05-01T10:46:16Z</time>
      </trkpt>
      <trkpt lat="43.48978" lon="5.64643">
        <ele>285.65</ele>
        <time>2019-05-01T10:46:20Z</time>
      </trkpt>
      <trkpt lat="43.48976" lon="5.64593">
        <ele>284.21</ele>
        <time>2019-05-01T10:46:22Z</time>
      </trkpt>
      <trkpt lat="43.48973" lon="5.64527">
        <ele>279.4</ele>
        <time>2019-05-01T10:46:24Z</time>
      </trkpt>
      <trkpt lat="43.48967" lon="5.64428">
        <ele>276.04</ele>
        <time>2019-05-01T10:46:27Z</time>
      </trkpt>
      <trkpt lat="43.48956" lon="5.64234">
        <ele>272.19</ele>
        <time>2019-05-01T10:46:33Z</time>
      </trkpt>
      <trkpt lat="43.48949" lon="5.64114">
        <ele>269.79</ele>
        <time>2019-05-01T10:46:37Z</time>
      </trkpt>
      <trkpt lat="43.4893" lon="5.63747">
        <ele>271.71</ele>
        <time>2019-05-01T10:46:51Z</time>
      </trkpt>
      <trkpt lat="43.48925" lon="5.63585">
        <ele>266.9</ele>
        <time>2019-05-01T10:46:59Z</time>
      </trkpt>
      <trkpt lat="43.48924" lon="5.63484">
        <ele>263.54</ele>
        <time>2019-05-01T10:47:03Z</time>
      </trkpt>
      <trkpt lat="43.48923" lon="5.63461">
        <ele>263.54</ele>
        <time>2019-05-01T10:47:04Z</time>
      </trkpt>
      <trkpt lat="43.48922" lon="5.63357">
        <ele>259.69</ele>
        <time>2019-05-01T10:47:09Z</time>
      </trkpt>
      <trkpt lat="43.4892" lon="5.63279">
        <ele>257.77</ele>
        <time>2019-05-01T10:47:12Z</time>
      </trkpt>
      <trkpt lat="43.48916" lon="5.63166">
        <ele>254.41</ele>
        <time>2019-05-01T10:47:17Z</time>
      </trkpt>
      <trkpt lat="43.48915" lon="5.63105">
        <ele>251.52</ele>
        <time>2019-05-01T10:47:20Z</time>
      </trkpt>
      <trkpt lat="43.4892" lon="5.63031">
        <ele>248.16</ele>
        <time>2019-05-01T10:47:24Z</time>
      </trkpt>
      <trkpt lat="43.48925" lon="5.63005">
        <ele>246.23</ele>
        <time>2019-05-01T10:47:26Z</time>
      </trkpt>
      <trkpt lat="43.48929" lon="5.62997">
        <ele>245.27</ele>
        <time>2019-05-01T10:47:27Z</time>
      </trkpt>
      <trkpt lat="43.48936" lon="5.62991">
        <ele>245.27</ele>
        <time>2019-05-01T10:47:28Z</time>
      </trkpt>
      <trkpt lat="43.48946" lon="5.62989">
        <ele>245.75</ele>
        <time>2019-05-01T10:47:30Z</time>
      </trkpt>
      <trkpt lat="43.48958" lon="5.62988">
        <ele>245.27</ele>
        <time>2019-05-01T10:47:31Z</time>
      </trkpt>
      <trkpt lat="43.4904" lon="5.62967">
        <ele>245.75</ele>
        <time>2019-05-01T10:47:38Z</time>
      </trkpt>
      <trkpt lat="43.49088" lon="5.62951">
        <ele>248.16</ele>
        <time>2019-05-01T10:47:41Z</time>
      </trkpt>
      <trkpt lat="43.49189" lon="5.62918">
        <ele>251.52</ele>
        <time>2019-05-01T10:47:47Z</time>
      </trkpt>
      <trkpt lat="43.49291" lon="5.6289">
        <ele>254.89</ele>
        <time>2019-05-01T10:47:53Z</time>
      </trkpt>
      <trkpt lat="43.49386" lon="5.62868">
        <ele>258.73</ele>
        <time>2019-05-01T10:47:58Z</time>
      </trkpt>
      <trkpt lat="43.49479" lon="5.62848">
        <ele>262.1</ele>
        <time>2019-05-01T10:48:03Z</time>
      </trkpt>
      <trkpt lat="43.49549" lon="5.62836">
        <ele>265.46</ele>
        <time>2019-05-01T10:48:07Z</time>
      </trkpt>
      <trkpt lat="43.49618" lon="5.62836">
        <ele>269.79</ele>
        <time>2019-05-01T10:48:11Z</time>
      </trkpt>
      <trkpt lat="43.49649" lon="5.62834">
        <ele>271.71</ele>
        <time>2019-05-01T10:48:13Z</time>
      </trkpt>
      <trkpt lat="43.49665" lon="5.62829">
        <ele>273.15</ele>
        <time>2019-05-01T10:48:14Z</time>
      </trkpt>
      <trkpt lat="43.49679" lon="5.62821">
        <ele>274.11</ele>
        <time>2019-05-01T10:48:15Z</time>
      </trkpt>
      <trkpt lat="43.49721" lon="5.62794">
        <ele>277.48</ele>
        <time>2019-05-01T10:48:18Z</time>
      </trkpt>
      <trkpt lat="43.49764" lon="5.62767">
        <ele>280.36</ele>
        <time>2019-05-01T10:48:21Z</time>
      </trkpt>
      <trkpt lat="43.49792" lon="5.62752">
        <ele>282.28</ele>
        <time>2019-05-01T10:48:23Z</time>
      </trkpt>
      <trkpt lat="43.498" lon="5.62751">
        <ele>282.77</ele>
        <time>2019-05-01T10:48:24Z</time>
      </trkpt>
      <trkpt lat="43.49813" lon="5.62752">
        <ele>283.73</ele>
        <time>2019-05-01T10:48:25Z</time>
      </trkpt>
      <trkpt lat="43.49821" lon="5.62756">
        <ele>284.21</ele>
        <time>2019-05-01T10:48:26Z</time>
      </trkpt>
      <trkpt lat="43.4983" lon="5.62766">
        <ele>284.69</ele>
        <time>2019-05-01T10:48:27Z</time>
      </trkpt>
      <trkpt lat="43.49838" lon="5.62781">
        <ele>285.65</ele>
        <time>2019-05-01T10:48:28Z</time>
      </trkpt>
      <trkpt lat="43.49845" lon="5.62798">
        <ele>286.13</ele>
        <time>2019-05-01T10:48:29Z</time>
      </trkpt>
      <trkpt lat="43.49909" lon="5.62954">
        <ele>284.21</ele>
        <time>2019-05-01T10:48:38Z</time>
      </trkpt>
      <trkpt lat="43.49918" lon="5.62964">
        <ele>284.21</ele>
        <time>2019-05-01T10:48:39Z</time>
      </trkpt>
      <trkpt lat="43.49929" lon="5.62971">
        <ele>284.21</ele>
        <time>2019-05-01T10:48:40Z</time>
      </trkpt>
      <trkpt lat="43.49942" lon="5.62975">
        <ele>284.21</ele>
        <time>2019-05-01T10:48:41Z</time>
      </trkpt>
      <trkpt lat="43.49957" lon="5.62978">
        <ele>284.21</ele>
        <time>2019-05-01T10:48:42Z</time>
      </trkpt>
      <trkpt lat="43.50055" lon="5.62996">
        <ele>282.77</ele>
        <time>2019-05-01T10:48:50Z</time>
      </trkpt>
      <trkpt lat="43.50061" lon="5.62998">
        <ele>282.77</ele>
        <time>2019-05-01T10:48:51Z</time>
      </trkpt>
      <trkpt lat="43.50071" lon="5.63004">
        <ele>283.25</ele>
        <time>2019-05-01T10:48:57Z</time>
      </trkpt>
      <trkpt lat="43.50068" lon="5.63004">
        <ele>283.25</ele>
        <time>2019-05-01T10:49:06Z</time>
      </trkpt>
      <trkpt lat="43.50071" lon="5.63004">
        <ele>284.21</ele>
        <time>2019-05-01T10:49:07Z</time>
      </trkpt>
      <trkpt lat="43.50085" lon="5.63002">
        <ele>284.21</ele>
        <time>2019-05-01T10:49:10Z</time>
      </trkpt>
      <trkpt lat="43.50094" lon="5.63003">
        <ele>284.69</ele>
        <time>2019-05-01T10:49:11Z</time>
      </trkpt>
      <trkpt lat="43.50175" lon="5.63018">
        <ele>286.61</ele>
        <time>2019-05-01T10:49:22Z</time>
      </trkpt>
      <trkpt lat="43.50179" lon="5.63018">
        <ele>286.61</ele>
        <time>2019-05-01T10:49:30Z</time>
      </trkpt>
      <trkpt lat="43.5018" lon="5.63018">
        <ele>286.61</ele>
        <time>2019-05-01T10:49:31Z</time>
      </trkpt>
      <trkpt lat="43.50182" lon="5.63018">
        <ele>286.61</ele>
        <time>2019-05-01T10:49:32Z</time>
      </trkpt>
      <trkpt lat="43.50186" lon="5.63018">
        <ele>287.09</ele>
        <time>2019-05-01T10:49:33Z</time>
      </trkpt>
      <trkpt lat="43.5025" lon="5.6302">
        <ele>290.46</ele>
        <time>2019-05-01T10:49:42Z</time>
      </trkpt>
      <trkpt lat="43.50295" lon="5.63023">
        <ele>293.82</ele>
        <time>2019-05-01T10:49:47Z</time>
      </trkpt>
      <trkpt lat="43.5034" lon="5.63026">
        <ele>297.18</ele>
        <time>2019-05-01T10:49:51Z</time>
      </trkpt>
      <trkpt lat="43.50386" lon="5.63029">
        <ele>301.03</ele>
        <time>2019-05-01T10:49:55Z</time>
      </trkpt>
      <trkpt lat="43.50424" lon="5.6303">
        <ele>304.88</ele>
        <time>2019-05-01T10:49:58Z</time>
      </trkpt>
      <trkpt lat="43.5046" lon="5.63032">
        <ele>309.2</ele>
        <time>2019-05-01T10:50:01Z</time>
      </trkpt>
      <trkpt lat="43.50482" lon="5.63037">
        <ele>312.57</ele>
        <time>2019-05-01T10:50:03Z</time>
      </trkpt>
      <trkpt lat="43.50514" lon="5.63049">
        <ele>315.45</ele>
        <time>2019-05-01T10:50:06Z</time>
      </trkpt>
      <trkpt lat="43.50532" lon="5.63054">
        <ele>316.89</ele>
        <time>2019-05-01T10:50:08Z</time>
      </trkpt>
      <trkpt lat="43.50539" lon="5.63053">
        <ele>317.85</ele>
        <time>2019-05-01T10:50:09Z</time>
      </trkpt>
      <trkpt lat="43.50546" lon="5.63047">
        <ele>319.3</ele>
        <time>2019-05-01T10:50:10Z</time>
      </trkpt>
      <trkpt lat="43.50549" lon="5.63037">
        <ele>320.26</ele>
        <time>2019-05-01T10:50:11Z</time>
      </trkpt>
      <trkpt lat="43.5055" lon="5.63026">
        <ele>321.22</ele>
        <time>2019-05-01T10:50:12Z</time>
      </trkpt>
      <trkpt lat="43.50548" lon="5.63017">
        <ele>325.54</ele>
        <time>2019-05-01T10:50:13Z</time>
      </trkpt>
      <trkpt lat="43.50542" lon="5.63008">
        <ele>326.99</ele>
        <time>2019-05-01T10:50:14Z</time>
      </trkpt>
      <trkpt lat="43.50534" lon="5.63001">
        <ele>326.99</ele>
        <time>2019-05-01T10:50:15Z</time>
      </trkpt>
      <trkpt lat="43.50526" lon="5.62994">
        <ele>327.47</ele>
        <time>2019-05-01T10:50:16Z</time>
      </trkpt>
      <trkpt lat="43.50509" lon="5.6298">
        <ele>328.91</ele>
        <time>2019-05-01T10:50:18Z</time>
      </trkpt>
      <trkpt lat="43.50502" lon="5.62971">
        <ele>329.39</ele>
        <time>2019-05-01T10:50:19Z</time>
      </trkpt>
      <trkpt lat="43.50496" lon="5.62961">
        <ele>330.35</ele>
        <time>2019-05-01T10:50:20Z</time>
      </trkpt>
      <trkpt lat="43.50491" lon="5.62949">
        <ele>330.83</ele>
        <time>2019-05-01T10:50:21Z</time>
      </trkpt>
      <trkpt lat="43.50487" lon="5.62937">
        <ele>331.79</ele>
        <time>2019-05-01T10:50:22Z</time>
      </trkpt>
      <trkpt lat="43.50485" lon="5.62922">
        <ele>333.23</ele>
        <time>2019-05-01T10:50:23Z</time>
      </trkpt>
      <trkpt lat="43.50484" lon="5.62907">
        <ele>334.68</ele>
        <time>2019-05-01T10:50:24Z</time>
      </trkpt>
      <trkpt lat="43.50483" lon="5.62891">
        <ele>335.64</ele>
        <time>2019-05-01T10:50:25Z</time>
      </trkpt>
      <trkpt lat="43.50471" lon="5.62821">
        <ele>339</ele>
        <time>2019-05-01T10:50:29Z</time>
      </trkpt>
      <trkpt lat="43.50461" lon="5.62754">
        <ele>342.37</ele>
        <time>2019-05-01T10:50:33Z</time>
      </trkpt>
      <trkpt lat="43.5046" lon="5.62703">
        <ele>344.77</ele>
        <time>2019-05-01T10:50:36Z</time>
      </trkpt>
      <trkpt lat="43.50463" lon="5.62653">
        <ele>348.13</ele>
        <time>2019-05-01T10:50:39Z</time>
      </trkpt>
      <trkpt lat="43.50467" lon="5.62637">
        <ele>349.1</ele>
        <time>2019-05-01T10:50:40Z</time>
      </trkpt>
      <trkpt lat="43.50472" lon="5.62622">
        <ele>349.58</ele>
        <time>2019-05-01T10:50:41Z</time>
      </trkpt>
      <trkpt lat="43.50476" lon="5.62608">
        <ele>350.06</ele>
        <time>2019-05-01T10:50:42Z</time>
      </trkpt>
      <trkpt lat="43.50479" lon="5.62592">
        <ele>351.02</ele>
        <time>2019-05-01T10:50:43Z</time>
      </trkpt>
      <trkpt lat="43.50481" lon="5.62576">
        <ele>352.46</ele>
        <time>2019-05-01T10:50:44Z</time>
      </trkpt>
      <trkpt lat="43.50481" lon="5.62559">
        <ele>353.9</ele>
        <time>2019-05-01T10:50:45Z</time>
      </trkpt>
      <trkpt lat="43.50479" lon="5.62542">
        <ele>354.86</ele>
        <time>2019-05-01T10:50:46Z</time>
      </trkpt>
      <trkpt lat="43.50476" lon="5.62526">
        <ele>355.83</ele>
        <time>2019-05-01T10:50:47Z</time>
      </trkpt>
      <trkpt lat="43.50473" lon="5.62512">
        <ele>356.31</ele>
        <time>2019-05-01T10:50:48Z</time>
      </trkpt>
      <trkpt lat="43.50467" lon="5.62487">
        <ele>355.83</ele>
        <time>2019-05-01T10:50:50Z</time>
      </trkpt>
      <trkpt lat="43.50466" lon="5.62474">
        <ele>356.31</ele>
        <time>2019-05-01T10:50:51Z</time>
      </trkpt>
      <trkpt lat="43.50467" lon="5.62462">
        <ele>357.27</ele>
        <time>2019-05-01T10:50:52Z</time>
      </trkpt>
      <trkpt lat="43.50471" lon="5.62449">
        <ele>358.23</ele>
        <time>2019-05-01T10:50:53Z</time>
      </trkpt>
      <trkpt lat="43.50475" lon="5.62435">
        <ele>359.67</ele>
        <time>2019-05-01T10:50:54Z</time>
      </trkpt>
      <trkpt lat="43.50478" lon="5.6242">
        <ele>361.11</ele>
        <time>2019-05-01T10:50:55Z</time>
      </trkpt>
      <trkpt lat="43.50481" lon="5.62405">
        <ele>364</ele>
        <time>2019-05-01T10:50:56Z</time>
      </trkpt>
      <trkpt lat="43.50486" lon="5.62352">
        <ele>367.84</ele>
        <time>2019-05-01T10:50:59Z</time>
      </trkpt>
      <trkpt lat="43.50487" lon="5.62333">
        <ele>367.84</ele>
        <time>2019-05-01T10:51:00Z</time>
      </trkpt>
      <trkpt lat="43.5049" lon="5.62296">
        <ele>372.17</ele>
        <time>2019-05-01T10:51:02Z</time>
      </trkpt>
      <trkpt lat="43.50491" lon="5.62261">
        <ele>372.65</ele>
        <time>2019-05-01T10:51:04Z</time>
      </trkpt>
      <trkpt lat="43.5049" lon="5.62245">
        <ele>374.09</ele>
        <time>2019-05-01T10:51:05Z</time>
      </trkpt>
      <trkpt lat="43.50488" lon="5.62229">
        <ele>374.57</ele>
        <time>2019-05-01T10:51:06Z</time>
      </trkpt>
      <trkpt lat="43.50483" lon="5.62215">
        <ele>375.53</ele>
        <time>2019-05-01T10:51:07Z</time>
      </trkpt>
      <trkpt lat="43.50476" lon="5.622">
        <ele>376.01</ele>
        <time>2019-05-01T10:51:08Z</time>
      </trkpt>
      <trkpt lat="43.50469" lon="5.62186">
        <ele>377.45</ele>
        <time>2019-05-01T10:51:09Z</time>
      </trkpt>
      <trkpt lat="43.50462" lon="5.62173">
        <ele>378.9</ele>
        <time>2019-05-01T10:51:10Z</time>
      </trkpt>
      <trkpt lat="43.50457" lon="5.62159">
        <ele>378.9</ele>
        <time>2019-05-01T10:51:11Z</time>
      </trkpt>
      <trkpt lat="43.50453" lon="5.62145">
        <ele>378.9</ele>
        <time>2019-05-01T10:51:12Z</time>
      </trkpt>
      <trkpt lat="43.50446" lon="5.62114">
        <ele>380.82</ele>
        <time>2019-05-01T10:51:14Z</time>
      </trkpt>
      <trkpt lat="43.50431" lon="5.6207">
        <ele>381.78</ele>
        <time>2019-05-01T10:51:17Z</time>
      </trkpt>
      <trkpt lat="43.50425" lon="5.62058">
        <ele>383.7</ele>
        <time>2019-05-01T10:51:18Z</time>
      </trkpt>
      <trkpt lat="43.5042" lon="5.62047">
        <ele>383.7</ele>
        <time>2019-05-01T10:51:19Z</time>
      </trkpt>
      <trkpt lat="43.50417" lon="5.62035">
        <ele>383.7</ele>
        <time>2019-05-01T10:51:20Z</time>
      </trkpt>
      <trkpt lat="43.50416" lon="5.62021">
        <ele>383.7</ele>
        <time>2019-05-01T10:51:21Z</time>
      </trkpt>
      <trkpt lat="43.50415" lon="5.62008">
        <ele>384.66</ele>
        <time>2019-05-01T10:51:22Z</time>
      </trkpt>
      <trkpt lat="43.50414" lon="5.61994">
        <ele>386.59</ele>
        <time>2019-05-01T10:51:23Z</time>
      </trkpt>
      <trkpt lat="43.50411" lon="5.61978">
        <ele>388.03</ele>
        <time>2019-05-01T10:51:24Z</time>
      </trkpt>
      <trkpt lat="43.50403" lon="5.61931">
        <ele>390.43</ele>
        <time>2019-05-01T10:51:27Z</time>
      </trkpt>
      <trkpt lat="43.50403" lon="5.61913">
        <ele>391.39</ele>
        <time>2019-05-01T10:51:28Z</time>
      </trkpt>
      <trkpt lat="43.50401" lon="5.61878">
        <ele>394.76</ele>
        <time>2019-05-01T10:51:30Z</time>
      </trkpt>
      <trkpt lat="43.50398" lon="5.61841">
        <ele>396.68</ele>
        <time>2019-05-01T10:51:32Z</time>
      </trkpt>
      <trkpt lat="43.50398" lon="5.61823">
        <ele>397.64</ele>
        <time>2019-05-01T10:51:33Z</time>
      </trkpt>
      <trkpt lat="43.50398" lon="5.61805">
        <ele>398.12</ele>
        <time>2019-05-01T10:51:34Z</time>
      </trkpt>
      <trkpt lat="43.504" lon="5.6177">
        <ele>401.49</ele>
        <time>2019-05-01T10:51:36Z</time>
      </trkpt>
      <trkpt lat="43.50399" lon="5.61752">
        <ele>401.97</ele>
        <time>2019-05-01T10:51:37Z</time>
      </trkpt>
      <trkpt lat="43.50398" lon="5.61737">
        <ele>401.97</ele>
        <time>2019-05-01T10:51:38Z</time>
      </trkpt>
      <trkpt lat="43.50395" lon="5.61722">
        <ele>401.97</ele>
        <time>2019-05-01T10:51:39Z</time>
      </trkpt>
      <trkpt lat="43.50392" lon="5.61707">
        <ele>402.45</ele>
        <time>2019-05-01T10:51:40Z</time>
      </trkpt>
      <trkpt lat="43.50391" lon="5.61693">
        <ele>403.89</ele>
        <time>2019-05-01T10:51:41Z</time>
      </trkpt>
      <trkpt lat="43.50393" lon="5.61679">
        <ele>403.89</ele>
        <time>2019-05-01T10:51:42Z</time>
      </trkpt>
      <trkpt lat="43.50395" lon="5.61664">
        <ele>404.37</ele>
        <time>2019-05-01T10:51:43Z</time>
      </trkpt>
      <trkpt lat="43.50397" lon="5.6165">
        <ele>406.29</ele>
        <time>2019-05-01T10:51:44Z</time>
      </trkpt>
      <trkpt lat="43.50398" lon="5.61635">
        <ele>407.26</ele>
        <time>2019-05-01T10:51:45Z</time>
      </trkpt>
      <trkpt lat="43.50398" lon="5.61622">
        <ele>407.26</ele>
        <time>2019-05-01T10:51:46Z</time>
      </trkpt>
      <trkpt lat="43.50396" lon="5.61608">
        <ele>407.26</ele>
        <time>2019-05-01T10:51:47Z</time>
      </trkpt>
      <trkpt lat="43.50394" lon="5.61595">
        <ele>408.22</ele>
        <time>2019-05-01T10:51:48Z</time>
      </trkpt>
      <trkpt lat="43.50389" lon="5.61549">
        <ele>412.06</ele>
        <time>2019-05-01T10:51:51Z</time>
      </trkpt>
      <trkpt lat="43.50379" lon="5.61501">
        <ele>416.39</ele>
        <time>2019-05-01T10:51:54Z</time>
      </trkpt>
      <trkpt lat="43.50368" lon="5.61453">
        <ele>418.79</ele>
        <time>2019-05-01T10:51:57Z</time>
      </trkpt>
      <trkpt lat="43.50358" lon="5.61397">
        <ele>419.27</ele>
        <time>2019-05-01T10:52:01Z</time>
      </trkpt>
      <trkpt lat="43.50359" lon="5.61386">
        <ele>419.27</ele>
        <time>2019-05-01T10:52:02Z</time>
      </trkpt>
      <trkpt lat="43.50362" lon="5.61379">
        <ele>419.27</ele>
        <time>2019-05-01T10:52:03Z</time>
      </trkpt>
      <trkpt lat="43.50367" lon="5.61376">
        <ele>419.27</ele>
        <time>2019-05-01T10:52:04Z</time>
      </trkpt>
      <trkpt lat="43.50373" lon="5.61377">
        <ele>419.27</ele>
        <time>2019-05-01T10:52:05Z</time>
      </trkpt>
      <trkpt lat="43.50377" lon="5.61383">
        <ele>420.71</ele>
        <time>2019-05-01T10:52:06Z</time>
      </trkpt>
      <trkpt lat="43.50381" lon="5.61391">
        <ele>421.68</ele>
        <time>2019-05-01T10:52:07Z</time>
      </trkpt>
      <trkpt lat="43.50385" lon="5.61401">
        <ele>422.64</ele>
        <time>2019-05-01T10:52:08Z</time>
      </trkpt>
      <trkpt lat="43.50402" lon="5.61431">
        <ele>426.48</ele>
        <time>2019-05-01T10:52:11Z</time>
      </trkpt>
      <trkpt lat="43.50409" lon="5.61441">
        <ele>427.92</ele>
        <time>2019-05-01T10:52:12Z</time>
      </trkpt>
      <trkpt lat="43.50437" lon="5.61481">
        <ele>432.25</ele>
        <time>2019-05-01T10:52:16Z</time>
      </trkpt>
      <trkpt lat="43.50444" lon="5.61493">
        <ele>433.69</ele>
        <time>2019-05-01T10:52:17Z</time>
      </trkpt>
      <trkpt lat="43.50449" lon="5.61506">
        <ele>435.13</ele>
        <time>2019-05-01T10:52:18Z</time>
      </trkpt>
      <trkpt lat="43.50453" lon="5.6152">
        <ele>436.58</ele>
        <time>2019-05-01T10:52:19Z</time>
      </trkpt>
      <trkpt lat="43.50465" lon="5.61564">
        <ele>440.9</ele>
        <time>2019-05-01T10:52:22Z</time>
      </trkpt>
      <trkpt lat="43.50478" lon="5.61625">
        <ele>444.75</ele>
        <time>2019-05-01T10:52:26Z</time>
      </trkpt>
      <trkpt lat="43.50483" lon="5.61641">
        <ele>445.23</ele>
        <time>2019-05-01T10:52:27Z</time>
      </trkpt>
      <trkpt lat="43.50489" lon="5.61656">
        <ele>446.19</ele>
        <time>2019-05-01T10:52:28Z</time>
      </trkpt>
      <trkpt lat="43.50502" lon="5.61686">
        <ele>447.63</ele>
        <time>2019-05-01T10:52:30Z</time>
      </trkpt>
      <trkpt lat="43.50506" lon="5.61701">
        <ele>449.07</ele>
        <time>2019-05-01T10:52:31Z</time>
      </trkpt>
      <trkpt lat="43.5051" lon="5.61717">
        <ele>449.07</ele>
        <time>2019-05-01T10:52:32Z</time>
      </trkpt>
      <trkpt lat="43.50517" lon="5.61763">
        <ele>451.48</ele>
        <time>2019-05-01T10:52:35Z</time>
      </trkpt>
      <trkpt lat="43.50522" lon="5.61779">
        <ele>453.4</ele>
        <time>2019-05-01T10:52:36Z</time>
      </trkpt>
      <trkpt lat="43.50527" lon="5.61792">
        <ele>453.88</ele>
        <time>2019-05-01T10:52:37Z</time>
      </trkpt>
      <trkpt lat="43.50533" lon="5.61805">
        <ele>454.36</ele>
        <time>2019-05-01T10:52:38Z</time>
      </trkpt>
      <trkpt lat="43.5054" lon="5.61815">
        <ele>455.32</ele>
        <time>2019-05-01T10:52:39Z</time>
      </trkpt>
      <trkpt lat="43.50546" lon="5.61824">
        <ele>455.32</ele>
        <time>2019-05-01T10:52:40Z</time>
      </trkpt>
      <trkpt lat="43.50554" lon="5.61831">
        <ele>456.28</ele>
        <time>2019-05-01T10:52:41Z</time>
      </trkpt>
      <trkpt lat="43.50562" lon="5.61835">
        <ele>457.24</ele>
        <time>2019-05-01T10:52:42Z</time>
      </trkpt>
      <trkpt lat="43.50571" lon="5.61838">
        <ele>457.72</ele>
        <time>2019-05-01T10:52:43Z</time>
      </trkpt>
      <trkpt lat="43.50581" lon="5.61839">
        <ele>458.21</ele>
        <time>2019-05-01T10:52:44Z</time>
      </trkpt>
      <trkpt lat="43.5059" lon="5.61838">
        <ele>458.69</ele>
        <time>2019-05-01T10:52:45Z</time>
      </trkpt>
      <trkpt lat="43.506" lon="5.61836">
        <ele>458.69</ele>
        <time>2019-05-01T10:52:46Z</time>
      </trkpt>
      <trkpt lat="43.50656" lon="5.61824">
        <ele>456.28</ele>
        <time>2019-05-01T10:52:51Z</time>
      </trkpt>
      <trkpt lat="43.50715" lon="5.61811">
        <ele>454.84</ele>
        <time>2019-05-01T10:52:56Z</time>
      </trkpt>
      <trkpt lat="43.50834" lon="5.61762">
        <ele>452.44</ele>
        <time>2019-05-01T10:53:05Z</time>
      </trkpt>
      <trkpt lat="43.50876" lon="5.61733">
        <ele>453.88</ele>
        <time>2019-05-01T10:53:08Z</time>
      </trkpt>
      <trkpt lat="43.50989" lon="5.61673">
        <ele>452.44</ele>
        <time>2019-05-01T10:53:16Z</time>
      </trkpt>
      <trkpt lat="43.51084" lon="5.6167">
        <ele>451</ele>
        <time>2019-05-01T10:53:24Z</time>
      </trkpt>
      <trkpt lat="43.51094" lon="5.61674">
        <ele>451</ele>
        <time>2019-05-01T10:53:25Z</time>
      </trkpt>
      <trkpt lat="43.51104" lon="5.61679">
        <ele>451</ele>
        <time>2019-05-01T10:53:26Z</time>
      </trkpt>
      <trkpt lat="43.51114" lon="5.61687">
        <ele>451</ele>
        <time>2019-05-01T10:53:27Z</time>
      </trkpt>
      <trkpt lat="43.51123" lon="5.61697">
        <ele>453.88</ele>
        <time>2019-05-01T10:53:28Z</time>
      </trkpt>
      <trkpt lat="43.51131" lon="5.61705">
        <ele>453.88</ele>
        <time>2019-05-01T10:53:29Z</time>
      </trkpt>
      <trkpt lat="43.51155" lon="5.61724">
        <ele>454.84</ele>
        <time>2019-05-01T10:53:32Z</time>
      </trkpt>
      <trkpt lat="43.51164" lon="5.61726">
        <ele>455.32</ele>
        <time>2019-05-01T10:53:33Z</time>
      </trkpt>
      <trkpt lat="43.51172" lon="5.61724">
        <ele>456.28</ele>
        <time>2019-05-01T10:53:34Z</time>
      </trkpt>
      <trkpt lat="43.51178" lon="5.61719">
        <ele>456.76</ele>
        <time>2019-05-01T10:53:35Z</time>
      </trkpt>
      <trkpt lat="43.51184" lon="5.61711">
        <ele>458.21</ele>
        <time>2019-05-01T10:53:36Z</time>
      </trkpt>
      <trkpt lat="43.51189" lon="5.61702">
        <ele>459.65</ele>
        <time>2019-05-01T10:53:37Z</time>
      </trkpt>
      <trkpt lat="43.51191" lon="5.61691">
        <ele>460.61</ele>
        <time>2019-05-01T10:53:38Z</time>
      </trkpt>
      <trkpt lat="43.51192" lon="5.61677">
        <ele>462.05</ele>
        <time>2019-05-01T10:53:39Z</time>
      </trkpt>
      <trkpt lat="43.512" lon="5.61608">
        <ele>465.42</ele>
        <time>2019-05-01T10:53:44Z</time>
      </trkpt>
      <trkpt lat="43.51201" lon="5.61593">
        <ele>465.42</ele>
        <time>2019-05-01T10:53:45Z</time>
      </trkpt>
      <trkpt lat="43.512" lon="5.61562">
        <ele>468.78</ele>
        <time>2019-05-01T10:53:47Z</time>
      </trkpt>
      <trkpt lat="43.51195" lon="5.61514">
        <ele>471.66</ele>
        <time>2019-05-01T10:53:50Z</time>
      </trkpt>
      <trkpt lat="43.51184" lon="5.61466">
        <ele>475.99</ele>
        <time>2019-05-01T10:53:53Z</time>
      </trkpt>
      <trkpt lat="43.5117" lon="5.61418">
        <ele>479.84</ele>
        <time>2019-05-01T10:53:56Z</time>
      </trkpt>
      <trkpt lat="43.5116" lon="5.61386">
        <ele>480.8</ele>
        <time>2019-05-01T10:53:58Z</time>
      </trkpt>
      <trkpt lat="43.51134" lon="5.61299">
        <ele>484.16</ele>
        <time>2019-05-01T10:54:05Z</time>
      </trkpt>
      <trkpt lat="43.51124" lon="5.61247">
        <ele>487.05</ele>
        <time>2019-05-01T10:54:09Z</time>
      </trkpt>
      <trkpt lat="43.51117" lon="5.61213">
        <ele>488.01</ele>
        <time>2019-05-01T10:54:12Z</time>
      </trkpt>
      <trkpt lat="43.51099" lon="5.61169">
        <ele>491.37</ele>
        <time>2019-05-01T10:54:16Z</time>
      </trkpt>
      <trkpt lat="43.51073" lon="5.61127">
        <ele>494.26</ele>
        <time>2019-05-01T10:54:20Z</time>
      </trkpt>
      <trkpt lat="43.51068" lon="5.61116">
        <ele>495.22</ele>
        <time>2019-05-01T10:54:21Z</time>
      </trkpt>
      <trkpt lat="43.51065" lon="5.61106">
        <ele>495.7</ele>
        <time>2019-05-01T10:54:22Z</time>
      </trkpt>
      <trkpt lat="43.51065" lon="5.61096">
        <ele>495.7</ele>
        <time>2019-05-01T10:54:23Z</time>
      </trkpt>
      <trkpt lat="43.51068" lon="5.61086">
        <ele>496.18</ele>
        <time>2019-05-01T10:54:24Z</time>
      </trkpt>
      <trkpt lat="43.51073" lon="5.61079">
        <ele>497.14</ele>
        <time>2019-05-01T10:54:25Z</time>
      </trkpt>
      <trkpt lat="43.51079" lon="5.61074">
        <ele>496.66</ele>
        <time>2019-05-01T10:54:26Z</time>
      </trkpt>
      <trkpt lat="43.51087" lon="5.61071">
        <ele>497.14</ele>
        <time>2019-05-01T10:54:27Z</time>
      </trkpt>
      <trkpt lat="43.51094" lon="5.61071">
        <ele>497.62</ele>
        <time>2019-05-01T10:54:28Z</time>
      </trkpt>
      <trkpt lat="43.51103" lon="5.61074">
        <ele>498.1</ele>
        <time>2019-05-01T10:54:29Z</time>
      </trkpt>
      <trkpt lat="43.51111" lon="5.61077">
        <ele>498.58</ele>
        <time>2019-05-01T10:54:30Z</time>
      </trkpt>
      <trkpt lat="43.51144" lon="5.6109">
        <ele>500.98</ele>
        <time>2019-05-01T10:54:34Z</time>
      </trkpt>
      <trkpt lat="43.51151" lon="5.6109">
        <ele>501.46</ele>
        <time>2019-05-01T10:54:35Z</time>
      </trkpt>
      <trkpt lat="43.51157" lon="5.61087">
        <ele>501.46</ele>
        <time>2019-05-01T10:54:36Z</time>
      </trkpt>
      <trkpt lat="43.51163" lon="5.61083">
        <ele>501.95</ele>
        <time>2019-05-01T10:54:37Z</time>
      </trkpt>
      <trkpt lat="43.5117" lon="5.61077">
        <ele>501.95</ele>
        <time>2019-05-01T10:54:38Z</time>
      </trkpt>
      <trkpt lat="43.51177" lon="5.61071">
        <ele>502.91</ele>
        <time>2019-05-01T10:54:39Z</time>
      </trkpt>
      <trkpt lat="43.51236" lon="5.60971">
        <ele>503.39</ele>
        <time>2019-05-01T10:54:48Z</time>
      </trkpt>
      <trkpt lat="43.51269" lon="5.60894">
        <ele>500.02</ele>
        <time>2019-05-01T10:54:53Z</time>
      </trkpt>
      <trkpt lat="43.51277" lon="5.60878">
        <ele>500.02</ele>
        <time>2019-05-01T10:54:54Z</time>
      </trkpt>
      <trkpt lat="43.51304" lon="5.60817">
        <ele>496.18</ele>
        <time>2019-05-01T10:54:58Z</time>
      </trkpt>
      <trkpt lat="43.51312" lon="5.60804">
        <ele>494.74</ele>
        <time>2019-05-01T10:54:59Z</time>
      </trkpt>
      <trkpt lat="43.51319" lon="5.60794">
        <ele>494.26</ele>
        <time>2019-05-01T10:55:00Z</time>
      </trkpt>
      <trkpt lat="43.51345" lon="5.60766">
        <ele>493.77</ele>
        <time>2019-05-01T10:55:03Z</time>
      </trkpt>
      <trkpt lat="43.51356" lon="5.60758">
        <ele>493.77</ele>
        <time>2019-05-01T10:55:04Z</time>
      </trkpt>
      <trkpt lat="43.51379" lon="5.60742">
        <ele>492.33</ele>
        <time>2019-05-01T10:55:06Z</time>
      </trkpt>
      <trkpt lat="43.51403" lon="5.60727">
        <ele>490.89</ele>
        <time>2019-05-01T10:55:08Z</time>
      </trkpt>
      <trkpt lat="43.51414" lon="5.60722">
        <ele>491.37</ele>
        <time>2019-05-01T10:55:09Z</time>
      </trkpt>
      <trkpt lat="43.5145" lon="5.60712">
        <ele>489.93</ele>
        <time>2019-05-01T10:55:12Z</time>
      </trkpt>
      <trkpt lat="43.51499" lon="5.60685">
        <ele>487.53</ele>
        <time>2019-05-01T10:55:16Z</time>
      </trkpt>
      <trkpt lat="43.51567" lon="5.60636">
        <ele>483.68</ele>
        <time>2019-05-01T10:55:22Z</time>
      </trkpt>
      <trkpt lat="43.51578" lon="5.60629">
        <ele>483.68</ele>
        <time>2019-05-01T10:55:23Z</time>
      </trkpt>
      <trkpt lat="43.51609" lon="5.60605">
        <ele>483.2</ele>
        <time>2019-05-01T10:55:26Z</time>
      </trkpt>
      <trkpt lat="43.51616" lon="5.60594">
        <ele>483.2</ele>
        <time>2019-05-01T10:55:27Z</time>
      </trkpt>
      <trkpt lat="43.51647" lon="5.60551">
        <ele>480.32</ele>
        <time>2019-05-01T10:55:31Z</time>
      </trkpt>
      <trkpt lat="43.51655" lon="5.60543">
        <ele>480.32</ele>
        <time>2019-05-01T10:55:32Z</time>
      </trkpt>
      <trkpt lat="43.51664" lon="5.60539">
        <ele>479.84</ele>
        <time>2019-05-01T10:55:33Z</time>
      </trkpt>
      <trkpt lat="43.51673" lon="5.60536">
        <ele>479.84</ele>
        <time>2019-05-01T10:55:34Z</time>
      </trkpt>
      <trkpt lat="43.51683" lon="5.60535">
        <ele>479.35</ele>
        <time>2019-05-01T10:55:35Z</time>
      </trkpt>
      <trkpt lat="43.51704" lon="5.6053">
        <ele>477.91</ele>
        <time>2019-05-01T10:55:37Z</time>
      </trkpt>
      <trkpt lat="43.51713" lon="5.60526">
        <ele>477.91</ele>
        <time>2019-05-01T10:55:38Z</time>
      </trkpt>
      <trkpt lat="43.51722" lon="5.60518">
        <ele>477.91</ele>
        <time>2019-05-01T10:55:39Z</time>
      </trkpt>
      <trkpt lat="43.51728" lon="5.60506">
        <ele>477.91</ele>
        <time>2019-05-01T10:55:40Z</time>
      </trkpt>
      <trkpt lat="43.51732" lon="5.60494">
        <ele>477.43</ele>
        <time>2019-05-01T10:55:41Z</time>
      </trkpt>
      <trkpt lat="43.51735" lon="5.6048">
        <ele>475.99</ele>
        <time>2019-05-01T10:55:42Z</time>
      </trkpt>
      <trkpt lat="43.51746" lon="5.60441">
        <ele>472.14</ele>
        <time>2019-05-01T10:55:45Z</time>
      </trkpt>
      <trkpt lat="43.51751" lon="5.60432">
        <ele>471.66</ele>
        <time>2019-05-01T10:55:46Z</time>
      </trkpt>
      <trkpt lat="43.51758" lon="5.60423">
        <ele>471.18</ele>
        <time>2019-05-01T10:55:47Z</time>
      </trkpt>
      <trkpt lat="43.51765" lon="5.60417">
        <ele>470.22</ele>
        <time>2019-05-01T10:55:48Z</time>
      </trkpt>
      <trkpt lat="43.51773" lon="5.6041">
        <ele>470.22</ele>
        <time>2019-05-01T10:55:49Z</time>
      </trkpt>
      <trkpt lat="43.51791" lon="5.60398">
        <ele>466.86</ele>
        <time>2019-05-01T10:55:51Z</time>
      </trkpt>
      <trkpt lat="43.518" lon="5.60392">
        <ele>467.34</ele>
        <time>2019-05-01T10:55:52Z</time>
      </trkpt>
      <trkpt lat="43.51821" lon="5.60379">
        <ele>465.42</ele>
        <time>2019-05-01T10:55:55Z</time>
      </trkpt>
      <trkpt lat="43.51832" lon="5.60368">
        <ele>463.97</ele>
        <time>2019-05-01T10:55:58Z</time>
      </trkpt>
      <trkpt lat="43.51833" lon="5.60362">
        <ele>466.38</ele>
        <time>2019-05-01T10:55:59Z</time>
      </trkpt>
      <trkpt lat="43.51833" lon="5.60355">
        <ele>465.9</ele>
        <time>2019-05-01T10:56:00Z</time>
      </trkpt>
      <trkpt lat="43.51832" lon="5.60345">
        <ele>465.9</ele>
        <time>2019-05-01T10:56:01Z</time>
      </trkpt>
      <trkpt lat="43.5183" lon="5.60333">
        <ele>466.86</ele>
        <time>2019-05-01T10:56:02Z</time>
      </trkpt>
      <trkpt lat="43.51828" lon="5.60319">
        <ele>466.86</ele>
        <time>2019-05-01T10:56:03Z</time>
      </trkpt>
      <trkpt lat="43.51805" lon="5.6017">
        <ele>464.93</ele>
        <time>2019-05-01T10:56:12Z</time>
      </trkpt>
      <trkpt lat="43.5181" lon="5.60117">
        <ele>462.53</ele>
        <time>2019-05-01T10:56:15Z</time>
      </trkpt>
      <trkpt lat="43.51823" lon="5.60043">
        <ele>461.09</ele>
        <time>2019-05-01T10:56:19Z</time>
      </trkpt>
      <trkpt lat="43.51869" lon="5.59804">
        <ele>458.21</ele>
        <time>2019-05-01T10:56:32Z</time>
      </trkpt>
      <trkpt lat="43.51886" lon="5.59755">
        <ele>461.57</ele>
        <time>2019-05-01T10:56:35Z</time>
      </trkpt>
      <trkpt lat="43.51892" lon="5.59739">
        <ele>461.57</ele>
        <time>2019-05-01T10:56:36Z</time>
      </trkpt>
      <trkpt lat="43.51913" lon="5.59666">
        <ele>463.97</ele>
        <time>2019-05-01T10:56:41Z</time>
      </trkpt>
      <trkpt lat="43.51938" lon="5.59541">
        <ele>463.49</ele>
        <time>2019-05-01T10:56:49Z</time>
      </trkpt>
      <trkpt lat="43.51954" lon="5.59456">
        <ele>460.13</ele>
        <time>2019-05-01T10:56:54Z</time>
      </trkpt>
      <trkpt lat="43.5196" lon="5.59423">
        <ele>457.72</ele>
        <time>2019-05-01T10:56:56Z</time>
      </trkpt>
      <trkpt lat="43.51973" lon="5.59369">
        <ele>454.36</ele>
        <time>2019-05-01T10:56:59Z</time>
      </trkpt>
      <trkpt lat="43.51979" lon="5.59349">
        <ele>454.36</ele>
        <time>2019-05-01T10:57:00Z</time>
      </trkpt>
      <trkpt lat="43.51998" lon="5.59288">
        <ele>451.48</ele>
        <time>2019-05-01T10:57:03Z</time>
      </trkpt>
      <trkpt lat="43.52008" lon="5.59258">
        <ele>448.59</ele>
        <time>2019-05-01T10:57:05Z</time>
      </trkpt>
      <trkpt lat="43.52022" lon="5.59224">
        <ele>446.19</ele>
        <time>2019-05-01T10:57:07Z</time>
      </trkpt>
      <trkpt lat="43.52031" lon="5.59207">
        <ele>445.23</ele>
        <time>2019-05-01T10:57:08Z</time>
      </trkpt>
      <trkpt lat="43.52048" lon="5.5918">
        <ele>444.27</ele>
        <time>2019-05-01T10:57:10Z</time>
      </trkpt>
      <trkpt lat="43.52097" lon="5.59068">
        <ele>443.79</ele>
        <time>2019-05-01T10:57:17Z</time>
      </trkpt>
      <trkpt lat="43.52107" lon="5.59018">
        <ele>443.79</ele>
        <time>2019-05-01T10:57:20Z</time>
      </trkpt>
      <trkpt lat="43.52108" lon="5.58996">
        <ele>442.82</ele>
        <time>2019-05-01T10:57:21Z</time>
      </trkpt>
      <trkpt lat="43.52108" lon="5.58977">
        <ele>442.34</ele>
        <time>2019-05-01T10:57:22Z</time>
      </trkpt>
      <trkpt lat="43.52107" lon="5.58958">
        <ele>442.34</ele>
        <time>2019-05-01T10:57:23Z</time>
      </trkpt>
      <trkpt lat="43.52103" lon="5.5894">
        <ele>441.38</ele>
        <time>2019-05-01T10:57:24Z</time>
      </trkpt>
      <trkpt lat="43.52099" lon="5.58921">
        <ele>441.38</ele>
        <time>2019-05-01T10:57:25Z</time>
      </trkpt>
      <trkpt lat="43.52093" lon="5.58904">
        <ele>441.38</ele>
        <time>2019-05-01T10:57:26Z</time>
      </trkpt>
      <trkpt lat="43.52082" lon="5.58878">
        <ele>441.38</ele>
        <time>2019-05-01T10:57:27Z</time>
      </trkpt>
      <trkpt lat="43.52077" lon="5.58869">
        <ele>441.38</ele>
        <time>2019-05-01T10:57:28Z</time>
      </trkpt>
      <trkpt lat="43.52021" lon="5.58715">
        <ele>441.38</ele>
        <time>2019-05-01T10:57:37Z</time>
      </trkpt>
      <trkpt lat="43.51984" lon="5.58569">
        <ele>440.42</ele>
        <time>2019-05-01T10:57:45Z</time>
      </trkpt>
      <trkpt lat="43.51965" lon="5.58468">
        <ele>438.5</ele>
        <time>2019-05-01T10:57:51Z</time>
      </trkpt>
      <trkpt lat="43.51957" lon="5.5838">
        <ele>434.65</ele>
        <time>2019-05-01T10:57:56Z</time>
      </trkpt>
      <trkpt lat="43.51954" lon="5.58332">
        <ele>431.29</ele>
        <time>2019-05-01T10:57:59Z</time>
      </trkpt>
      <trkpt lat="43.51955" lon="5.58317">
        <ele>429.37</ele>
        <time>2019-05-01T10:58:00Z</time>
      </trkpt>
      <trkpt lat="43.51958" lon="5.58305">
        <ele>427.92</ele>
        <time>2019-05-01T10:58:01Z</time>
      </trkpt>
      <trkpt lat="43.51965" lon="5.58291">
        <ele>426.96</ele>
        <time>2019-05-01T10:58:02Z</time>
      </trkpt>
      <trkpt lat="43.5197" lon="5.58281">
        <ele>426.48</ele>
        <time>2019-05-01T10:58:03Z</time>
      </trkpt>
      <trkpt lat="43.51995" lon="5.58243">
        <ele>424.08</ele>
        <time>2019-05-01T10:58:07Z</time>
      </trkpt>
      <trkpt lat="43.52009" lon="5.58217">
        <ele>421.68</ele>
        <time>2019-05-01T10:58:10Z</time>
      </trkpt>
      <trkpt lat="43.52012" lon="5.58208">
        <ele>421.19</ele>
        <time>2019-05-01T10:58:11Z</time>
      </trkpt>
      <trkpt lat="43.52014" lon="5.58197">
        <ele>421.68</ele>
        <time>2019-05-01T10:58:12Z</time>
      </trkpt>
      <trkpt lat="43.52015" lon="5.58184">
        <ele>420.71</ele>
        <time>2019-05-01T10:58:13Z</time>
      </trkpt>
      <trkpt lat="43.52016" lon="5.58171">
        <ele>420.71</ele>
        <time>2019-05-01T10:58:14Z</time>
      </trkpt>
      <trkpt lat="43.52016" lon="5.58156">
        <ele>420.71</ele>
        <time>2019-05-01T10:58:15Z</time>
      </trkpt>
      <trkpt lat="43.52015" lon="5.5814">
        <ele>420.71</ele>
        <time>2019-05-01T10:58:16Z</time>
      </trkpt>
      <trkpt lat="43.52007" lon="5.57998">
        <ele>416.87</ele>
        <time>2019-05-01T10:58:24Z</time>
      </trkpt>
      <trkpt lat="43.52004" lon="5.57957">
        <ele>413.98</ele>
        <time>2019-05-01T10:58:27Z</time>
      </trkpt>
      <trkpt lat="43.52004" lon="5.5788">
        <ele>412.06</ele>
        <time>2019-05-01T10:58:32Z</time>
      </trkpt>
      <trkpt lat="43.52007" lon="5.57864">
        <ele>412.06</ele>
        <time>2019-05-01T10:58:33Z</time>
      </trkpt>
      <trkpt lat="43.52011" lon="5.57848">
        <ele>412.06</ele>
        <time>2019-05-01T10:58:34Z</time>
      </trkpt>
      <trkpt lat="43.52029" lon="5.57781">
        <ele>407.74</ele>
        <time>2019-05-01T10:58:38Z</time>
      </trkpt>
      <trkpt lat="43.52033" lon="5.57765">
        <ele>406.77</ele>
        <time>2019-05-01T10:58:39Z</time>
      </trkpt>
      <trkpt lat="43.52034" lon="5.57749">
        <ele>405.33</ele>
        <time>2019-05-01T10:58:40Z</time>
      </trkpt>
      <trkpt lat="43.52034" lon="5.57733">
        <ele>403.89</ele>
        <time>2019-05-01T10:58:41Z</time>
      </trkpt>
      <trkpt lat="43.52032" lon="5.57718">
        <ele>402.93</ele>
        <time>2019-05-01T10:58:42Z</time>
      </trkpt>
      <trkpt lat="43.52026" lon="5.57703">
        <ele>401.97</ele>
        <time>2019-05-01T10:58:43Z</time>
      </trkpt>
      <trkpt lat="43.52018" lon="5.5769">
        <ele>401.97</ele>
        <time>2019-05-01T10:58:44Z</time>
      </trkpt>
      <trkpt lat="43.5201" lon="5.57676">
        <ele>401.49</ele>
        <time>2019-05-01T10:58:45Z</time>
      </trkpt>
      <trkpt lat="43.51985" lon="5.57635">
        <ele>399.57</ele>
        <time>2019-05-01T10:58:48Z</time>
      </trkpt>
      <trkpt lat="43.51978" lon="5.57622">
        <ele>397.64</ele>
        <time>2019-05-01T10:58:49Z</time>
      </trkpt>
      <trkpt lat="43.51973" lon="5.57607">
        <ele>396.2</ele>
        <time>2019-05-01T10:58:50Z</time>
      </trkpt>
      <trkpt lat="43.51969" lon="5.57592">
        <ele>395.72</ele>
        <time>2019-05-01T10:58:51Z</time>
      </trkpt>
      <trkpt lat="43.51968" lon="5.57577">
        <ele>394.76</ele>
        <time>2019-05-01T10:58:52Z</time>
      </trkpt>
      <trkpt lat="43.51968" lon="5.5756">
        <ele>394.28</ele>
        <time>2019-05-01T10:58:53Z</time>
      </trkpt>
      <trkpt lat="43.51969" lon="5.57544">
        <ele>394.28</ele>
        <time>2019-05-01T10:58:54Z</time>
      </trkpt>
      <trkpt lat="43.51977" lon="5.5747">
        <ele>390.43</ele>
        <time>2019-05-01T10:58:59Z</time>
      </trkpt>
      <trkpt lat="43.51982" lon="5.57458">
        <ele>388.99</ele>
        <time>2019-05-01T10:59:00Z</time>
      </trkpt>
      <trkpt lat="43.51988" lon="5.57447">
        <ele>388.03</ele>
        <time>2019-05-01T10:59:01Z</time>
      </trkpt>
      <trkpt lat="43.51995" lon="5.57438">
        <ele>388.03</ele>
        <time>2019-05-01T10:59:02Z</time>
      </trkpt>
      <trkpt lat="43.52004" lon="5.5743">
        <ele>387.07</ele>
        <time>2019-05-01T10:59:03Z</time>
      </trkpt>
      <trkpt lat="43.52013" lon="5.57423">
        <ele>385.63</ele>
        <time>2019-05-01T10:59:04Z</time>
      </trkpt>
      <trkpt lat="43.52023" lon="5.57418">
        <ele>384.66</ele>
        <time>2019-05-01T10:59:05Z</time>
      </trkpt>
      <trkpt lat="43.52035" lon="5.57413">
        <ele>384.18</ele>
        <time>2019-05-01T10:59:06Z</time>
      </trkpt>
      <trkpt lat="43.52043" lon="5.57408">
        <ele>383.22</ele>
        <time>2019-05-01T10:59:07Z</time>
      </trkpt>
      <trkpt lat="43.52053" lon="5.57401">
        <ele>383.22</ele>
        <time>2019-05-01T10:59:08Z</time>
      </trkpt>
      <trkpt lat="43.52061" lon="5.57394">
        <ele>381.78</ele>
        <time>2019-05-01T10:59:09Z</time>
      </trkpt>
      <trkpt lat="43.52067" lon="5.57388">
        <ele>379.86</ele>
        <time>2019-05-01T10:59:10Z</time>
      </trkpt>
      <trkpt lat="43.5207" lon="5.57383">
        <ele>378.9</ele>
        <time>2019-05-01T10:59:11Z</time>
      </trkpt>
      <trkpt lat="43.52073" lon="5.57378">
        <ele>377.45</ele>
        <time>2019-05-01T10:59:12Z</time>
      </trkpt>
      <trkpt lat="43.52076" lon="5.57374">
        <ele>376.97</ele>
        <time>2019-05-01T10:59:13Z</time>
      </trkpt>
      <trkpt lat="43.52078" lon="5.57368">
        <ele>376.97</ele>
        <time>2019-05-01T10:59:14Z</time>
      </trkpt>
      <trkpt lat="43.52085" lon="5.57357">
        <ele>376.49</ele>
        <time>2019-05-01T10:59:16Z</time>
      </trkpt>
      <trkpt lat="43.5209" lon="5.57352">
        <ele>376.49</ele>
        <time>2019-05-01T10:59:17Z</time>
      </trkpt>
      <trkpt lat="43.52095" lon="5.57347">
        <ele>376.49</ele>
        <time>2019-05-01T10:59:18Z</time>
      </trkpt>
      <trkpt lat="43.52102" lon="5.57343">
        <ele>375.53</ele>
        <time>2019-05-01T10:59:19Z</time>
      </trkpt>
      <trkpt lat="43.52108" lon="5.57339">
        <ele>375.53</ele>
        <time>2019-05-01T10:59:20Z</time>
      </trkpt>
      <trkpt lat="43.52113" lon="5.57335">
        <ele>375.05</ele>
        <time>2019-05-01T10:59:21Z</time>
      </trkpt>
      <trkpt lat="43.52117" lon="5.5733">
        <ele>374.09</ele>
        <time>2019-05-01T10:59:22Z</time>
      </trkpt>
      <trkpt lat="43.52118" lon="5.57326">
        <ele>374.09</ele>
        <time>2019-05-01T10:59:23Z</time>
      </trkpt>
      <trkpt lat="43.52115" lon="5.57323">
        <ele>373.61</ele>
        <time>2019-05-01T10:59:24Z</time>
      </trkpt>
      <trkpt lat="43.5211" lon="5.57322">
        <ele>373.13</ele>
        <time>2019-05-01T10:59:25Z</time>
      </trkpt>
      <trkpt lat="43.52102" lon="5.57325">
        <ele>372.17</ele>
        <time>2019-05-01T10:59:26Z</time>
      </trkpt>
      <trkpt lat="43.52096" lon="5.57329">
        <ele>371.69</ele>
        <time>2019-05-01T10:59:27Z</time>
      </trkpt>
      <trkpt lat="43.52086" lon="5.57335">
        <ele>371.69</ele>
        <time>2019-05-01T10:59:29Z</time>
      </trkpt>
      <trkpt lat="43.52056" lon="5.57358">
        <ele>370.24</ele>
        <time>2019-05-01T10:59:32Z</time>
      </trkpt>
      <trkpt lat="43.52025" lon="5.57354">
        <ele>364</ele>
        <time>2019-05-01T10:59:40Z</time>
      </trkpt>
      <trkpt lat="43.52031" lon="5.57348">
        <ele>364</ele>
        <time>2019-05-01T10:59:41Z</time>
      </trkpt>
      <trkpt lat="43.52037" lon="5.57344">
        <ele>363.52</ele>
        <time>2019-05-01T10:59:42Z</time>
      </trkpt>
      <trkpt lat="43.52077" lon="5.5731">
        <ele>359.19</ele>
        <time>2019-05-01T10:59:48Z</time>
      </trkpt>
      <trkpt lat="43.52079" lon="5.57305">
        <ele>359.19</ele>
        <time>2019-05-01T10:59:49Z</time>
      </trkpt>
      <trkpt lat="43.52078" lon="5.57296">
        <ele>358.23</ele>
        <time>2019-05-01T10:59:50Z</time>
      </trkpt>
      <trkpt lat="43.52077" lon="5.57286">
        <ele>356.79</ele>
        <time>2019-05-01T10:59:51Z</time>
      </trkpt>
      <trkpt lat="43.52077" lon="5.57277">
        <ele>355.34</ele>
        <time>2019-05-01T10:59:52Z</time>
      </trkpt>
      <trkpt lat="43.52079" lon="5.5727">
        <ele>354.38</ele>
        <time>2019-05-01T10:59:53Z</time>
      </trkpt>
      <trkpt lat="43.52082" lon="5.57265">
        <ele>354.38</ele>
        <time>2019-05-01T10:59:54Z</time>
      </trkpt>
      <trkpt lat="43.52087" lon="5.57262">
        <ele>354.38</ele>
        <time>2019-05-01T10:59:55Z</time>
      </trkpt>
      <trkpt lat="43.52094" lon="5.57261">
        <ele>354.38</ele>
        <time>2019-05-01T10:59:56Z</time>
      </trkpt>
      <trkpt lat="43.52103" lon="5.57259">
        <ele>353.9</ele>
        <time>2019-05-01T10:59:57Z</time>
      </trkpt>
      <trkpt lat="43.52111" lon="5.57255">
        <ele>353.9</ele>
        <time>2019-05-01T10:59:58Z</time>
      </trkpt>
      <trkpt lat="43.52118" lon="5.5725">
        <ele>353.42</ele>
        <time>2019-05-01T10:59:59Z</time>
      </trkpt>
      <trkpt lat="43.52126" lon="5.57242">
        <ele>352.94</ele>
        <time>2019-05-01T11:00:00Z</time>
      </trkpt>
      <trkpt lat="43.52133" lon="5.57231">
        <ele>352.46</ele>
        <time>2019-05-01T11:00:01Z</time>
      </trkpt>
      <trkpt lat="43.52141" lon="5.5722">
        <ele>351.02</ele>
        <time>2019-05-01T11:00:02Z</time>
      </trkpt>
      <trkpt lat="43.52159" lon="5.57198">
        <ele>349.1</ele>
        <time>2019-05-01T11:00:04Z</time>
      </trkpt>
      <trkpt lat="43.52169" lon="5.5719">
        <ele>348.62</ele>
        <time>2019-05-01T11:00:05Z</time>
      </trkpt>
      <trkpt lat="43.52181" lon="5.57183">
        <ele>347.17</ele>
        <time>2019-05-01T11:00:06Z</time>
      </trkpt>
      <trkpt lat="43.52206" lon="5.57171">
        <ele>345.73</ele>
        <time>2019-05-01T11:00:08Z</time>
      </trkpt>
      <trkpt lat="43.52217" lon="5.57165">
        <ele>344.29</ele>
        <time>2019-05-01T11:00:09Z</time>
      </trkpt>
      <trkpt lat="43.52226" lon="5.57158">
        <ele>341.41</ele>
        <time>2019-05-01T11:00:10Z</time>
      </trkpt>
      <trkpt lat="43.52244" lon="5.57144">
        <ele>337.56</ele>
        <time>2019-05-01T11:00:12Z</time>
      </trkpt>
      <trkpt lat="43.52254" lon="5.57135">
        <ele>338.04</ele>
        <time>2019-05-01T11:00:13Z</time>
      </trkpt>
      <trkpt lat="43.52294" lon="5.57098">
        <ele>334.68</ele>
        <time>2019-05-01T11:00:17Z</time>
      </trkpt>
      <trkpt lat="43.52323" lon="5.57073">
        <ele>328.91</ele>
        <time>2019-05-01T11:00:20Z</time>
      </trkpt>
      <trkpt lat="43.52331" lon="5.57068">
        <ele>327.47</ele>
        <time>2019-05-01T11:00:21Z</time>
      </trkpt>
      <trkpt lat="43.52352" lon="5.57067">
        <ele>324.58</ele>
        <time>2019-05-01T11:00:24Z</time>
      </trkpt>
      <trkpt lat="43.52371" lon="5.57076">
        <ele>321.7</ele>
        <time>2019-05-01T11:00:30Z</time>
      </trkpt>
      <trkpt lat="43.52372" lon="5.57069">
        <ele>321.22</ele>
        <time>2019-05-01T11:00:31Z</time>
      </trkpt>
      <trkpt lat="43.5237" lon="5.5706">
        <ele>319.78</ele>
        <time>2019-05-01T11:00:32Z</time>
      </trkpt>
      <trkpt lat="43.52367" lon="5.57047">
        <ele>319.78</ele>
        <time>2019-05-01T11:00:33Z</time>
      </trkpt>
      <trkpt lat="43.5236" lon="5.57024">
        <ele>318.81</ele>
        <time>2019-05-01T11:00:35Z</time>
      </trkpt>
      <trkpt lat="43.52358" lon="5.57011">
        <ele>317.85</ele>
        <time>2019-05-01T11:00:36Z</time>
      </trkpt>
      <trkpt lat="43.52357" lon="5.56998">
        <ele>316.89</ele>
        <time>2019-05-01T11:00:37Z</time>
      </trkpt>
      <trkpt lat="43.52356" lon="5.56986">
        <ele>316.41</ele>
        <time>2019-05-01T11:00:38Z</time>
      </trkpt>
      <trkpt lat="43.52356" lon="5.56975">
        <ele>315.45</ele>
        <time>2019-05-01T11:00:39Z</time>
      </trkpt>
      <trkpt lat="43.52357" lon="5.56867">
        <ele>313.05</ele>
        <time>2019-05-01T11:00:49Z</time>
      </trkpt>
      <trkpt lat="43.52355" lon="5.56857">
        <ele>313.05</ele>
        <time>2019-05-01T11:00:50Z</time>
      </trkpt>
      <trkpt lat="43.52351" lon="5.5685">
        <ele>312.09</ele>
        <time>2019-05-01T11:00:51Z</time>
      </trkpt>
      <trkpt lat="43.52346" lon="5.56846">
        <ele>312.09</ele>
        <time>2019-05-01T11:00:52Z</time>
      </trkpt>
      <trkpt lat="43.52341" lon="5.56843">
        <ele>311.6</ele>
        <time>2019-05-01T11:00:53Z</time>
      </trkpt>
      <trkpt lat="43.52335" lon="5.5684">
        <ele>310.64</ele>
        <time>2019-05-01T11:00:54Z</time>
      </trkpt>
      <trkpt lat="43.52329" lon="5.56837">
        <ele>310.64</ele>
        <time>2019-05-01T11:00:55Z</time>
      </trkpt>
      <trkpt lat="43.52314" lon="5.56828">
        <ele>309.68</ele>
        <time>2019-05-01T11:00:58Z</time>
      </trkpt>
      <trkpt lat="43.52311" lon="5.56824">
        <ele>309.2</ele>
        <time>2019-05-01T11:00:59Z</time>
      </trkpt>
      <trkpt lat="43.52309" lon="5.5682">
        <ele>309.2</ele>
        <time>2019-05-01T11:01:00Z</time>
      </trkpt>
      <trkpt lat="43.523" lon="5.56803">
        <ele>307.28</ele>
        <time>2019-05-01T11:01:11Z</time>
      </trkpt>
      <trkpt lat="43.52299" lon="5.56801">
        <ele>307.28</ele>
        <time>2019-05-01T11:01:15Z</time>
      </trkpt>
      <trkpt lat="43.52299" lon="5.56798">
        <ele>306.8</ele>
        <time>2019-05-01T11:01:16Z</time>
      </trkpt>
      <trkpt lat="43.52297" lon="5.56789">
        <ele>306.8</ele>
        <time>2019-05-01T11:01:18Z</time>
      </trkpt>
      <trkpt lat="43.52297" lon="5.56781">
        <ele>306.32</ele>
        <time>2019-05-01T11:01:19Z</time>
      </trkpt>
      <trkpt lat="43.52298" lon="5.56773">
        <ele>306.32</ele>
        <time>2019-05-01T11:01:20Z</time>
      </trkpt>
      <trkpt lat="43.52305" lon="5.56736">
        <ele>304.39</ele>
        <time>2019-05-01T11:01:24Z</time>
      </trkpt>
      <trkpt lat="43.52311" lon="5.56719">
        <ele>303.91</ele>
        <time>2019-05-01T11:01:26Z</time>
      </trkpt>
      <trkpt lat="43.52321" lon="5.56687">
        <ele>302.47</ele>
        <time>2019-05-01T11:01:29Z</time>
      </trkpt>
      <trkpt lat="43.52323" lon="5.56675">
        <ele>302.47</ele>
        <time>2019-05-01T11:01:30Z</time>
      </trkpt>
      <trkpt lat="43.52327" lon="5.56647">
        <ele>303.91</ele>
        <time>2019-05-01T11:01:32Z</time>
      </trkpt>
      <trkpt lat="43.52342" lon="5.56541">
        <ele>301.99</ele>
        <time>2019-05-01T11:01:39Z</time>
      </trkpt>
      <trkpt lat="43.52346" lon="5.56528">
        <ele>301.51</ele>
        <time>2019-05-01T11:01:40Z</time>
      </trkpt>
      <trkpt lat="43.52352" lon="5.56517">
        <ele>300.55</ele>
        <time>2019-05-01T11:01:41Z</time>
      </trkpt>
      <trkpt lat="43.52358" lon="5.5651">
        <ele>300.55</ele>
        <time>2019-05-01T11:01:42Z</time>
      </trkpt>
      <trkpt lat="43.52364" lon="5.56504">
        <ele>300.55</ele>
        <time>2019-05-01T11:01:43Z</time>
      </trkpt>
      <trkpt lat="43.52368" lon="5.565">
        <ele>299.59</ele>
        <time>2019-05-01T11:01:44Z</time>
      </trkpt>
      <trkpt lat="43.52371" lon="5.56496">
        <ele>299.11</ele>
        <time>2019-05-01T11:01:45Z</time>
      </trkpt>
      <trkpt lat="43.52373" lon="5.56493">
        <ele>298.63</ele>
        <time>2019-05-01T11:01:46Z</time>
      </trkpt>
      <trkpt lat="43.52375" lon="5.5649">
        <ele>298.63</ele>
        <time>2019-05-01T11:01:47Z</time>
      </trkpt>
      <trkpt lat="43.52376" lon="5.56488">
        <ele>298.63</ele>
        <time>2019-05-01T11:01:48Z</time>
      </trkpt>
      <trkpt lat="43.52376" lon="5.56486">
        <ele>298.63</ele>
        <time>2019-05-01T11:01:49Z</time>
      </trkpt>
      <trkpt lat="43.52377" lon="5.56484">
        <ele>298.15</ele>
        <time>2019-05-01T11:01:50Z</time>
      </trkpt>
      <trkpt lat="43.52379" lon="5.56478">
        <ele>298.15</ele>
        <time>2019-05-01T11:01:52Z</time>
      </trkpt>
      <trkpt lat="43.52379" lon="5.56473">
        <ele>298.15</ele>
        <time>2019-05-01T11:01:53Z</time>
      </trkpt>
      <trkpt lat="43.52378" lon="5.56464">
        <ele>298.15</ele>
        <time>2019-05-01T11:01:54Z</time>
      </trkpt>
      <trkpt lat="43.52377" lon="5.56397">
        <ele>298.15</ele>
        <time>2019-05-01T11:02:01Z</time>
      </trkpt>
      <trkpt lat="43.5238" lon="5.56384">
        <ele>298.15</ele>
        <time>2019-05-01T11:02:02Z</time>
      </trkpt>
      <trkpt lat="43.52393" lon="5.56345">
        <ele>300.07</ele>
        <time>2019-05-01T11:02:05Z</time>
      </trkpt>
      <trkpt lat="43.52396" lon="5.56331">
        <ele>300.07</ele>
        <time>2019-05-01T11:02:06Z</time>
      </trkpt>
      <trkpt lat="43.52398" lon="5.56316">
        <ele>300.07</ele>
        <time>2019-05-01T11:02:07Z</time>
      </trkpt>
      <trkpt lat="43.52397" lon="5.56301">
        <ele>300.07</ele>
        <time>2019-05-01T11:02:08Z</time>
      </trkpt>
      <trkpt lat="43.52386" lon="5.56177">
        <ele>297.18</ele>
        <time>2019-05-01T11:02:15Z</time>
      </trkpt>
      <trkpt lat="43.52383" lon="5.56159">
        <ele>297.18</ele>
        <time>2019-05-01T11:02:16Z</time>
      </trkpt>
      <trkpt lat="43.52364" lon="5.56046">
        <ele>293.34</ele>
        <time>2019-05-01T11:02:22Z</time>
      </trkpt>
      <trkpt lat="43.52365" lon="5.56027">
        <ele>293.34</ele>
        <time>2019-05-01T11:02:23Z</time>
      </trkpt>
      <trkpt lat="43.52365" lon="5.5586">
        <ele>289.97</ele>
        <time>2019-05-01T11:02:32Z</time>
      </trkpt>
      <trkpt lat="43.52367" lon="5.55841">
        <ele>288.53</ele>
        <time>2019-05-01T11:02:33Z</time>
      </trkpt>
      <trkpt lat="43.5237" lon="5.55825">
        <ele>288.53</ele>
        <time>2019-05-01T11:02:34Z</time>
      </trkpt>
      <trkpt lat="43.52381" lon="5.55772">
        <ele>285.65</ele>
        <time>2019-05-01T11:02:37Z</time>
      </trkpt>
      <trkpt lat="43.52382" lon="5.55753">
        <ele>285.17</ele>
        <time>2019-05-01T11:02:38Z</time>
      </trkpt>
      <trkpt lat="43.52382" lon="5.55739">
        <ele>283.25</ele>
        <time>2019-05-01T11:02:39Z</time>
      </trkpt>
      <trkpt lat="43.5238" lon="5.55709">
        <ele>281.32</ele>
        <time>2019-05-01T11:02:41Z</time>
      </trkpt>
      <trkpt lat="43.5237" lon="5.55645">
        <ele>279.4</ele>
        <time>2019-05-01T11:02:45Z</time>
      </trkpt>
      <trkpt lat="43.52365" lon="5.5563">
        <ele>279.4</ele>
        <time>2019-05-01T11:02:46Z</time>
      </trkpt>
      <trkpt lat="43.52339" lon="5.55569">
        <ele>277</ele>
        <time>2019-05-01T11:02:50Z</time>
      </trkpt>
      <trkpt lat="43.5233" lon="5.55555">
        <ele>277</ele>
        <time>2019-05-01T11:02:51Z</time>
      </trkpt>
      <trkpt lat="43.52301" lon="5.55516">
        <ele>277</ele>
        <time>2019-05-01T11:02:54Z</time>
      </trkpt>
      <trkpt lat="43.52293" lon="5.55501">
        <ele>277</ele>
        <time>2019-05-01T11:02:55Z</time>
      </trkpt>
      <trkpt lat="43.52286" lon="5.55486">
        <ele>276.52</ele>
        <time>2019-05-01T11:02:56Z</time>
      </trkpt>
      <trkpt lat="43.52279" lon="5.55468">
        <ele>277</ele>
        <time>2019-05-01T11:02:57Z</time>
      </trkpt>
      <trkpt lat="43.52274" lon="5.55451">
        <ele>277</ele>
        <time>2019-05-01T11:02:58Z</time>
      </trkpt>
      <trkpt lat="43.5227" lon="5.55431">
        <ele>276.04</ele>
        <time>2019-05-01T11:02:59Z</time>
      </trkpt>
      <trkpt lat="43.52243" lon="5.55322">
        <ele>271.23</ele>
        <time>2019-05-01T11:03:05Z</time>
      </trkpt>
      <trkpt lat="43.52236" lon="5.55292">
        <ele>270.27</ele>
        <time>2019-05-01T11:03:07Z</time>
      </trkpt>
      <trkpt lat="43.52216" lon="5.5518">
        <ele>266.42</ele>
        <time>2019-05-01T11:03:14Z</time>
      </trkpt>
      <trkpt lat="43.52212" lon="5.55157">
        <ele>265.94</ele>
        <time>2019-05-01T11:03:16Z</time>
      </trkpt>
      <trkpt lat="43.52203" lon="5.55121">
        <ele>262.1</ele>
        <time>2019-05-01T11:03:20Z</time>
      </trkpt>
      <trkpt lat="43.52202" lon="5.55116">
        <ele>262.1</ele>
        <time>2019-05-01T11:03:21Z</time>
      </trkpt>
      <trkpt lat="43.52178" lon="5.55032">
        <ele>261.62</ele>
        <time>2019-05-01T11:03:28Z</time>
      </trkpt>
      <trkpt lat="43.52169" lon="5.55">
        <ele>260.65</ele>
        <time>2019-05-01T11:03:30Z</time>
      </trkpt>
      <trkpt lat="43.52157" lon="5.54953">
        <ele>256.33</ele>
        <time>2019-05-01T11:03:33Z</time>
      </trkpt>
      <trkpt lat="43.52147" lon="5.54915">
        <ele>252.96</ele>
        <time>2019-05-01T11:03:36Z</time>
      </trkpt>
      <trkpt lat="43.52134" lon="5.5487">
        <ele>249.6</ele>
        <time>2019-05-01T11:03:41Z</time>
      </trkpt>
      <trkpt lat="43.52123" lon="5.54837">
        <ele>249.6</ele>
        <time>2019-05-01T11:03:45Z</time>
      </trkpt>
      <trkpt lat="43.52093" lon="5.54775">
        <ele>248.16</ele>
        <time>2019-05-01T11:03:52Z</time>
      </trkpt>
      <trkpt lat="43.52073" lon="5.54675">
        <ele>244.31</ele>
        <time>2019-05-01T11:04:00Z</time>
      </trkpt>
      <trkpt lat="43.52072" lon="5.54652">
        <ele>242.87</ele>
        <time>2019-05-01T11:04:02Z</time>
      </trkpt>
      <trkpt lat="43.52072" lon="5.54584">
        <ele>242.87</ele>
        <time>2019-05-01T11:04:07Z</time>
      </trkpt>
      <trkpt lat="43.52069" lon="5.54571">
        <ele>242.87</ele>
        <time>2019-05-01T11:04:08Z</time>
      </trkpt>
      <trkpt lat="43.52064" lon="5.54557">
        <ele>242.39</ele>
        <time>2019-05-01T11:04:09Z</time>
      </trkpt>
      <trkpt lat="43.52046" lon="5.54514">
        <ele>240.47</ele>
        <time>2019-05-01T11:04:13Z</time>
      </trkpt>
      <trkpt lat="43.52004" lon="5.54411">
        <ele>242.39</ele>
        <time>2019-05-01T11:04:22Z</time>
      </trkpt>
      <trkpt lat="43.51955" lon="5.54252">
        <ele>242.87</ele>
        <time>2019-05-01T11:04:33Z</time>
      </trkpt>
      <trkpt lat="43.5194" lon="5.54146">
        <ele>244.79</ele>
        <time>2019-05-01T11:04:41Z</time>
      </trkpt>
      <trkpt lat="43.51936" lon="5.5409">
        <ele>245.75</ele>
        <time>2019-05-01T11:04:45Z</time>
      </trkpt>
      <trkpt lat="43.51936" lon="5.54076">
        <ele>246.72</ele>
        <time>2019-05-01T11:04:46Z</time>
      </trkpt>
      <trkpt lat="43.51939" lon="5.54062">
        <ele>246.72</ele>
        <time>2019-05-01T11:04:47Z</time>
      </trkpt>
      <trkpt lat="43.51942" lon="5.54049">
        <ele>247.2</ele>
        <time>2019-05-01T11:04:48Z</time>
      </trkpt>
      <trkpt lat="43.51946" lon="5.54035">
        <ele>248.16</ele>
        <time>2019-05-01T11:04:49Z</time>
      </trkpt>
      <trkpt lat="43.51952" lon="5.54015">
        <ele>248.16</ele>
        <time>2019-05-01T11:04:50Z</time>
      </trkpt>
      <trkpt lat="43.51975" lon="5.53915">
        <ele>250.56</ele>
        <time>2019-05-01T11:04:56Z</time>
      </trkpt>
      <trkpt lat="43.51977" lon="5.53901">
        <ele>251.04</ele>
        <time>2019-05-01T11:04:57Z</time>
      </trkpt>
      <trkpt lat="43.51981" lon="5.5381">
        <ele>248.16</ele>
        <time>2019-05-01T11:05:04Z</time>
      </trkpt>
      <trkpt lat="43.51991" lon="5.53733">
        <ele>251.52</ele>
        <time>2019-05-01T11:05:09Z</time>
      </trkpt>
      <trkpt lat="43.5201" lon="5.536">
        <ele>251.04</ele>
        <time>2019-05-01T11:05:17Z</time>
      </trkpt>
      <trkpt lat="43.5201" lon="5.53574">
        <ele>250.56</ele>
        <time>2019-05-01T11:05:20Z</time>
      </trkpt>
      <trkpt lat="43.52007" lon="5.53525">
        <ele>248.16</ele>
        <time>2019-05-01T11:05:24Z</time>
      </trkpt>
      <trkpt lat="43.52008" lon="5.5351">
        <ele>248.16</ele>
        <time>2019-05-01T11:05:25Z</time>
      </trkpt>
      <trkpt lat="43.5201" lon="5.53495">
        <ele>248.16</ele>
        <time>2019-05-01T11:05:26Z</time>
      </trkpt>
      <trkpt lat="43.52038" lon="5.53378">
        <ele>246.23</ele>
        <time>2019-05-01T11:05:33Z</time>
      </trkpt>
      <trkpt lat="43.52049" lon="5.53342">
        <ele>244.31</ele>
        <time>2019-05-01T11:05:35Z</time>
      </trkpt>
      <trkpt lat="43.5207" lon="5.53292">
        <ele>239.51</ele>
        <time>2019-05-01T11:05:39Z</time>
      </trkpt>
      <trkpt lat="43.52072" lon="5.53289">
        <ele>239.02</ele>
        <time>2019-05-01T11:05:40Z</time>
      </trkpt>
      <trkpt lat="43.52078" lon="5.53286">
        <ele>238.06</ele>
        <time>2019-05-01T11:05:42Z</time>
      </trkpt>
      <trkpt lat="43.52081" lon="5.53286">
        <ele>238.54</ele>
        <time>2019-05-01T11:05:43Z</time>
      </trkpt>
      <trkpt lat="43.52092" lon="5.53283">
        <ele>238.54</ele>
        <time>2019-05-01T11:05:47Z</time>
      </trkpt>
      <trkpt lat="43.52093" lon="5.53282">
        <ele>238.54</ele>
        <time>2019-05-01T11:05:48Z</time>
      </trkpt>
      <trkpt lat="43.52094" lon="5.5328">
        <ele>238.54</ele>
        <time>2019-05-01T11:05:49Z</time>
      </trkpt>
      <trkpt lat="43.52095" lon="5.53279">
        <ele>238.54</ele>
        <time>2019-05-01T11:05:50Z</time>
      </trkpt>
      <trkpt lat="43.52096" lon="5.53278">
        <ele>238.54</ele>
        <time>2019-05-01T11:05:51Z</time>
      </trkpt>
      <trkpt lat="43.52097" lon="5.53278">
        <ele>238.54</ele>
        <time>2019-05-01T11:05:52Z</time>
      </trkpt>
      <trkpt lat="43.52097" lon="5.53277">
        <ele>238.54</ele>
        <time>2019-05-01T11:06:07Z</time>
      </trkpt>
      <trkpt lat="43.52095" lon="5.53276">
        <ele>238.54</ele>
        <time>2019-05-01T11:06:25Z</time>
      </trkpt>
      <trkpt lat="43.52095" lon="5.53277">
        <ele>238.54</ele>
        <time>2019-05-01T11:06:42Z</time>
      </trkpt>
      <trkpt lat="43.52093" lon="5.53276">
        <ele>238.54</ele>
        <time>2019-05-01T11:06:53Z</time>
      </trkpt>
      <trkpt lat="43.52093" lon="5.53276">
        <ele>238.54</ele>
        <time>2019-05-01T11:07:13Z</time>
      </trkpt>
      <trkpt lat="43.52092" lon="5.53273">
        <ele>238.54</ele>
        <time>2019-05-01T11:07:35Z</time>
      </trkpt>
      <trkpt lat="43.52095" lon="5.53274">
        <ele>238.54</ele>
        <time>2019-05-01T11:07:59Z</time>
      </trkpt>
      <trkpt lat="43.52094" lon="5.53282">
        <ele>238.54</ele>
        <time>2019-05-01T11:08:27Z</time>
      </trkpt>
      <trkpt lat="43.5209" lon="5.53281">
        <ele>238.54</ele>
        <time>2019-05-01T11:08:44Z</time>
      </trkpt>
      <trkpt lat="43.5209" lon="5.53279">
        <ele>239.99</ele>
        <time>2019-05-01T11:08:48Z</time>
      </trkpt>
      <trkpt lat="43.52089" lon="5.53283">
        <ele>238.54</ele>
        <time>2019-05-01T11:09:07Z</time>
      </trkpt>
      <trkpt lat="43.52088" lon="5.53283">
        <ele>238.54</ele>
        <time>2019-05-01T11:09:08Z</time>
      </trkpt>
      <trkpt lat="43.52079" lon="5.5329">
        <ele>238.54</ele>
        <time>2019-05-01T11:09:25Z</time>
      </trkpt>
      <trkpt lat="43.52077" lon="5.53287">
        <ele>238.54</ele>
        <time>2019-05-01T11:09:43Z</time>
      </trkpt>
      <trkpt lat="43.52077" lon="5.53287">
        <ele>238.54</ele>
        <time>2019-05-01T11:10:02Z</time>
      </trkpt>
      <trkpt lat="43.52079" lon="5.53287">
        <ele>238.54</ele>
        <time>2019-05-01T11:10:26Z</time>
      </trkpt>
      <trkpt lat="43.52078" lon="5.53289">
        <ele>238.54</ele>
        <time>2019-05-01T11:10:50Z</time>
      </trkpt>
      <trkpt lat="43.52079" lon="5.53288">
        <ele>238.54</ele>
        <time>2019-05-01T11:11:09Z</time>
      </trkpt>
      <trkpt lat="43.52074" lon="5.53293">
        <ele>238.54</ele>
        <time>2019-05-01T11:11:21Z</time>
      </trkpt>
      <trkpt lat="43.52073" lon="5.53294">
        <ele>238.06</ele>
        <time>2019-05-01T11:11:22Z</time>
      </trkpt>
      <trkpt lat="43.52073" lon="5.53293">
        <ele>238.54</ele>
        <time>2019-05-01T11:11:32Z</time>
      </trkpt>
      <trkpt lat="43.52075" lon="5.53292">
        <ele>238.54</ele>
        <time>2019-05-01T11:11:39Z</time>
      </trkpt>
      <trkpt lat="43.52081" lon="5.53289">
        <ele>238.54</ele>
        <time>2019-05-01T11:11:48Z</time>
      </trkpt>
      <trkpt lat="43.52082" lon="5.53289">
        <ele>238.54</ele>
        <time>2019-05-01T11:11:49Z</time>
      </trkpt>
      <trkpt lat="43.52084" lon="5.53289">
        <ele>238.54</ele>
        <time>2019-05-01T11:11:52Z</time>
      </trkpt>
      <trkpt lat="43.52088" lon="5.53289">
        <ele>239.99</ele>
        <time>2019-05-01T11:12:02Z</time>
      </trkpt>
      <trkpt lat="43.5209" lon="5.53292">
        <ele>239.99</ele>
        <time>2019-05-01T11:12:07Z</time>
      </trkpt>
      <trkpt lat="43.52091" lon="5.53292">
        <ele>239.99</ele>
        <time>2019-05-01T11:12:08Z</time>
      </trkpt>
      <trkpt lat="43.52097" lon="5.53298">
        <ele>240.95</ele>
        <time>2019-05-01T11:12:18Z</time>
      </trkpt>
      <trkpt lat="43.52098" lon="5.53298">
        <ele>243.83</ele>
        <time>2019-05-01T11:12:20Z</time>
      </trkpt>
      <trkpt lat="43.52098" lon="5.53299">
        <ele>243.83</ele>
        <time>2019-05-01T11:12:21Z</time>
      </trkpt>
      <trkpt lat="43.52098" lon="5.53302">
        <ele>241.91</ele>
        <time>2019-05-01T11:12:23Z</time>
      </trkpt>
      <trkpt lat="43.52099" lon="5.53312">
        <ele>241.91</ele>
        <time>2019-05-01T11:12:33Z</time>
      </trkpt>
      <trkpt lat="43.52098" lon="5.53315">
        <ele>241.91</ele>
        <time>2019-05-01T11:12:34Z</time>
      </trkpt>
      <trkpt lat="43.52103" lon="5.53325">
        <ele>243.35</ele>
        <time>2019-05-01T11:12:42Z</time>
      </trkpt>
      <trkpt lat="43.52113" lon="5.53332">
        <ele>244.31</ele>
        <time>2019-05-01T11:12:54Z</time>
      </trkpt>
      <trkpt lat="43.52117" lon="5.53336">
        <ele>245.27</ele>
        <time>2019-05-01T11:12:58Z</time>
      </trkpt>
      <trkpt lat="43.52118" lon="5.53337">
        <ele>245.27</ele>
        <time>2019-05-01T11:12:59Z</time>
      </trkpt>
      <trkpt lat="43.52119" lon="5.53339">
        <ele>244.79</ele>
        <time>2019-05-01T11:13:09Z</time>
      </trkpt>
      <trkpt lat="43.52121" lon="5.5334">
        <ele>245.75</ele>
        <time>2019-05-01T11:13:26Z</time>
      </trkpt>
      <trkpt lat="43.52124" lon="5.53345">
        <ele>246.23</ele>
        <time>2019-05-01T11:13:46Z</time>
      </trkpt>
      <trkpt lat="43.52125" lon="5.53346">
        <ele>246.23</ele>
        <time>2019-05-01T11:13:47Z</time>
      </trkpt>
      <trkpt lat="43.52126" lon="5.53347">
        <ele>246.23</ele>
        <time>2019-05-01T11:13:48Z</time>
      </trkpt>
      <trkpt lat="43.52127" lon="5.53348">
        <ele>246.23</ele>
        <time>2019-05-01T11:13:49Z</time>
      </trkpt>
      <trkpt lat="43.52133" lon="5.5335">
        <ele>246.23</ele>
        <time>2019-05-01T11:13:57Z</time>
      </trkpt>
      <trkpt lat="43.52139" lon="5.53349">
        <ele>246.72</ele>
        <time>2019-05-01T11:14:06Z</time>
      </trkpt>
      <trkpt lat="43.5214" lon="5.53349">
        <ele>246.72</ele>
        <time>2019-05-01T11:14:07Z</time>
      </trkpt>
      <trkpt lat="43.52141" lon="5.5335">
        <ele>246.72</ele>
        <time>2019-05-01T11:14:08Z</time>
      </trkpt>
      <trkpt lat="43.52143" lon="5.5335">
        <ele>246.72</ele>
        <time>2019-05-01T11:14:09Z</time>
      </trkpt>
      <trkpt lat="43.52146" lon="5.53351">
        <ele>246.72</ele>
        <time>2019-05-01T11:14:13Z</time>
      </trkpt>
      <trkpt lat="43.52149" lon="5.5335">
        <ele>247.2</ele>
        <time>2019-05-01T11:14:25Z</time>
      </trkpt>
      <trkpt lat="43.52146" lon="5.5335">
        <ele>247.2</ele>
        <time>2019-05-01T11:14:29Z</time>
      </trkpt>
      <trkpt lat="43.52142" lon="5.53348">
        <ele>247.2</ele>
        <time>2019-05-01T11:14:34Z</time>
      </trkpt>
      <trkpt lat="43.52137" lon="5.53351">
        <ele>247.2</ele>
        <time>2019-05-01T11:14:40Z</time>
      </trkpt>
      <trkpt lat="43.52136" lon="5.53353">
        <ele>247.2</ele>
        <time>2019-05-01T11:14:41Z</time>
      </trkpt>
      <trkpt lat="43.52135" lon="5.53354">
        <ele>247.2</ele>
        <time>2019-05-01T11:14:42Z</time>
      </trkpt>
      <trkpt lat="43.5214" lon="5.53366">
        <ele>247.2</ele>
        <time>2019-05-01T11:14:52Z</time>
      </trkpt>
      <trkpt lat="43.52148" lon="5.53381">
        <ele>247.2</ele>
        <time>2019-05-01T11:15:03Z</time>
      </trkpt>
      <trkpt lat="43.52154" lon="5.53389">
        <ele>247.2</ele>
        <time>2019-05-01T11:15:11Z</time>
      </trkpt>
      <trkpt lat="43.5216" lon="5.53402">
        <ele>248.16</ele>
        <time>2019-05-01T11:15:21Z</time>
      </trkpt>
      <trkpt lat="43.52161" lon="5.53403">
        <ele>248.16</ele>
        <time>2019-05-01T11:15:22Z</time>
      </trkpt>
      <trkpt lat="43.52162" lon="5.53405">
        <ele>248.16</ele>
        <time>2019-05-01T11:15:23Z</time>
      </trkpt>
      <trkpt lat="43.52165" lon="5.53417">
        <ele>248.64</ele>
        <time>2019-05-01T11:15:32Z</time>
      </trkpt>
      <trkpt lat="43.52166" lon="5.53424">
        <ele>249.6</ele>
        <time>2019-05-01T11:15:37Z</time>
      </trkpt>
      <trkpt lat="43.52165" lon="5.53434">
        <ele>250.08</ele>
        <time>2019-05-01T11:15:43Z</time>
      </trkpt>
      <trkpt lat="43.52164" lon="5.53441">
        <ele>250.08</ele>
        <time>2019-05-01T11:15:51Z</time>
      </trkpt>
      <trkpt lat="43.52165" lon="5.53437">
        <ele>250.08</ele>
        <time>2019-05-01T11:16:04Z</time>
      </trkpt>
      <trkpt lat="43.52165" lon="5.53441">
        <ele>250.08</ele>
        <time>2019-05-01T11:16:18Z</time>
      </trkpt>
      <trkpt lat="43.52165" lon="5.5344">
        <ele>250.08</ele>
        <time>2019-05-01T11:16:19Z</time>
      </trkpt>
      <trkpt lat="43.52165" lon="5.53436">
        <ele>250.08</ele>
        <time>2019-05-01T11:16:23Z</time>
      </trkpt>
      <trkpt lat="43.52168" lon="5.53427">
        <ele>250.08</ele>
        <time>2019-05-01T11:16:29Z</time>
      </trkpt>
      <trkpt lat="43.52169" lon="5.53418">
        <ele>250.08</ele>
        <time>2019-05-01T11:16:37Z</time>
      </trkpt>
      <trkpt lat="43.52167" lon="5.53417">
        <ele>249.12</ele>
        <time>2019-05-01T11:16:46Z</time>
      </trkpt>
      <trkpt lat="43.52165" lon="5.53409">
        <ele>249.12</ele>
        <time>2019-05-01T11:16:51Z</time>
      </trkpt>
      <trkpt lat="43.52162" lon="5.53401">
        <ele>249.12</ele>
        <time>2019-05-01T11:17:02Z</time>
      </trkpt>
      <trkpt lat="43.52149" lon="5.53382">
        <ele>247.2</ele>
        <time>2019-05-01T11:17:21Z</time>
      </trkpt>
      <trkpt lat="43.52136" lon="5.53356">
        <ele>246.72</ele>
        <time>2019-05-01T11:17:44Z</time>
      </trkpt>
      <trkpt lat="43.5212" lon="5.53337">
        <ele>245.27</ele>
        <time>2019-05-01T11:18:07Z</time>
      </trkpt>
      <trkpt lat="43.52105" lon="5.53317">
        <ele>242.87</ele>
        <time>2019-05-01T11:18:31Z</time>
      </trkpt>
      <trkpt lat="43.52094" lon="5.53297">
        <ele>239.51</ele>
        <time>2019-05-01T11:18:47Z</time>
      </trkpt>
      <trkpt lat="43.52091" lon="5.53295">
        <ele>239.51</ele>
        <time>2019-05-01T11:18:49Z</time>
      </trkpt>
      <trkpt lat="43.52079" lon="5.53289">
        <ele>238.54</ele>
        <time>2019-05-01T11:19:05Z</time>
      </trkpt>
      <trkpt lat="43.52076" lon="5.5329">
        <ele>238.06</ele>
        <time>2019-05-01T11:19:26Z</time>
      </trkpt>
      <trkpt lat="43.52074" lon="5.53288">
        <ele>238.06</ele>
        <time>2019-05-01T11:19:56Z</time>
      </trkpt>
      <trkpt lat="43.52076" lon="5.5329">
        <ele>237.58</ele>
        <time>2019-05-01T11:20:19Z</time>
      </trkpt>
      <trkpt lat="43.52075" lon="5.53295">
        <ele>237.58</ele>
        <time>2019-05-01T11:20:43Z</time>
      </trkpt>
      <trkpt lat="43.52078" lon="5.53291">
        <ele>237.1</ele>
        <time>2019-05-01T11:21:11Z</time>
      </trkpt>
      <trkpt lat="43.52088" lon="5.53278">
        <ele>238.54</ele>
        <time>2019-05-01T11:21:32Z</time>
      </trkpt>
      <trkpt lat="43.52094" lon="5.53277">
        <ele>239.02</ele>
        <time>2019-05-01T11:21:52Z</time>
      </trkpt>
      <trkpt lat="43.52095" lon="5.53275">
        <ele>239.02</ele>
        <time>2019-05-01T11:22:14Z</time>
      </trkpt>
      <trkpt lat="43.52095" lon="5.53281">
        <ele>239.02</ele>
        <time>2019-05-01T11:22:47Z</time>
      </trkpt>
      <trkpt lat="43.52098" lon="5.53283">
        <ele>239.51</ele>
        <time>2019-05-01T11:22:57Z</time>
      </trkpt>
      <trkpt lat="43.52093" lon="5.53286">
        <ele>239.51</ele>
        <time>2019-05-01T11:23:00Z</time>
      </trkpt>
      <trkpt lat="43.52065" lon="5.53301">
        <ele>239.51</ele>
        <time>2019-05-01T11:23:11Z</time>
      </trkpt>
      <trkpt lat="43.52059" lon="5.53311">
        <ele>240.47</ele>
        <time>2019-05-01T11:23:12Z</time>
      </trkpt>
      <trkpt lat="43.52054" lon="5.53322">
        <ele>240.47</ele>
        <time>2019-05-01T11:23:13Z</time>
      </trkpt>
      <trkpt lat="43.5205" lon="5.53335">
        <ele>241.43</ele>
        <time>2019-05-01T11:23:14Z</time>
      </trkpt>
      <trkpt lat="43.52046" lon="5.53348">
        <ele>242.39</ele>
        <time>2019-05-01T11:23:15Z</time>
      </trkpt>
      <trkpt lat="43.52026" lon="5.53433">
        <ele>247.2</ele>
        <time>2019-05-01T11:23:20Z</time>
      </trkpt>
      <trkpt lat="43.52013" lon="5.53492">
        <ele>250.08</ele>
        <time>2019-05-01T11:23:23Z</time>
      </trkpt>
      <trkpt lat="43.5201" lon="5.53515">
        <ele>251.04</ele>
        <time>2019-05-01T11:23:24Z</time>
      </trkpt>
      <trkpt lat="43.52009" lon="5.53526">
        <ele>251.52</ele>
        <time>2019-05-01T11:23:25Z</time>
      </trkpt>
      <trkpt lat="43.52009" lon="5.53608">
        <ele>253.93</ele>
        <time>2019-05-01T11:23:30Z</time>
      </trkpt>
      <trkpt lat="43.52007" lon="5.53634">
        <ele>253.93</ele>
        <time>2019-05-01T11:23:31Z</time>
      </trkpt>
      <trkpt lat="43.52005" lon="5.53645">
        <ele>254.41</ele>
        <time>2019-05-01T11:23:32Z</time>
      </trkpt>
      <trkpt lat="43.51983" lon="5.53784">
        <ele>252</ele>
        <time>2019-05-01T11:23:39Z</time>
      </trkpt>
      <trkpt lat="43.5197" lon="5.53958">
        <ele>252.48</ele>
        <time>2019-05-01T11:23:48Z</time>
      </trkpt>
      <trkpt lat="43.51965" lon="5.53979">
        <ele>252</ele>
        <time>2019-05-01T11:23:49Z</time>
      </trkpt>
      <trkpt lat="43.51951" lon="5.54029">
        <ele>249.12</ele>
        <time>2019-05-01T11:23:52Z</time>
      </trkpt>
      <trkpt lat="43.51943" lon="5.54055">
        <ele>247.2</ele>
        <time>2019-05-01T11:23:54Z</time>
      </trkpt>
      <trkpt lat="43.51928" lon="5.54134">
        <ele>246.23</ele>
        <time>2019-05-01T11:24:00Z</time>
      </trkpt>
      <trkpt lat="43.51929" lon="5.54148">
        <ele>246.23</ele>
        <time>2019-05-01T11:24:01Z</time>
      </trkpt>
      <trkpt lat="43.5193" lon="5.54164">
        <ele>246.23</ele>
        <time>2019-05-01T11:24:02Z</time>
      </trkpt>
      <trkpt lat="43.51953" lon="5.54294">
        <ele>243.35</ele>
        <time>2019-05-01T11:24:10Z</time>
      </trkpt>
      <trkpt lat="43.51994" lon="5.54406">
        <ele>244.79</ele>
        <time>2019-05-01T11:24:16Z</time>
      </trkpt>
      <trkpt lat="43.52032" lon="5.5449">
        <ele>240.95</ele>
        <time>2019-05-01T11:24:21Z</time>
      </trkpt>
      <trkpt lat="43.52073" lon="5.54588">
        <ele>239.02</ele>
        <time>2019-05-01T11:24:31Z</time>
      </trkpt>
      <trkpt lat="43.52075" lon="5.54598">
        <ele>240.47</ele>
        <time>2019-05-01T11:24:32Z</time>
      </trkpt>
      <trkpt lat="43.52076" lon="5.54609">
        <ele>240.47</ele>
        <time>2019-05-01T11:24:33Z</time>
      </trkpt>
      <trkpt lat="43.52077" lon="5.5462">
        <ele>240.47</ele>
        <time>2019-05-01T11:24:34Z</time>
      </trkpt>
      <trkpt lat="43.52078" lon="5.54633">
        <ele>241.43</ele>
        <time>2019-05-01T11:24:35Z</time>
      </trkpt>
      <trkpt lat="43.52078" lon="5.54646">
        <ele>241.91</ele>
        <time>2019-05-01T11:24:36Z</time>
      </trkpt>
      <trkpt lat="43.52078" lon="5.54676">
        <ele>242.87</ele>
        <time>2019-05-01T11:24:38Z</time>
      </trkpt>
      <trkpt lat="43.52079" lon="5.54697">
        <ele>244.31</ele>
        <time>2019-05-01T11:24:39Z</time>
      </trkpt>
      <trkpt lat="43.52089" lon="5.54755">
        <ele>248.16</ele>
        <time>2019-05-01T11:24:43Z</time>
      </trkpt>
      <trkpt lat="43.52101" lon="5.54801">
        <ele>250.08</ele>
        <time>2019-05-01T11:24:46Z</time>
      </trkpt>
      <trkpt lat="43.52112" lon="5.54825">
        <ele>251.04</ele>
        <time>2019-05-01T11:24:48Z</time>
      </trkpt>
      <trkpt lat="43.52125" lon="5.5485">
        <ele>252</ele>
        <time>2019-05-01T11:24:50Z</time>
      </trkpt>
      <trkpt lat="43.52136" lon="5.54875">
        <ele>254.41</ele>
        <time>2019-05-01T11:24:52Z</time>
      </trkpt>
      <trkpt lat="43.52154" lon="5.54944">
        <ele>256.33</ele>
        <time>2019-05-01T11:24:56Z</time>
      </trkpt>
      <trkpt lat="43.52169" lon="5.55">
        <ele>260.17</ele>
        <time>2019-05-01T11:24:59Z</time>
      </trkpt>
      <trkpt lat="43.52184" lon="5.55059">
        <ele>264.02</ele>
        <time>2019-05-01T11:25:02Z</time>
      </trkpt>
      <trkpt lat="43.52194" lon="5.55099">
        <ele>264.98</ele>
        <time>2019-05-01T11:25:04Z</time>
      </trkpt>
      <trkpt lat="43.52207" lon="5.55157">
        <ele>266.9</ele>
        <time>2019-05-01T11:25:07Z</time>
      </trkpt>
      <trkpt lat="43.52258" lon="5.55401">
        <ele>270.27</ele>
        <time>2019-05-01T11:25:20Z</time>
      </trkpt>
      <trkpt lat="43.52298" lon="5.55532">
        <ele>270.75</ele>
        <time>2019-05-01T11:25:29Z</time>
      </trkpt>
      <trkpt lat="43.52305" lon="5.55544">
        <ele>271.71</ele>
        <time>2019-05-01T11:25:30Z</time>
      </trkpt>
      <trkpt lat="43.52313" lon="5.55555">
        <ele>271.71</ele>
        <time>2019-05-01T11:25:31Z</time>
      </trkpt>
      <trkpt lat="43.52342" lon="5.55592">
        <ele>272.67</ele>
        <time>2019-05-01T11:25:34Z</time>
      </trkpt>
      <trkpt lat="43.52379" lon="5.55665">
        <ele>276.52</ele>
        <time>2019-05-01T11:25:39Z</time>
      </trkpt>
      <trkpt lat="43.52401" lon="5.55729">
        <ele>279.88</ele>
        <time>2019-05-01T11:25:43Z</time>
      </trkpt>
      <trkpt lat="43.52403" lon="5.55747">
        <ele>281.32</ele>
        <time>2019-05-01T11:25:44Z</time>
      </trkpt>
      <trkpt lat="43.52405" lon="5.55765">
        <ele>282.77</ele>
        <time>2019-05-01T11:25:45Z</time>
      </trkpt>
      <trkpt lat="43.52405" lon="5.55784">
        <ele>282.77</ele>
        <time>2019-05-01T11:25:46Z</time>
      </trkpt>
      <trkpt lat="43.52396" lon="5.5582">
        <ele>283.25</ele>
        <time>2019-05-01T11:25:48Z</time>
      </trkpt>
      <trkpt lat="43.52385" lon="5.55852">
        <ele>283.25</ele>
        <time>2019-05-01T11:25:50Z</time>
      </trkpt>
      <trkpt lat="43.52382" lon="5.55869">
        <ele>285.17</ele>
        <time>2019-05-01T11:25:51Z</time>
      </trkpt>
      <trkpt lat="43.52378" lon="5.55941">
        <ele>288.53</ele>
        <time>2019-05-01T11:25:55Z</time>
      </trkpt>
      <trkpt lat="43.52374" lon="5.56">
        <ele>289.97</ele>
        <time>2019-05-01T11:25:58Z</time>
      </trkpt>
      <trkpt lat="43.52372" lon="5.56086">
        <ele>291.9</ele>
        <time>2019-05-01T11:26:03Z</time>
      </trkpt>
      <trkpt lat="43.52373" lon="5.56103">
        <ele>292.38</ele>
        <time>2019-05-01T11:26:04Z</time>
      </trkpt>
      <trkpt lat="43.52389" lon="5.56191">
        <ele>296.7</ele>
        <time>2019-05-01T11:26:09Z</time>
      </trkpt>
      <trkpt lat="43.52394" lon="5.56229">
        <ele>297.67</ele>
        <time>2019-05-01T11:26:11Z</time>
      </trkpt>
      <trkpt lat="43.52399" lon="5.56317">
        <ele>295.26</ele>
        <time>2019-05-01T11:26:16Z</time>
      </trkpt>
      <trkpt lat="43.52397" lon="5.56344">
        <ele>297.18</ele>
        <time>2019-05-01T11:26:18Z</time>
      </trkpt>
      <trkpt lat="43.52395" lon="5.56356">
        <ele>297.18</ele>
        <time>2019-05-01T11:26:19Z</time>
      </trkpt>
      <trkpt lat="43.52392" lon="5.56368">
        <ele>297.18</ele>
        <time>2019-05-01T11:26:20Z</time>
      </trkpt>
      <trkpt lat="43.5238" lon="5.56404">
        <ele>297.67</ele>
        <time>2019-05-01T11:26:23Z</time>
      </trkpt>
      <trkpt lat="43.52378" lon="5.56419">
        <ele>297.18</ele>
        <time>2019-05-01T11:26:24Z</time>
      </trkpt>
      <trkpt lat="43.52377" lon="5.56434">
        <ele>297.67</ele>
        <time>2019-05-01T11:26:25Z</time>
      </trkpt>
      <trkpt lat="43.52377" lon="5.5652">
        <ele>298.15</ele>
        <time>2019-05-01T11:26:32Z</time>
      </trkpt>
      <trkpt lat="43.52376" lon="5.56531">
        <ele>299.11</ele>
        <time>2019-05-01T11:26:33Z</time>
      </trkpt>
      <trkpt lat="43.52372" lon="5.56541">
        <ele>298.63</ele>
        <time>2019-05-01T11:26:34Z</time>
      </trkpt>
      <trkpt lat="43.52368" lon="5.5655">
        <ele>299.59</ele>
        <time>2019-05-01T11:26:35Z</time>
      </trkpt>
      <trkpt lat="43.52364" lon="5.5656">
        <ele>300.07</ele>
        <time>2019-05-01T11:26:36Z</time>
      </trkpt>
      <trkpt lat="43.52349" lon="5.56598">
        <ele>302.47</ele>
        <time>2019-05-01T11:26:40Z</time>
      </trkpt>
      <trkpt lat="43.52331" lon="5.56682">
        <ele>301.03</ele>
        <time>2019-05-01T11:26:46Z</time>
      </trkpt>
      <trkpt lat="43.52326" lon="5.56697">
        <ele>301.03</ele>
        <time>2019-05-01T11:26:47Z</time>
      </trkpt>
      <trkpt lat="43.52312" lon="5.56734">
        <ele>301.03</ele>
        <time>2019-05-01T11:26:50Z</time>
      </trkpt>
      <trkpt lat="43.52302" lon="5.56777">
        <ele>304.39</ele>
        <time>2019-05-01T11:26:55Z</time>
      </trkpt>
      <trkpt lat="43.523" lon="5.56785">
        <ele>304.39</ele>
        <time>2019-05-01T11:26:56Z</time>
      </trkpt>
      <trkpt lat="43.52297" lon="5.56807">
        <ele>305.36</ele>
        <time>2019-05-01T11:26:59Z</time>
      </trkpt>
      <trkpt lat="43.52297" lon="5.56814">
        <ele>305.36</ele>
        <time>2019-05-01T11:27:00Z</time>
      </trkpt>
      <trkpt lat="43.52298" lon="5.56821">
        <ele>306.8</ele>
        <time>2019-05-01T11:27:01Z</time>
      </trkpt>
      <trkpt lat="43.52299" lon="5.56827">
        <ele>307.28</ele>
        <time>2019-05-01T11:27:02Z</time>
      </trkpt>
      <trkpt lat="43.523" lon="5.56834">
        <ele>307.28</ele>
        <time>2019-05-01T11:27:03Z</time>
      </trkpt>
      <trkpt lat="43.52301" lon="5.56837">
        <ele>307.28</ele>
        <time>2019-05-01T11:27:04Z</time>
      </trkpt>
      <trkpt lat="43.52303" lon="5.56841">
        <ele>307.28</ele>
        <time>2019-05-01T11:27:05Z</time>
      </trkpt>
      <trkpt lat="43.52305" lon="5.56845">
        <ele>307.76</ele>
        <time>2019-05-01T11:27:06Z</time>
      </trkpt>
      <trkpt lat="43.52307" lon="5.56848">
        <ele>307.76</ele>
        <time>2019-05-01T11:27:07Z</time>
      </trkpt>
      <trkpt lat="43.52309" lon="5.56851">
        <ele>308.24</ele>
        <time>2019-05-01T11:27:08Z</time>
      </trkpt>
      <trkpt lat="43.52312" lon="5.56854">
        <ele>308.24</ele>
        <time>2019-05-01T11:27:09Z</time>
      </trkpt>
      <trkpt lat="43.52314" lon="5.56855">
        <ele>308.72</ele>
        <time>2019-05-01T11:27:10Z</time>
      </trkpt>
      <trkpt lat="43.52327" lon="5.56866">
        <ele>311.12</ele>
        <time>2019-05-01T11:27:14Z</time>
      </trkpt>
      <trkpt lat="43.52339" lon="5.56876">
        <ele>312.57</ele>
        <time>2019-05-01T11:27:16Z</time>
      </trkpt>
      <trkpt lat="43.52342" lon="5.56882">
        <ele>313.53</ele>
        <time>2019-05-01T11:27:17Z</time>
      </trkpt>
      <trkpt lat="43.52343" lon="5.56887">
        <ele>314.01</ele>
        <time>2019-05-01T11:27:18Z</time>
      </trkpt>
      <trkpt lat="43.5235" lon="5.56925">
        <ele>316.89</ele>
        <time>2019-05-01T11:27:23Z</time>
      </trkpt>
      <trkpt lat="43.52352" lon="5.56933">
        <ele>317.85</ele>
        <time>2019-05-01T11:27:24Z</time>
      </trkpt>
      <trkpt lat="43.52355" lon="5.56946">
        <ele>317.85</ele>
        <time>2019-05-01T11:27:25Z</time>
      </trkpt>
      <trkpt lat="43.52366" lon="5.57013">
        <ele>318.33</ele>
        <time>2019-05-01T11:27:29Z</time>
      </trkpt>
      <trkpt lat="43.52366" lon="5.57023">
        <ele>318.81</ele>
        <time>2019-05-01T11:27:30Z</time>
      </trkpt>
      <trkpt lat="43.52366" lon="5.57031">
        <ele>319.3</ele>
        <time>2019-05-01T11:27:31Z</time>
      </trkpt>
      <trkpt lat="43.52364" lon="5.57037">
        <ele>320.26</ele>
        <time>2019-05-01T11:27:32Z</time>
      </trkpt>
      <trkpt lat="43.52363" lon="5.57043">
        <ele>320.74</ele>
        <time>2019-05-01T11:27:33Z</time>
      </trkpt>
      <trkpt lat="43.52362" lon="5.57049">
        <ele>321.7</ele>
        <time>2019-05-01T11:27:34Z</time>
      </trkpt>
      <trkpt lat="43.5236" lon="5.57052">
        <ele>322.66</ele>
        <time>2019-05-01T11:27:35Z</time>
      </trkpt>
      <trkpt lat="43.52357" lon="5.57055">
        <ele>323.14</ele>
        <time>2019-05-01T11:27:36Z</time>
      </trkpt>
      <trkpt lat="43.52355" lon="5.57056">
        <ele>323.14</ele>
        <time>2019-05-01T11:27:37Z</time>
      </trkpt>
      <trkpt lat="43.52353" lon="5.57058">
        <ele>324.58</ele>
        <time>2019-05-01T11:27:38Z</time>
      </trkpt>
      <trkpt lat="43.52351" lon="5.57061">
        <ele>325.54</ele>
        <time>2019-05-01T11:27:39Z</time>
      </trkpt>
      <trkpt lat="43.52349" lon="5.57067">
        <ele>327.47</ele>
        <time>2019-05-01T11:27:40Z</time>
      </trkpt>
      <trkpt lat="43.52346" lon="5.57074">
        <ele>328.43</ele>
        <time>2019-05-01T11:27:41Z</time>
      </trkpt>
      <trkpt lat="43.52338" lon="5.57084">
        <ele>328.91</ele>
        <time>2019-05-01T11:27:43Z</time>
      </trkpt>
      <trkpt lat="43.52326" lon="5.57093">
        <ele>329.87</ele>
        <time>2019-05-01T11:27:44Z</time>
      </trkpt>
      <trkpt lat="43.52282" lon="5.57124">
        <ele>333.71</ele>
        <time>2019-05-01T11:27:48Z</time>
      </trkpt>
      <trkpt lat="43.52251" lon="5.57149">
        <ele>337.56</ele>
        <time>2019-05-01T11:27:51Z</time>
      </trkpt>
      <trkpt lat="43.52228" lon="5.57166">
        <ele>339</ele>
        <time>2019-05-01T11:27:53Z</time>
      </trkpt>
      <trkpt lat="43.52187" lon="5.57184">
        <ele>341.89</ele>
        <time>2019-05-01T11:27:56Z</time>
      </trkpt>
      <trkpt lat="43.52164" lon="5.57199">
        <ele>345.73</ele>
        <time>2019-05-01T11:27:58Z</time>
      </trkpt>
      <trkpt lat="43.52155" lon="5.57208">
        <ele>347.65</ele>
        <time>2019-05-01T11:27:59Z</time>
      </trkpt>
      <trkpt lat="43.52133" lon="5.57232">
        <ele>348.62</ele>
        <time>2019-05-01T11:28:01Z</time>
      </trkpt>
      <trkpt lat="43.52094" lon="5.57275">
        <ele>351.02</ele>
        <time>2019-05-01T11:28:05Z</time>
      </trkpt>
      <trkpt lat="43.52086" lon="5.5728">
        <ele>350.54</ele>
        <time>2019-05-01T11:28:06Z</time>
      </trkpt>
      <trkpt lat="43.52078" lon="5.57283">
        <ele>351.02</ele>
        <time>2019-05-01T11:28:07Z</time>
      </trkpt>
      <trkpt lat="43.52071" lon="5.57284">
        <ele>351.5</ele>
        <time>2019-05-01T11:28:08Z</time>
      </trkpt>
      <trkpt lat="43.52066" lon="5.57287">
        <ele>351.98</ele>
        <time>2019-05-01T11:28:09Z</time>
      </trkpt>
      <trkpt lat="43.52062" lon="5.57292">
        <ele>352.94</ele>
        <time>2019-05-01T11:28:10Z</time>
      </trkpt>
      <trkpt lat="43.5206" lon="5.57299">
        <ele>353.42</ele>
        <time>2019-05-01T11:28:11Z</time>
      </trkpt>
      <trkpt lat="43.52059" lon="5.57305">
        <ele>354.38</ele>
        <time>2019-05-01T11:28:12Z</time>
      </trkpt>
      <trkpt lat="43.52059" lon="5.57313">
        <ele>354.86</ele>
        <time>2019-05-01T11:28:13Z</time>
      </trkpt>
      <trkpt lat="43.52057" lon="5.57323">
        <ele>355.83</ele>
        <time>2019-05-01T11:28:14Z</time>
      </trkpt>
      <trkpt lat="43.52055" lon="5.57333">
        <ele>357.27</ele>
        <time>2019-05-01T11:28:15Z</time>
      </trkpt>
      <trkpt lat="43.52051" lon="5.57341">
        <ele>357.75</ele>
        <time>2019-05-01T11:28:16Z</time>
      </trkpt>
      <trkpt lat="43.52048" lon="5.57348">
        <ele>359.19</ele>
        <time>2019-05-01T11:28:17Z</time>
      </trkpt>
      <trkpt lat="43.52044" lon="5.57354">
        <ele>359.19</ele>
        <time>2019-05-01T11:28:18Z</time>
      </trkpt>
      <trkpt lat="43.5203" lon="5.57376">
        <ele>360.63</ele>
        <time>2019-05-01T11:28:21Z</time>
      </trkpt>
      <trkpt lat="43.52026" lon="5.57384">
        <ele>361.11</ele>
        <time>2019-05-01T11:28:22Z</time>
      </trkpt>
      <trkpt lat="43.52019" lon="5.57402">
        <ele>364.48</ele>
        <time>2019-05-01T11:28:25Z</time>
      </trkpt>
      <trkpt lat="43.52015" lon="5.57404">
        <ele>365.92</ele>
        <time>2019-05-01T11:28:27Z</time>
      </trkpt>
      <trkpt lat="43.52013" lon="5.57402">
        <ele>366.88</ele>
        <time>2019-05-01T11:28:28Z</time>
      </trkpt>
      <trkpt lat="43.52012" lon="5.57398">
        <ele>367.36</ele>
        <time>2019-05-01T11:28:29Z</time>
      </trkpt>
      <trkpt lat="43.52011" lon="5.57394">
        <ele>368.32</ele>
        <time>2019-05-01T11:28:30Z</time>
      </trkpt>
      <trkpt lat="43.5201" lon="5.5739">
        <ele>368.32</ele>
        <time>2019-05-01T11:28:31Z</time>
      </trkpt>
      <trkpt lat="43.52009" lon="5.57384">
        <ele>368.32</ele>
        <time>2019-05-01T11:28:32Z</time>
      </trkpt>
      <trkpt lat="43.52021" lon="5.57361">
        <ele>369.76</ele>
        <time>2019-05-01T11:28:37Z</time>
      </trkpt>
      <trkpt lat="43.5204" lon="5.57366">
        <ele>373.13</ele>
        <time>2019-05-01T11:28:42Z</time>
      </trkpt>
      <trkpt lat="43.5204" lon="5.57369">
        <ele>373.13</ele>
        <time>2019-05-01T11:28:43Z</time>
      </trkpt>
      <trkpt lat="43.52039" lon="5.57375">
        <ele>374.09</ele>
        <time>2019-05-01T11:28:44Z</time>
      </trkpt>
      <trkpt lat="43.52036" lon="5.57383">
        <ele>376.01</ele>
        <time>2019-05-01T11:28:45Z</time>
      </trkpt>
      <trkpt lat="43.52033" lon="5.57386">
        <ele>376.49</ele>
        <time>2019-05-01T11:28:46Z</time>
      </trkpt>
      <trkpt lat="43.52002" lon="5.57422">
        <ele>380.34</ele>
        <time>2019-05-01T11:28:50Z</time>
      </trkpt>
      <trkpt lat="43.51995" lon="5.57428">
        <ele>380.34</ele>
        <time>2019-05-01T11:28:51Z</time>
      </trkpt>
      <trkpt lat="43.51976" lon="5.57446">
        <ele>384.18</ele>
        <time>2019-05-01T11:28:54Z</time>
      </trkpt>
      <trkpt lat="43.51948" lon="5.57483">
        <ele>387.07</ele>
        <time>2019-05-01T11:28:58Z</time>
      </trkpt>
      <trkpt lat="43.51943" lon="5.57495">
        <ele>387.07</ele>
        <time>2019-05-01T11:28:59Z</time>
      </trkpt>
      <trkpt lat="43.51936" lon="5.57524">
        <ele>387.07</ele>
        <time>2019-05-01T11:29:01Z</time>
      </trkpt>
      <trkpt lat="43.51934" lon="5.5754">
        <ele>387.55</ele>
        <time>2019-05-01T11:29:02Z</time>
      </trkpt>
      <trkpt lat="43.51935" lon="5.57555">
        <ele>388.03</ele>
        <time>2019-05-01T11:29:03Z</time>
      </trkpt>
      <trkpt lat="43.5194" lon="5.57569">
        <ele>388.03</ele>
        <time>2019-05-01T11:29:04Z</time>
      </trkpt>
      <trkpt lat="43.51948" lon="5.57581">
        <ele>388.03</ele>
        <time>2019-05-01T11:29:05Z</time>
      </trkpt>
      <trkpt lat="43.51953" lon="5.57597">
        <ele>389.47</ele>
        <time>2019-05-01T11:29:06Z</time>
      </trkpt>
      <trkpt lat="43.51969" lon="5.57655">
        <ele>393.32</ele>
        <time>2019-05-01T11:29:11Z</time>
      </trkpt>
      <trkpt lat="43.51981" lon="5.57693">
        <ele>395.24</ele>
        <time>2019-05-01T11:29:14Z</time>
      </trkpt>
      <trkpt lat="43.52008" lon="5.57743">
        <ele>398.12</ele>
        <time>2019-05-01T11:29:18Z</time>
      </trkpt>
      <trkpt lat="43.52011" lon="5.5776">
        <ele>398.12</ele>
        <time>2019-05-01T11:29:19Z</time>
      </trkpt>
      <trkpt lat="43.52013" lon="5.57774">
        <ele>398.12</ele>
        <time>2019-05-01T11:29:20Z</time>
      </trkpt>
      <trkpt lat="43.52013" lon="5.57789">
        <ele>399.08</ele>
        <time>2019-05-01T11:29:21Z</time>
      </trkpt>
      <trkpt lat="43.52014" lon="5.57804">
        <ele>400.53</ele>
        <time>2019-05-01T11:29:22Z</time>
      </trkpt>
      <trkpt lat="43.52013" lon="5.57819">
        <ele>402.45</ele>
        <time>2019-05-01T11:29:23Z</time>
      </trkpt>
      <trkpt lat="43.52006" lon="5.5785">
        <ele>403.41</ele>
        <time>2019-05-01T11:29:25Z</time>
      </trkpt>
      <trkpt lat="43.52" lon="5.57881">
        <ele>405.33</ele>
        <time>2019-05-01T11:29:27Z</time>
      </trkpt>
      <trkpt lat="43.51998" lon="5.57897">
        <ele>405.33</ele>
        <time>2019-05-01T11:29:28Z</time>
      </trkpt>
      <trkpt lat="43.51998" lon="5.57914">
        <ele>406.29</ele>
        <time>2019-05-01T11:29:29Z</time>
      </trkpt>
      <trkpt lat="43.51998" lon="5.5793">
        <ele>408.22</ele>
        <time>2019-05-01T11:29:30Z</time>
      </trkpt>
      <trkpt lat="43.51999" lon="5.57949">
        <ele>408.22</ele>
        <time>2019-05-01T11:29:31Z</time>
      </trkpt>
      <trkpt lat="43.52004" lon="5.58029">
        <ele>411.58</ele>
        <time>2019-05-01T11:29:35Z</time>
      </trkpt>
      <trkpt lat="43.52006" lon="5.58069">
        <ele>412.54</ele>
        <time>2019-05-01T11:29:37Z</time>
      </trkpt>
      <trkpt lat="43.52011" lon="5.58208">
        <ele>414.95</ele>
        <time>2019-05-01T11:29:45Z</time>
      </trkpt>
      <trkpt lat="43.52009" lon="5.58222">
        <ele>415.43</ele>
        <time>2019-05-01T11:29:46Z</time>
      </trkpt>
      <trkpt lat="43.52005" lon="5.58237">
        <ele>415.91</ele>
        <time>2019-05-01T11:29:47Z</time>
      </trkpt>
      <trkpt lat="43.51999" lon="5.58249">
        <ele>417.83</ele>
        <time>2019-05-01T11:29:48Z</time>
      </trkpt>
      <trkpt lat="43.51991" lon="5.5826">
        <ele>419.27</ele>
        <time>2019-05-01T11:29:49Z</time>
      </trkpt>
      <trkpt lat="43.51974" lon="5.58284">
        <ele>420.71</ele>
        <time>2019-05-01T11:29:51Z</time>
      </trkpt>
      <trkpt lat="43.5196" lon="5.58309">
        <ele>421.68</ele>
        <time>2019-05-01T11:29:53Z</time>
      </trkpt>
      <trkpt lat="43.51955" lon="5.58322">
        <ele>422.16</ele>
        <time>2019-05-01T11:29:54Z</time>
      </trkpt>
      <trkpt lat="43.51951" lon="5.58338">
        <ele>424.08</ele>
        <time>2019-05-01T11:29:55Z</time>
      </trkpt>
      <trkpt lat="43.51949" lon="5.58353">
        <ele>425.04</ele>
        <time>2019-05-01T11:29:56Z</time>
      </trkpt>
      <trkpt lat="43.5195" lon="5.5837">
        <ele>426.96</ele>
        <time>2019-05-01T11:29:57Z</time>
      </trkpt>
      <trkpt lat="43.51952" lon="5.58387">
        <ele>428.4</ele>
        <time>2019-05-01T11:29:58Z</time>
      </trkpt>
      <trkpt lat="43.51956" lon="5.58441">
        <ele>432.25</ele>
        <time>2019-05-01T11:30:01Z</time>
      </trkpt>
      <trkpt lat="43.51964" lon="5.58498">
        <ele>433.21</ele>
        <time>2019-05-01T11:30:04Z</time>
      </trkpt>
      <trkpt lat="43.51991" lon="5.58601">
        <ele>436.1</ele>
        <time>2019-05-01T11:30:09Z</time>
      </trkpt>
      <trkpt lat="43.5202" lon="5.58702">
        <ele>434.17</ele>
        <time>2019-05-01T11:30:14Z</time>
      </trkpt>
      <trkpt lat="43.52098" lon="5.58917">
        <ele>432.73</ele>
        <time>2019-05-01T11:30:26Z</time>
      </trkpt>
      <trkpt lat="43.52115" lon="5.58971">
        <ele>434.17</ele>
        <time>2019-05-01T11:30:29Z</time>
      </trkpt>
      <trkpt lat="43.52117" lon="5.58989">
        <ele>435.13</ele>
        <time>2019-05-01T11:30:30Z</time>
      </trkpt>
      <trkpt lat="43.52119" lon="5.59009">
        <ele>436.58</ele>
        <time>2019-05-01T11:30:31Z</time>
      </trkpt>
      <trkpt lat="43.52118" lon="5.59028">
        <ele>436.58</ele>
        <time>2019-05-01T11:30:32Z</time>
      </trkpt>
      <trkpt lat="43.52116" lon="5.5905">
        <ele>436.58</ele>
        <time>2019-05-01T11:30:33Z</time>
      </trkpt>
      <trkpt lat="43.52112" lon="5.59069">
        <ele>436.58</ele>
        <time>2019-05-01T11:30:34Z</time>
      </trkpt>
      <trkpt lat="43.52105" lon="5.59087">
        <ele>437.54</ele>
        <time>2019-05-01T11:30:35Z</time>
      </trkpt>
      <trkpt lat="43.52096" lon="5.59104">
        <ele>437.54</ele>
        <time>2019-05-01T11:30:36Z</time>
      </trkpt>
      <trkpt lat="43.52067" lon="5.59159">
        <ele>438.02</ele>
        <time>2019-05-01T11:30:39Z</time>
      </trkpt>
      <trkpt lat="43.52011" lon="5.59249">
        <ele>439.46</ele>
        <time>2019-05-01T11:30:45Z</time>
      </trkpt>
      <trkpt lat="43.52004" lon="5.59267">
        <ele>439.94</ele>
        <time>2019-05-01T11:30:46Z</time>
      </trkpt>
      <trkpt lat="43.51998" lon="5.59282">
        <ele>439.94</ele>
        <time>2019-05-01T11:30:47Z</time>
      </trkpt>
      <trkpt lat="43.51986" lon="5.59318">
        <ele>441.86</ele>
        <time>2019-05-01T11:30:49Z</time>
      </trkpt>
      <trkpt lat="43.5197" lon="5.59374">
        <ele>445.23</ele>
        <time>2019-05-01T11:30:52Z</time>
      </trkpt>
      <trkpt lat="43.51953" lon="5.59445">
        <ele>448.11</ele>
        <time>2019-05-01T11:30:56Z</time>
      </trkpt>
      <trkpt lat="43.51945" lon="5.59494">
        <ele>446.67</ele>
        <time>2019-05-01T11:31:02Z</time>
      </trkpt>
      <trkpt lat="43.51942" lon="5.59516">
        <ele>450.03</ele>
        <time>2019-05-01T11:31:09Z</time>
      </trkpt>
      <trkpt lat="43.51941" lon="5.59524">
        <ele>450.03</ele>
        <time>2019-05-01T11:31:10Z</time>
      </trkpt>
      <trkpt lat="43.51932" lon="5.59571">
        <ele>453.88</ele>
        <time>2019-05-01T11:31:14Z</time>
      </trkpt>
      <trkpt lat="43.5193" lon="5.59585">
        <ele>453.88</ele>
        <time>2019-05-01T11:31:15Z</time>
      </trkpt>
      <trkpt lat="43.51921" lon="5.59626">
        <ele>457.24</ele>
        <time>2019-05-01T11:31:18Z</time>
      </trkpt>
      <trkpt lat="43.51916" lon="5.59653">
        <ele>458.21</ele>
        <time>2019-05-01T11:31:20Z</time>
      </trkpt>
      <trkpt lat="43.51879" lon="5.59775">
        <ele>455.32</ele>
        <time>2019-05-01T11:31:28Z</time>
      </trkpt>
      <trkpt lat="43.51853" lon="5.59866">
        <ele>451.96</ele>
        <time>2019-05-01T11:31:33Z</time>
      </trkpt>
      <trkpt lat="43.51849" lon="5.59886">
        <ele>451.96</ele>
        <time>2019-05-01T11:31:34Z</time>
      </trkpt>
      <trkpt lat="43.5182" lon="5.60062">
        <ele>455.32</ele>
        <time>2019-05-01T11:31:43Z</time>
      </trkpt>
      <trkpt lat="43.51817" lon="5.6008">
        <ele>455.32</ele>
        <time>2019-05-01T11:31:44Z</time>
      </trkpt>
      <trkpt lat="43.51804" lon="5.60175">
        <ele>458.69</ele>
        <time>2019-05-01T11:31:49Z</time>
      </trkpt>
      <trkpt lat="43.51803" lon="5.60195">
        <ele>458.69</ele>
        <time>2019-05-01T11:31:50Z</time>
      </trkpt>
      <trkpt lat="43.51804" lon="5.60216">
        <ele>458.69</ele>
        <time>2019-05-01T11:31:51Z</time>
      </trkpt>
      <trkpt lat="43.51807" lon="5.60236">
        <ele>460.61</ele>
        <time>2019-05-01T11:31:52Z</time>
      </trkpt>
      <trkpt lat="43.5181" lon="5.60256">
        <ele>460.61</ele>
        <time>2019-05-01T11:31:53Z</time>
      </trkpt>
      <trkpt lat="43.5184" lon="5.60407">
        <ele>461.09</ele>
        <time>2019-05-01T11:32:00Z</time>
      </trkpt>
      <trkpt lat="43.51865" lon="5.60512">
        <ele>464.45</ele>
        <time>2019-05-01T11:32:05Z</time>
      </trkpt>
      <trkpt lat="43.51891" lon="5.60649">
        <ele>468.3</ele>
        <time>2019-05-01T11:32:11Z</time>
      </trkpt>
      <trkpt lat="43.51908" lon="5.60743">
        <ele>470.7</ele>
        <time>2019-05-01T11:32:15Z</time>
      </trkpt>
      <trkpt lat="43.51943" lon="5.60892">
        <ele>470.22</ele>
        <time>2019-05-01T11:32:23Z</time>
      </trkpt>
      <trkpt lat="43.51946" lon="5.60905">
        <ele>471.18</ele>
        <time>2019-05-01T11:32:24Z</time>
      </trkpt>
      <trkpt lat="43.51954" lon="5.60952">
        <ele>474.07</ele>
        <time>2019-05-01T11:32:27Z</time>
      </trkpt>
      <trkpt lat="43.51961" lon="5.60989">
        <ele>477.43</ele>
        <time>2019-05-01T11:32:29Z</time>
      </trkpt>
      <trkpt lat="43.51968" lon="5.61029">
        <ele>481.28</ele>
        <time>2019-05-01T11:32:31Z</time>
      </trkpt>
      <trkpt lat="43.5199" lon="5.61156">
        <ele>485.12</ele>
        <time>2019-05-01T11:32:37Z</time>
      </trkpt>
      <trkpt lat="43.51998" lon="5.61198">
        <ele>487.05</ele>
        <time>2019-05-01T11:32:39Z</time>
      </trkpt>
      <trkpt lat="43.52025" lon="5.61348">
        <ele>490.41</ele>
        <time>2019-05-01T11:32:46Z</time>
      </trkpt>
      <trkpt lat="43.52033" lon="5.61392">
        <ele>491.37</ele>
        <time>2019-05-01T11:32:48Z</time>
      </trkpt>
      <trkpt lat="43.52045" lon="5.6146">
        <ele>494.26</ele>
        <time>2019-05-01T11:32:51Z</time>
      </trkpt>
      <trkpt lat="43.52049" lon="5.61481">
        <ele>494.26</ele>
        <time>2019-05-01T11:32:52Z</time>
      </trkpt>
      <trkpt lat="43.52066" lon="5.61577">
        <ele>496.66</ele>
        <time>2019-05-01T11:32:57Z</time>
      </trkpt>
      <trkpt lat="43.52071" lon="5.61633">
        <ele>500.98</ele>
        <time>2019-05-01T11:33:00Z</time>
      </trkpt>
      <trkpt lat="43.52072" lon="5.61687">
        <ele>504.83</ele>
        <time>2019-05-01T11:33:03Z</time>
      </trkpt>
      <trkpt lat="43.52074" lon="5.61727">
        <ele>505.79</ele>
        <time>2019-05-01T11:33:05Z</time>
      </trkpt>
      <trkpt lat="43.52075" lon="5.61768">
        <ele>501.95</ele>
        <time>2019-05-01T11:33:07Z</time>
      </trkpt>
      <trkpt lat="43.52077" lon="5.61834">
        <ele>498.1</ele>
        <time>2019-05-01T11:33:10Z</time>
      </trkpt>
      <trkpt lat="43.52079" lon="5.61877">
        <ele>493.77</ele>
        <time>2019-05-01T11:33:12Z</time>
      </trkpt>
      <trkpt lat="43.5208" lon="5.61916">
        <ele>490.89</ele>
        <time>2019-05-01T11:33:14Z</time>
      </trkpt>
      <trkpt lat="43.52085" lon="5.6203">
        <ele>486.56</ele>
        <time>2019-05-01T11:33:20Z</time>
      </trkpt>
      <trkpt lat="43.52086" lon="5.62092">
        <ele>483.2</ele>
        <time>2019-05-01T11:33:23Z</time>
      </trkpt>
      <trkpt lat="43.52088" lon="5.62155">
        <ele>480.8</ele>
        <time>2019-05-01T11:33:26Z</time>
      </trkpt>
      <trkpt lat="43.52093" lon="5.62334">
        <ele>477.43</ele>
        <time>2019-05-01T11:33:35Z</time>
      </trkpt>
      <trkpt lat="43.52096" lon="5.62386">
        <ele>475.03</ele>
        <time>2019-05-01T11:33:38Z</time>
      </trkpt>
      <trkpt lat="43.521" lon="5.62402">
        <ele>474.07</ele>
        <time>2019-05-01T11:33:39Z</time>
      </trkpt>
      <trkpt lat="43.52131" lon="5.62503">
        <ele>472.14</ele>
        <time>2019-05-01T11:33:45Z</time>
      </trkpt>
      <trkpt lat="43.52172" lon="5.62616">
        <ele>467.82</ele>
        <time>2019-05-01T11:33:52Z</time>
      </trkpt>
      <trkpt lat="43.52187" lon="5.6266">
        <ele>465.9</ele>
        <time>2019-05-01T11:33:55Z</time>
      </trkpt>
      <trkpt lat="43.52222" lon="5.62757">
        <ele>462.53</ele>
        <time>2019-05-01T11:34:01Z</time>
      </trkpt>
      <trkpt lat="43.52239" lon="5.62807">
        <ele>459.17</ele>
        <time>2019-05-01T11:34:04Z</time>
      </trkpt>
      <trkpt lat="43.52248" lon="5.6283">
        <ele>454.84</ele>
        <time>2019-05-01T11:34:06Z</time>
      </trkpt>
      <trkpt lat="43.5225" lon="5.62837">
        <ele>452.44</ele>
        <time>2019-05-01T11:34:07Z</time>
      </trkpt>
      <trkpt lat="43.52251" lon="5.62842">
        <ele>451.96</ele>
        <time>2019-05-01T11:34:08Z</time>
      </trkpt>
      <trkpt lat="43.52251" lon="5.62846">
        <ele>451.48</ele>
        <time>2019-05-01T11:34:09Z</time>
      </trkpt>
      <trkpt lat="43.52258" lon="5.6286">
        <ele>450.52</ele>
        <time>2019-05-01T11:34:14Z</time>
      </trkpt>
      <trkpt lat="43.52279" lon="5.62933">
        <ele>448.11</ele>
        <time>2019-05-01T11:34:20Z</time>
      </trkpt>
      <trkpt lat="43.52296" lon="5.62981">
        <ele>444.75</ele>
        <time>2019-05-01T11:34:23Z</time>
      </trkpt>
      <trkpt lat="43.52314" lon="5.63028">
        <ele>440.9</ele>
        <time>2019-05-01T11:34:26Z</time>
      </trkpt>
      <trkpt lat="43.5232" lon="5.63043">
        <ele>439.94</ele>
        <time>2019-05-01T11:34:27Z</time>
      </trkpt>
      <trkpt lat="43.52328" lon="5.63057">
        <ele>438.98</ele>
        <time>2019-05-01T11:34:28Z</time>
      </trkpt>
      <trkpt lat="43.52336" lon="5.63069">
        <ele>438.02</ele>
        <time>2019-05-01T11:34:29Z</time>
      </trkpt>
      <trkpt lat="43.52346" lon="5.6308">
        <ele>437.54</ele>
        <time>2019-05-01T11:34:30Z</time>
      </trkpt>
      <trkpt lat="43.52356" lon="5.6309">
        <ele>436.1</ele>
        <time>2019-05-01T11:34:31Z</time>
      </trkpt>
      <trkpt lat="43.52367" lon="5.63099">
        <ele>435.13</ele>
        <time>2019-05-01T11:34:32Z</time>
      </trkpt>
      <trkpt lat="43.52399" lon="5.63125">
        <ele>431.77</ele>
        <time>2019-05-01T11:34:35Z</time>
      </trkpt>
      <trkpt lat="43.5242" lon="5.63143">
        <ele>430.33</ele>
        <time>2019-05-01T11:34:37Z</time>
      </trkpt>
      <trkpt lat="43.52452" lon="5.63174">
        <ele>426.96</ele>
        <time>2019-05-01T11:34:40Z</time>
      </trkpt>
      <trkpt lat="43.52461" lon="5.63185">
        <ele>426</ele>
        <time>2019-05-01T11:34:41Z</time>
      </trkpt>
      <trkpt lat="43.52469" lon="5.63197">
        <ele>425.04</ele>
        <time>2019-05-01T11:34:42Z</time>
      </trkpt>
      <trkpt lat="43.52476" lon="5.63211">
        <ele>424.08</ele>
        <time>2019-05-01T11:34:43Z</time>
      </trkpt>
      <trkpt lat="43.52503" lon="5.6327">
        <ele>420.23</ele>
        <time>2019-05-01T11:34:48Z</time>
      </trkpt>
      <trkpt lat="43.52506" lon="5.63277">
        <ele>420.71</ele>
        <time>2019-05-01T11:34:49Z</time>
      </trkpt>
      <trkpt lat="43.52516" lon="5.63295">
        <ele>419.75</ele>
        <time>2019-05-01T11:34:57Z</time>
      </trkpt>
      <trkpt lat="43.52521" lon="5.63287">
        <ele>420.71</ele>
        <time>2019-05-01T11:35:15Z</time>
      </trkpt>
      <trkpt lat="43.52517" lon="5.63287">
        <ele>421.19</ele>
        <time>2019-05-01T11:35:29Z</time>
      </trkpt>
      <trkpt lat="43.52517" lon="5.63288">
        <ele>421.19</ele>
        <time>2019-05-01T11:35:45Z</time>
      </trkpt>
      <trkpt lat="43.52512" lon="5.6328">
        <ele>421.19</ele>
        <time>2019-05-01T11:36:01Z</time>
      </trkpt>
      <trkpt lat="43.52513" lon="5.63259">
        <ele>421.19</ele>
        <time>2019-05-01T11:36:21Z</time>
      </trkpt>
      <trkpt lat="43.52521" lon="5.63238">
        <ele>424.08</ele>
        <time>2019-05-01T11:36:41Z</time>
      </trkpt>
      <trkpt lat="43.52535" lon="5.63227">
        <ele>427.44</ele>
        <time>2019-05-01T11:37:01Z</time>
      </trkpt>
      <trkpt lat="43.52546" lon="5.63212">
        <ele>429.37</ele>
        <time>2019-05-01T11:37:21Z</time>
      </trkpt>
      <trkpt lat="43.52558" lon="5.63202">
        <ele>431.29</ele>
        <time>2019-05-01T11:37:43Z</time>
      </trkpt>
      <trkpt lat="43.52564" lon="5.63196">
        <ele>431.77</ele>
        <time>2019-05-01T11:38:02Z</time>
      </trkpt>
      <trkpt lat="43.52568" lon="5.63191">
        <ele>433.21</ele>
        <time>2019-05-01T11:38:17Z</time>
      </trkpt>
      <trkpt lat="43.52579" lon="5.63176">
        <ele>435.13</ele>
        <time>2019-05-01T11:38:40Z</time>
      </trkpt>
      <trkpt lat="43.52592" lon="5.63167">
        <ele>438.5</ele>
        <time>2019-05-01T11:38:59Z</time>
      </trkpt>
      <trkpt lat="43.526" lon="5.63152">
        <ele>439.46</ele>
        <time>2019-05-01T11:39:20Z</time>
      </trkpt>
      <trkpt lat="43.52605" lon="5.63134">
        <ele>441.38</ele>
        <time>2019-05-01T11:39:40Z</time>
      </trkpt>
      <trkpt lat="43.5261" lon="5.63115">
        <ele>444.75</ele>
        <time>2019-05-01T11:39:55Z</time>
      </trkpt>
      <trkpt lat="43.52617" lon="5.63095">
        <ele>447.15</ele>
        <time>2019-05-01T11:40:13Z</time>
      </trkpt>
      <trkpt lat="43.52624" lon="5.63083">
        <ele>449.07</ele>
        <time>2019-05-01T11:40:32Z</time>
      </trkpt>
      <trkpt lat="43.52629" lon="5.63068">
        <ele>451.48</ele>
        <time>2019-05-01T11:40:50Z</time>
      </trkpt>
      <trkpt lat="43.52634" lon="5.63065">
        <ele>452.44</ele>
        <time>2019-05-01T11:40:59Z</time>
      </trkpt>
      <trkpt lat="43.52637" lon="5.63063">
        <ele>452.92</ele>
        <time>2019-05-01T11:41:01Z</time>
      </trkpt>
      <trkpt lat="43.5265" lon="5.63065">
        <ele>457.72</ele>
        <time>2019-05-01T11:41:13Z</time>
      </trkpt>
      <trkpt lat="43.52651" lon="5.63065">
        <ele>457.72</ele>
        <time>2019-05-01T11:41:14Z</time>
      </trkpt>
      <trkpt lat="43.52663" lon="5.63071">
        <ele>462.05</ele>
        <time>2019-05-01T11:41:27Z</time>
      </trkpt>
      <trkpt lat="43.52664" lon="5.63072">
        <ele>462.05</ele>
        <time>2019-05-01T11:41:28Z</time>
      </trkpt>
      <trkpt lat="43.5267" lon="5.63076">
        <ele>464.93</ele>
        <time>2019-05-01T11:41:43Z</time>
      </trkpt>
      <trkpt lat="43.52668" lon="5.63076">
        <ele>464.93</ele>
        <time>2019-05-01T11:42:04Z</time>
      </trkpt>
      <trkpt lat="43.52662" lon="5.63071">
        <ele>461.57</ele>
        <time>2019-05-01T11:42:12Z</time>
      </trkpt>
      <trkpt lat="43.52654" lon="5.63061">
        <ele>459.17</ele>
        <time>2019-05-01T11:42:26Z</time>
      </trkpt>
      <trkpt lat="43.52645" lon="5.63048">
        <ele>455.8</ele>
        <time>2019-05-01T11:42:40Z</time>
      </trkpt>
      <trkpt lat="43.52642" lon="5.63047">
        <ele>454.84</ele>
        <time>2019-05-01T11:42:43Z</time>
      </trkpt>
      <trkpt lat="43.52642" lon="5.63031">
        <ele>456.28</ele>
        <time>2019-05-01T11:42:53Z</time>
      </trkpt>
      <trkpt lat="43.52647" lon="5.63018">
        <ele>457.72</ele>
        <time>2019-05-01T11:43:11Z</time>
      </trkpt>
      <trkpt lat="43.52655" lon="5.62999">
        <ele>459.65</ele>
        <time>2019-05-01T11:43:29Z</time>
      </trkpt>
      <trkpt lat="43.52649" lon="5.62986">
        <ele>461.57</ele>
        <time>2019-05-01T11:43:45Z</time>
      </trkpt>
      <trkpt lat="43.52649" lon="5.62967">
        <ele>464.45</ele>
        <time>2019-05-01T11:44:03Z</time>
      </trkpt>
      <trkpt lat="43.52655" lon="5.62947">
        <ele>467.82</ele>
        <time>2019-05-01T11:44:18Z</time>
      </trkpt>
      <trkpt lat="43.52655" lon="5.62941">
        <ele>469.26</ele>
        <time>2019-05-01T11:44:33Z</time>
      </trkpt>
      <trkpt lat="43.5266" lon="5.62942">
        <ele>469.26</ele>
        <time>2019-05-01T11:44:50Z</time>
      </trkpt>
      <trkpt lat="43.52653" lon="5.62931">
        <ele>470.22</ele>
        <time>2019-05-01T11:45:04Z</time>
      </trkpt>
      <trkpt lat="43.52652" lon="5.62915">
        <ele>472.63</ele>
        <time>2019-05-01T11:45:18Z</time>
      </trkpt>
      <trkpt lat="43.52653" lon="5.62891">
        <ele>474.55</ele>
        <time>2019-05-01T11:45:36Z</time>
      </trkpt>
      <trkpt lat="43.52658" lon="5.62876">
        <ele>476.47</ele>
        <time>2019-05-01T11:45:52Z</time>
      </trkpt>
      <trkpt lat="43.52655" lon="5.62864">
        <ele>478.39</ele>
        <time>2019-05-01T11:46:11Z</time>
      </trkpt>
      <trkpt lat="43.52654" lon="5.62843">
        <ele>480.32</ele>
        <time>2019-05-01T11:46:28Z</time>
      </trkpt>
      <trkpt lat="43.52656" lon="5.62827">
        <ele>483.2</ele>
        <time>2019-05-01T11:46:43Z</time>
      </trkpt>
      <trkpt lat="43.52662" lon="5.62823">
        <ele>484.16</ele>
        <time>2019-05-01T11:47:09Z</time>
      </trkpt>
      <trkpt lat="43.52671" lon="5.62802">
        <ele>486.56</ele>
        <time>2019-05-01T11:47:28Z</time>
      </trkpt>
      <trkpt lat="43.52682" lon="5.62792">
        <ele>489.45</ele>
        <time>2019-05-01T11:47:45Z</time>
      </trkpt>
      <trkpt lat="43.52687" lon="5.62781">
        <ele>491.37</ele>
        <time>2019-05-01T11:48:10Z</time>
      </trkpt>
      <trkpt lat="43.52691" lon="5.62777">
        <ele>492.81</ele>
        <time>2019-05-01T11:48:33Z</time>
      </trkpt>
      <trkpt lat="43.52697" lon="5.62764">
        <ele>494.26</ele>
        <time>2019-05-01T11:48:54Z</time>
      </trkpt>
      <trkpt lat="43.52707" lon="5.62751">
        <ele>497.62</ele>
        <time>2019-05-01T11:49:10Z</time>
      </trkpt>
      <trkpt lat="43.5271" lon="5.62735">
        <ele>499.54</ele>
        <time>2019-05-01T11:49:28Z</time>
      </trkpt>
      <trkpt lat="43.52709" lon="5.62725">
        <ele>500.02</ele>
        <time>2019-05-01T11:49:48Z</time>
      </trkpt>
      <trkpt lat="43.52709" lon="5.62708">
        <ele>502.43</ele>
        <time>2019-05-01T11:50:03Z</time>
      </trkpt>
      <trkpt lat="43.5271" lon="5.62697">
        <ele>503.87</ele>
        <time>2019-05-01T11:50:18Z</time>
      </trkpt>
      <trkpt lat="43.52724" lon="5.62706">
        <ele>503.39</ele>
        <time>2019-05-01T11:50:39Z</time>
      </trkpt>
      <trkpt lat="43.52723" lon="5.62701">
        <ele>503.39</ele>
        <time>2019-05-01T11:51:04Z</time>
      </trkpt>
      <trkpt lat="43.52723" lon="5.62701">
        <ele>503.39</ele>
        <time>2019-05-01T11:51:24Z</time>
      </trkpt>
      <trkpt lat="43.5271" lon="5.62697">
        <ele>501.95</ele>
        <time>2019-05-01T11:51:46Z</time>
      </trkpt>
      <trkpt lat="43.52714" lon="5.62692">
        <ele>503.87</ele>
        <time>2019-05-01T11:52:09Z</time>
      </trkpt>
      <trkpt lat="43.52719" lon="5.62679">
        <ele>505.31</ele>
        <time>2019-05-01T11:52:28Z</time>
      </trkpt>
      <trkpt lat="43.52717" lon="5.62679">
        <ele>505.31</ele>
        <time>2019-05-01T11:52:51Z</time>
      </trkpt>
      <trkpt lat="43.52716" lon="5.62682">
        <ele>504.83</ele>
        <time>2019-05-01T11:53:16Z</time>
      </trkpt>
      <trkpt lat="43.52716" lon="5.62672">
        <ele>506.75</ele>
        <time>2019-05-01T11:53:25Z</time>
      </trkpt>
      <trkpt lat="43.52725" lon="5.6266">
        <ele>509.16</ele>
        <time>2019-05-01T11:53:49Z</time>
      </trkpt>
      <trkpt lat="43.52735" lon="5.62661">
        <ele>509.16</ele>
        <time>2019-05-01T11:54:08Z</time>
      </trkpt>
      <trkpt lat="43.52746" lon="5.62667">
        <ele>509.16</ele>
        <time>2019-05-01T11:54:27Z</time>
      </trkpt>
      <trkpt lat="43.52747" lon="5.62678">
        <ele>507.71</ele>
        <time>2019-05-01T11:54:39Z</time>
      </trkpt>
      <trkpt lat="43.52751" lon="5.6268">
        <ele>506.75</ele>
        <time>2019-05-01T11:55:01Z</time>
      </trkpt>
      <trkpt lat="43.52747" lon="5.62679">
        <ele>507.71</ele>
        <time>2019-05-01T11:55:20Z</time>
      </trkpt>
      <trkpt lat="43.52747" lon="5.62689">
        <ele>507.71</ele>
        <time>2019-05-01T11:55:42Z</time>
      </trkpt>
      <trkpt lat="43.52755" lon="5.62681">
        <ele>508.19</ele>
        <time>2019-05-01T11:56:01Z</time>
      </trkpt>
      <trkpt lat="43.52754" lon="5.62689">
        <ele>505.31</ele>
        <time>2019-05-01T11:56:19Z</time>
      </trkpt>
      <trkpt lat="43.52758" lon="5.6269">
        <ele>504.83</ele>
        <time>2019-05-01T11:56:37Z</time>
      </trkpt>
      <trkpt lat="43.52755" lon="5.6269">
        <ele>505.79</ele>
        <time>2019-05-01T11:56:47Z</time>
      </trkpt>
      <trkpt lat="43.52754" lon="5.62691">
        <ele>504.83</ele>
        <time>2019-05-01T11:57:09Z</time>
      </trkpt>
      <trkpt lat="43.52753" lon="5.62684">
        <ele>506.75</ele>
        <time>2019-05-01T11:57:20Z</time>
      </trkpt>
      <trkpt lat="43.52749" lon="5.62679">
        <ele>508.19</ele>
        <time>2019-05-01T11:57:37Z</time>
      </trkpt>
      <trkpt lat="43.52744" lon="5.62678">
        <ele>508.19</ele>
        <time>2019-05-01T11:57:53Z</time>
      </trkpt>
      <trkpt lat="43.5274" lon="5.62673">
        <ele>508.67</ele>
        <time>2019-05-01T11:58:11Z</time>
      </trkpt>
      <trkpt lat="43.52737" lon="5.62672">
        <ele>508.19</ele>
        <time>2019-05-01T11:58:29Z</time>
      </trkpt>
      <trkpt lat="43.52737" lon="5.62674">
        <ele>509.64</ele>
        <time>2019-05-01T11:58:37Z</time>
      </trkpt>
      <trkpt lat="43.52737" lon="5.62676">
        <ele>508.19</ele>
        <time>2019-05-01T11:58:42Z</time>
      </trkpt>
      <trkpt lat="43.52736" lon="5.62676">
        <ele>508.67</ele>
        <time>2019-05-01T11:59:11Z</time>
      </trkpt>
      <trkpt lat="43.52741" lon="5.6267">
        <ele>505.31</ele>
        <time>2019-05-01T11:59:26Z</time>
      </trkpt>
      <trkpt lat="43.52741" lon="5.6267">
        <ele>509.16</ele>
        <time>2019-05-01T11:59:27Z</time>
      </trkpt>
      <trkpt lat="43.52736" lon="5.62667">
        <ele>509.64</ele>
        <time>2019-05-01T11:59:54Z</time>
      </trkpt>
      <trkpt lat="43.52742" lon="5.62679">
        <ele>508.67</ele>
        <time>2019-05-01T12:00:13Z</time>
      </trkpt>
      <trkpt lat="43.52748" lon="5.62681">
        <ele>508.19</ele>
        <time>2019-05-01T12:00:36Z</time>
      </trkpt>
      <trkpt lat="43.52746" lon="5.62679">
        <ele>507.71</ele>
        <time>2019-05-01T12:01:02Z</time>
      </trkpt>
      <trkpt lat="43.52744" lon="5.62675">
        <ele>507.23</ele>
        <time>2019-05-01T12:01:12Z</time>
      </trkpt>
      <trkpt lat="43.52743" lon="5.62676">
        <ele>508.67</ele>
        <time>2019-05-01T12:01:17Z</time>
      </trkpt>
      <trkpt lat="43.52747" lon="5.62682">
        <ele>509.16</ele>
        <time>2019-05-01T12:01:38Z</time>
      </trkpt>
      <trkpt lat="43.52747" lon="5.62684">
        <ele>501.46</ele>
        <time>2019-05-01T12:01:42Z</time>
      </trkpt>
      <trkpt lat="43.52747" lon="5.62684">
        <ele>512.52</ele>
        <time>2019-05-01T12:01:43Z</time>
      </trkpt>
      <trkpt lat="43.52747" lon="5.62684">
        <ele>506.27</ele>
        <time>2019-05-01T12:01:44Z</time>
      </trkpt>
      <trkpt lat="43.52747" lon="5.62684">
        <ele>510.6</ele>
        <time>2019-05-01T12:01:45Z</time>
      </trkpt>
      <trkpt lat="43.52745" lon="5.62679">
        <ele>507.23</ele>
        <time>2019-05-01T12:02:06Z</time>
      </trkpt>
      <trkpt lat="43.52746" lon="5.62681">
        <ele>509.16</ele>
        <time>2019-05-01T12:02:10Z</time>
      </trkpt>
      <trkpt lat="43.52745" lon="5.62683">
        <ele>504.35</ele>
        <time>2019-05-01T12:02:27Z</time>
      </trkpt>
      <trkpt lat="43.52745" lon="5.62684">
        <ele>509.64</ele>
        <time>2019-05-01T12:02:28Z</time>
      </trkpt>
      <trkpt lat="43.52746" lon="5.62685">
        <ele>507.71</ele>
        <time>2019-05-01T12:02:31Z</time>
      </trkpt>
      <trkpt lat="43.52748" lon="5.62685">
        <ele>507.71</ele>
        <time>2019-05-01T12:02:58Z</time>
      </trkpt>
      <trkpt lat="43.52749" lon="5.62685">
        <ele>507.71</ele>
        <time>2019-05-01T12:03:18Z</time>
      </trkpt>
      <trkpt lat="43.5275" lon="5.62685">
        <ele>509.16</ele>
        <time>2019-05-01T12:03:35Z</time>
      </trkpt>
      <trkpt lat="43.52746" lon="5.62682">
        <ele>508.19</ele>
        <time>2019-05-01T12:03:51Z</time>
      </trkpt>
      <trkpt lat="43.52746" lon="5.62685">
        <ele>508.67</ele>
        <time>2019-05-01T12:04:13Z</time>
      </trkpt>
      <trkpt lat="43.52746" lon="5.62684">
        <ele>509.16</ele>
        <time>2019-05-01T12:04:39Z</time>
      </trkpt>
      <trkpt lat="43.52747" lon="5.62686">
        <ele>510.12</ele>
        <time>2019-05-01T12:04:57Z</time>
      </trkpt>
      <trkpt lat="43.52748" lon="5.6268">
        <ele>508.67</ele>
        <time>2019-05-01T12:05:26Z</time>
      </trkpt>
      <trkpt lat="43.52748" lon="5.6268">
        <ele>508.67</ele>
        <time>2019-05-01T12:06:02Z</time>
      </trkpt>
      <trkpt lat="43.52749" lon="5.62677">
        <ele>509.16</ele>
        <time>2019-05-01T12:06:27Z</time>
      </trkpt>
      <trkpt lat="43.52748" lon="5.6268">
        <ele>509.16</ele>
        <time>2019-05-01T12:07:02Z</time>
      </trkpt>
      <trkpt lat="43.52748" lon="5.6268">
        <ele>509.16</ele>
        <time>2019-05-01T12:07:40Z</time>
      </trkpt>
      <trkpt lat="43.52747" lon="5.6268">
        <ele>509.64</ele>
        <time>2019-05-01T12:08:12Z</time>
      </trkpt>
      <trkpt lat="43.52745" lon="5.6268">
        <ele>509.64</ele>
        <time>2019-05-01T12:08:54Z</time>
      </trkpt>
      <trkpt lat="43.52746" lon="5.62681">
        <ele>509.64</ele>
        <time>2019-05-01T12:09:29Z</time>
      </trkpt>
      <trkpt lat="43.5275" lon="5.62681">
        <ele>509.64</ele>
        <time>2019-05-01T12:10:05Z</time>
      </trkpt>
      <trkpt lat="43.52747" lon="5.62679">
        <ele>509.64</ele>
        <time>2019-05-01T12:10:32Z</time>
      </trkpt>
      <trkpt lat="43.52749" lon="5.62679">
        <ele>509.64</ele>
        <time>2019-05-01T12:11:06Z</time>
      </trkpt>
      <trkpt lat="43.52747" lon="5.62681">
        <ele>511.08</ele>
        <time>2019-05-01T12:11:38Z</time>
      </trkpt>
      <trkpt lat="43.52747" lon="5.62681">
        <ele>510.12</ele>
        <time>2019-05-01T12:11:40Z</time>
      </trkpt>
      <trkpt lat="43.52748" lon="5.62684">
        <ele>509.64</ele>
        <time>2019-05-01T12:12:14Z</time>
      </trkpt>
      <trkpt lat="43.52747" lon="5.62682">
        <ele>509.64</ele>
        <time>2019-05-01T12:12:46Z</time>
      </trkpt>
      <trkpt lat="43.52746" lon="5.62681">
        <ele>509.64</ele>
        <time>2019-05-01T12:13:23Z</time>
      </trkpt>
      <trkpt lat="43.52745" lon="5.6268">
        <ele>509.64</ele>
        <time>2019-05-01T12:14:01Z</time>
      </trkpt>
      <trkpt lat="43.52747" lon="5.62683">
        <ele>509.64</ele>
        <time>2019-05-01T12:14:37Z</time>
      </trkpt>
      <trkpt lat="43.52746" lon="5.62683">
        <ele>513.48</ele>
        <time>2019-05-01T12:14:40Z</time>
      </trkpt>
      <trkpt lat="43.52747" lon="5.62683">
        <ele>509.16</ele>
        <time>2019-05-01T12:14:41Z</time>
      </trkpt>
      <trkpt lat="43.52746" lon="5.62683">
        <ele>509.64</ele>
        <time>2019-05-01T12:14:45Z</time>
      </trkpt>
      <trkpt lat="43.52746" lon="5.62682">
        <ele>510.6</ele>
        <time>2019-05-01T12:15:33Z</time>
      </trkpt>
      <trkpt lat="43.52747" lon="5.62681">
        <ele>510.12</ele>
        <time>2019-05-01T12:16:14Z</time>
      </trkpt>
      <trkpt lat="43.52748" lon="5.62678">
        <ele>510.12</ele>
        <time>2019-05-01T12:16:57Z</time>
      </trkpt>
      <trkpt lat="43.52747" lon="5.62678">
        <ele>510.12</ele>
        <time>2019-05-01T12:17:29Z</time>
      </trkpt>
      <trkpt lat="43.52746" lon="5.6268">
        <ele>510.12</ele>
        <time>2019-05-01T12:17:54Z</time>
      </trkpt>
      <trkpt lat="43.52746" lon="5.62682">
        <ele>510.12</ele>
        <time>2019-05-01T12:18:27Z</time>
      </trkpt>
      <trkpt lat="43.52745" lon="5.62679">
        <ele>510.12</ele>
        <time>2019-05-01T12:19:07Z</time>
      </trkpt>
      <trkpt lat="43.52746" lon="5.62683">
        <ele>510.12</ele>
        <time>2019-05-01T12:19:39Z</time>
      </trkpt>
      <trkpt lat="43.52746" lon="5.62683">
        <ele>510.12</ele>
        <time>2019-05-01T12:20:14Z</time>
      </trkpt>
      <trkpt lat="43.52745" lon="5.62681">
        <ele>510.6</ele>
        <time>2019-05-01T12:20:47Z</time>
      </trkpt>
      <trkpt lat="43.52747" lon="5.62681">
        <ele>510.6</ele>
        <time>2019-05-01T12:21:26Z</time>
      </trkpt>
      <trkpt lat="43.52747" lon="5.62683">
        <ele>510.6</ele>
        <time>2019-05-01T12:22:01Z</time>
      </trkpt>
      <trkpt lat="43.52747" lon="5.62683">
        <ele>510.6</ele>
        <time>2019-05-01T12:22:32Z</time>
      </trkpt>
      <trkpt lat="43.52747" lon="5.62682">
        <ele>512.04</ele>
        <time>2019-05-01T12:23:10Z</time>
      </trkpt>
      <trkpt lat="43.52746" lon="5.62682">
        <ele>512.04</ele>
        <time>2019-05-01T12:23:43Z</time>
      </trkpt>
      <trkpt lat="43.52747" lon="5.6268">
        <ele>512.04</ele>
        <time>2019-05-01T12:24:25Z</time>
      </trkpt>
      <trkpt lat="43.52745" lon="5.62681">
        <ele>512.04</ele>
        <time>2019-05-01T12:24:56Z</time>
      </trkpt>
      <trkpt lat="43.52746" lon="5.62679">
        <ele>511.56</ele>
        <time>2019-05-01T12:25:33Z</time>
      </trkpt>
      <trkpt lat="43.52747" lon="5.6268">
        <ele>511.56</ele>
        <time>2019-05-01T12:26:09Z</time>
      </trkpt>
      <trkpt lat="43.52746" lon="5.62682">
        <ele>511.56</ele>
        <time>2019-05-01T12:26:40Z</time>
      </trkpt>
      <trkpt lat="43.52744" lon="5.62682">
        <ele>511.56</ele>
        <time>2019-05-01T12:27:13Z</time>
      </trkpt>
      <trkpt lat="43.52746" lon="5.62683">
        <ele>512.04</ele>
        <time>2019-05-01T12:27:46Z</time>
      </trkpt>
      <trkpt lat="43.52746" lon="5.62683">
        <ele>512.04</ele>
        <time>2019-05-01T12:28:28Z</time>
      </trkpt>
      <trkpt lat="43.52745" lon="5.6268">
        <ele>512.04</ele>
        <time>2019-05-01T12:29:21Z</time>
      </trkpt>
      <trkpt lat="43.52749" lon="5.62681">
        <ele>512.04</ele>
        <time>2019-05-01T12:30:11Z</time>
      </trkpt>
      <trkpt lat="43.52748" lon="5.62683">
        <ele>511.56</ele>
        <time>2019-05-01T12:31:03Z</time>
      </trkpt>
      <trkpt lat="43.52748" lon="5.6268">
        <ele>507.71</ele>
        <time>2019-05-01T12:31:37Z</time>
      </trkpt>
      <trkpt lat="43.52748" lon="5.62681">
        <ele>513.96</ele>
        <time>2019-05-01T12:31:38Z</time>
      </trkpt>
      <trkpt lat="43.52747" lon="5.62681">
        <ele>513.96</ele>
        <time>2019-05-01T12:31:39Z</time>
      </trkpt>
      <trkpt lat="43.52747" lon="5.62682">
        <ele>512.04</ele>
        <time>2019-05-01T12:31:41Z</time>
      </trkpt>
      <trkpt lat="43.52746" lon="5.62682">
        <ele>512.04</ele>
        <time>2019-05-01T12:32:07Z</time>
      </trkpt>
      <trkpt lat="43.52746" lon="5.62685">
        <ele>512.04</ele>
        <time>2019-05-01T12:32:36Z</time>
      </trkpt>
      <trkpt lat="43.52747" lon="5.62684">
        <ele>511.56</ele>
        <time>2019-05-01T12:33:07Z</time>
      </trkpt>
      <trkpt lat="43.52746" lon="5.6269">
        <ele>511.56</ele>
        <time>2019-05-01T12:33:39Z</time>
      </trkpt>
      <trkpt lat="43.52748" lon="5.62689">
        <ele>513</ele>
        <time>2019-05-01T12:34:17Z</time>
      </trkpt>
      <trkpt lat="43.52746" lon="5.62684">
        <ele>513</ele>
        <time>2019-05-01T12:34:54Z</time>
      </trkpt>
      <trkpt lat="43.52742" lon="5.62685">
        <ele>513</ele>
        <time>2019-05-01T12:35:29Z</time>
      </trkpt>
      <trkpt lat="43.52743" lon="5.62686">
        <ele>513</ele>
        <time>2019-05-01T12:36:06Z</time>
      </trkpt>
      <trkpt lat="43.52747" lon="5.62682">
        <ele>513.96</ele>
        <time>2019-05-01T12:36:36Z</time>
      </trkpt>
      <trkpt lat="43.52747" lon="5.62679">
        <ele>514.92</ele>
        <time>2019-05-01T12:36:48Z</time>
      </trkpt>
      <trkpt lat="43.52747" lon="5.62678">
        <ele>514.92</ele>
        <time>2019-05-01T12:37:06Z</time>
      </trkpt>
      <trkpt lat="43.52749" lon="5.62682">
        <ele>514.92</ele>
        <time>2019-05-01T12:37:22Z</time>
      </trkpt>
      <trkpt lat="43.52748" lon="5.62683">
        <ele>513.96</ele>
        <time>2019-05-01T12:37:40Z</time>
      </trkpt>
      <trkpt lat="43.52747" lon="5.62678">
        <ele>513.96</ele>
        <time>2019-05-01T12:38:02Z</time>
      </trkpt>
      <trkpt lat="43.52747" lon="5.62679">
        <ele>515.4</ele>
        <time>2019-05-01T12:38:04Z</time>
      </trkpt>
      <trkpt lat="43.52747" lon="5.62677">
        <ele>515.4</ele>
        <time>2019-05-01T12:38:21Z</time>
      </trkpt>
      <trkpt lat="43.52746" lon="5.62677">
        <ele>515.4</ele>
        <time>2019-05-01T12:38:38Z</time>
      </trkpt>
      <trkpt lat="43.52744" lon="5.62675">
        <ele>515.4</ele>
        <time>2019-05-01T12:38:51Z</time>
      </trkpt>
      <trkpt lat="43.52741" lon="5.62676">
        <ele>515.4</ele>
        <time>2019-05-01T12:39:14Z</time>
      </trkpt>
      <trkpt lat="43.5274" lon="5.62672">
        <ele>515.88</ele>
        <time>2019-05-01T12:39:22Z</time>
      </trkpt>
      <trkpt lat="43.52736" lon="5.62666">
        <ele>516.85</ele>
        <time>2019-05-01T12:39:34Z</time>
      </trkpt>
      <trkpt lat="43.5273" lon="5.62658">
        <ele>517.33</ele>
        <time>2019-05-01T12:39:46Z</time>
      </trkpt>
      <trkpt lat="43.52726" lon="5.62651">
        <ele>519.25</ele>
        <time>2019-05-01T12:39:57Z</time>
      </trkpt>
      <trkpt lat="43.52728" lon="5.62646">
        <ele>519.25</ele>
        <time>2019-05-01T12:40:16Z</time>
      </trkpt>
      <trkpt lat="43.52728" lon="5.62646">
        <ele>519.25</ele>
        <time>2019-05-01T12:40:35Z</time>
      </trkpt>
      <trkpt lat="43.5273" lon="5.62644">
        <ele>519.73</ele>
        <time>2019-05-01T12:40:51Z</time>
      </trkpt>
      <trkpt lat="43.52732" lon="5.62641">
        <ele>520.69</ele>
        <time>2019-05-01T12:41:04Z</time>
      </trkpt>
      <trkpt lat="43.52735" lon="5.62639">
        <ele>521.65</ele>
        <time>2019-05-01T12:41:28Z</time>
      </trkpt>
      <trkpt lat="43.52745" lon="5.62636">
        <ele>523.58</ele>
        <time>2019-05-01T12:41:43Z</time>
      </trkpt>
      <trkpt lat="43.52758" lon="5.62639">
        <ele>525.98</ele>
        <time>2019-05-01T12:41:59Z</time>
      </trkpt>
      <trkpt lat="43.52765" lon="5.62639">
        <ele>526.46</ele>
        <time>2019-05-01T12:42:13Z</time>
      </trkpt>
      <trkpt lat="43.52776" lon="5.6264">
        <ele>528.38</ele>
        <time>2019-05-01T12:42:27Z</time>
      </trkpt>
      <trkpt lat="43.52784" lon="5.62637">
        <ele>530.3</ele>
        <time>2019-05-01T12:42:41Z</time>
      </trkpt>
      <trkpt lat="43.52789" lon="5.62632">
        <ele>532.23</ele>
        <time>2019-05-01T12:42:57Z</time>
      </trkpt>
      <trkpt lat="43.52794" lon="5.62627">
        <ele>534.15</ele>
        <time>2019-05-01T12:43:10Z</time>
      </trkpt>
      <trkpt lat="43.52801" lon="5.62623">
        <ele>534.63</ele>
        <time>2019-05-01T12:43:27Z</time>
      </trkpt>
      <trkpt lat="43.52801" lon="5.62622">
        <ele>534.63</ele>
        <time>2019-05-01T12:43:28Z</time>
      </trkpt>
      <trkpt lat="43.52811" lon="5.62621">
        <ele>536.55</ele>
        <time>2019-05-01T12:43:42Z</time>
      </trkpt>
      <trkpt lat="43.52818" lon="5.62621">
        <ele>537.51</ele>
        <time>2019-05-01T12:43:55Z</time>
      </trkpt>
      <trkpt lat="43.52827" lon="5.62615">
        <ele>538.48</ele>
        <time>2019-05-01T12:44:09Z</time>
      </trkpt>
      <trkpt lat="43.52835" lon="5.62609">
        <ele>539.92</ele>
        <time>2019-05-01T12:44:24Z</time>
      </trkpt>
      <trkpt lat="43.52846" lon="5.62608">
        <ele>541.36</ele>
        <time>2019-05-01T12:44:37Z</time>
      </trkpt>
      <trkpt lat="43.52856" lon="5.62606">
        <ele>544.24</ele>
        <time>2019-05-01T12:44:51Z</time>
      </trkpt>
      <trkpt lat="43.5286" lon="5.62606">
        <ele>544.72</ele>
        <time>2019-05-01T12:45:06Z</time>
      </trkpt>
      <trkpt lat="43.52869" lon="5.62599">
        <ele>547.13</ele>
        <time>2019-05-01T12:45:20Z</time>
      </trkpt>
      <trkpt lat="43.52878" lon="5.62594">
        <ele>548.57</ele>
        <time>2019-05-01T12:45:33Z</time>
      </trkpt>
      <trkpt lat="43.52883" lon="5.62589">
        <ele>549.53</ele>
        <time>2019-05-01T12:45:50Z</time>
      </trkpt>
      <trkpt lat="43.52889" lon="5.62589">
        <ele>550.01</ele>
        <time>2019-05-01T12:46:05Z</time>
      </trkpt>
      <trkpt lat="43.52895" lon="5.62587">
        <ele>550.97</ele>
        <time>2019-05-01T12:46:18Z</time>
      </trkpt>
      <trkpt lat="43.52898" lon="5.62595">
        <ele>551.45</ele>
        <time>2019-05-01T12:46:33Z</time>
      </trkpt>
      <trkpt lat="43.52901" lon="5.62597">
        <ele>551.93</ele>
        <time>2019-05-01T12:46:49Z</time>
      </trkpt>
      <trkpt lat="43.52907" lon="5.62601">
        <ele>552.41</ele>
        <time>2019-05-01T12:47:02Z</time>
      </trkpt>
      <trkpt lat="43.52909" lon="5.62605">
        <ele>553.38</ele>
        <time>2019-05-01T12:47:23Z</time>
      </trkpt>
      <trkpt lat="43.52912" lon="5.62613">
        <ele>554.82</ele>
        <time>2019-05-01T12:47:34Z</time>
      </trkpt>
      <trkpt lat="43.52913" lon="5.62617">
        <ele>555.78</ele>
        <time>2019-05-01T12:47:37Z</time>
      </trkpt>
      <trkpt lat="43.52913" lon="5.62622">
        <ele>557.22</ele>
        <time>2019-05-01T12:47:41Z</time>
      </trkpt>
      <trkpt lat="43.52913" lon="5.62624">
        <ele>557.22</ele>
        <time>2019-05-01T12:47:43Z</time>
      </trkpt>
      <trkpt lat="43.52915" lon="5.62635">
        <ele>558.66</ele>
        <time>2019-05-01T12:47:56Z</time>
      </trkpt>
      <trkpt lat="43.52917" lon="5.62635">
        <ele>559.14</ele>
        <time>2019-05-01T12:48:13Z</time>
      </trkpt>
      <trkpt lat="43.52917" lon="5.62639">
        <ele>559.14</ele>
        <time>2019-05-01T12:48:31Z</time>
      </trkpt>
      <trkpt lat="43.52918" lon="5.62637">
        <ele>558.66</ele>
        <time>2019-05-01T12:48:37Z</time>
      </trkpt>
      <trkpt lat="43.52916" lon="5.62634">
        <ele>558.66</ele>
        <time>2019-05-01T12:48:49Z</time>
      </trkpt>
      <trkpt lat="43.52912" lon="5.62637">
        <ele>557.22</ele>
        <time>2019-05-01T12:49:02Z</time>
      </trkpt>
      <trkpt lat="43.52911" lon="5.62638">
        <ele>557.22</ele>
        <time>2019-05-01T12:49:34Z</time>
      </trkpt>
      <trkpt lat="43.52912" lon="5.62638">
        <ele>557.22</ele>
        <time>2019-05-01T12:50:10Z</time>
      </trkpt>
      <trkpt lat="43.5291" lon="5.62639">
        <ele>557.22</ele>
        <time>2019-05-01T12:50:49Z</time>
      </trkpt>
      <trkpt lat="43.52912" lon="5.62637">
        <ele>556.74</ele>
        <time>2019-05-01T12:51:30Z</time>
      </trkpt>
      <trkpt lat="43.52913" lon="5.62635">
        <ele>556.74</ele>
        <time>2019-05-01T12:52:15Z</time>
      </trkpt>
      <trkpt lat="43.52912" lon="5.62637">
        <ele>556.74</ele>
        <time>2019-05-01T12:52:50Z</time>
      </trkpt>
      <trkpt lat="43.52912" lon="5.62637">
        <ele>556.74</ele>
        <time>2019-05-01T12:53:28Z</time>
      </trkpt>
      <trkpt lat="43.52911" lon="5.62637">
        <ele>556.74</ele>
        <time>2019-05-01T12:54:12Z</time>
      </trkpt>
      <trkpt lat="43.52911" lon="5.62637">
        <ele>557.22</ele>
        <time>2019-05-01T12:54:47Z</time>
      </trkpt>
      <trkpt lat="43.52911" lon="5.62638">
        <ele>557.22</ele>
        <time>2019-05-01T12:55:26Z</time>
      </trkpt>
      <trkpt lat="43.52911" lon="5.62639">
        <ele>557.22</ele>
        <time>2019-05-01T12:56:05Z</time>
      </trkpt>
      <trkpt lat="43.52911" lon="5.62638">
        <ele>557.22</ele>
        <time>2019-05-01T12:56:37Z</time>
      </trkpt>
      <trkpt lat="43.5291" lon="5.62638">
        <ele>557.22</ele>
        <time>2019-05-01T12:57:12Z</time>
      </trkpt>
      <trkpt lat="43.52908" lon="5.62641">
        <ele>557.22</ele>
        <time>2019-05-01T12:57:42Z</time>
      </trkpt>
      <trkpt lat="43.52907" lon="5.62641">
        <ele>557.22</ele>
        <time>2019-05-01T12:58:36Z</time>
      </trkpt>
      <trkpt lat="43.52909" lon="5.62639">
        <ele>557.7</ele>
        <time>2019-05-01T12:59:31Z</time>
      </trkpt>
      <trkpt lat="43.52907" lon="5.62642">
        <ele>557.7</ele>
        <time>2019-05-01T13:00:25Z</time>
      </trkpt>
      <trkpt lat="43.52909" lon="5.62637">
        <ele>557.7</ele>
        <time>2019-05-01T13:01:10Z</time>
      </trkpt>
      <trkpt lat="43.52909" lon="5.62641">
        <ele>558.18</ele>
        <time>2019-05-01T13:01:53Z</time>
      </trkpt>
      <trkpt lat="43.52908" lon="5.62641">
        <ele>558.18</ele>
        <time>2019-05-01T13:02:33Z</time>
      </trkpt>
      <trkpt lat="43.52907" lon="5.62645">
        <ele>558.18</ele>
        <time>2019-05-01T13:03:18Z</time>
      </trkpt>
      <trkpt lat="43.52908" lon="5.62644">
        <ele>558.18</ele>
        <time>2019-05-01T13:03:57Z</time>
      </trkpt>
      <trkpt lat="43.5291" lon="5.62643">
        <ele>558.18</ele>
        <time>2019-05-01T13:04:24Z</time>
      </trkpt>
      <trkpt lat="43.5291" lon="5.62642">
        <ele>558.18</ele>
        <time>2019-05-01T13:05:07Z</time>
      </trkpt>
      <trkpt lat="43.5291" lon="5.62644">
        <ele>558.66</ele>
        <time>2019-05-01T13:05:56Z</time>
      </trkpt>
      <trkpt lat="43.5291" lon="5.62644">
        <ele>558.66</ele>
        <time>2019-05-01T13:06:36Z</time>
      </trkpt>
      <trkpt lat="43.52909" lon="5.62646">
        <ele>558.66</ele>
        <time>2019-05-01T13:07:27Z</time>
      </trkpt>
      <trkpt lat="43.52909" lon="5.62644">
        <ele>558.66</ele>
        <time>2019-05-01T13:08:12Z</time>
      </trkpt>
      <trkpt lat="43.52909" lon="5.62644">
        <ele>558.66</ele>
        <time>2019-05-01T13:09:06Z</time>
      </trkpt>
      <trkpt lat="43.52909" lon="5.62644">
        <ele>558.66</ele>
        <time>2019-05-01T13:09:54Z</time>
      </trkpt>
      <trkpt lat="43.5291" lon="5.62643">
        <ele>559.14</ele>
        <time>2019-05-01T13:10:44Z</time>
      </trkpt>
      <trkpt lat="43.52909" lon="5.62642">
        <ele>560.59</ele>
        <time>2019-05-01T13:11:33Z</time>
      </trkpt>
      <trkpt lat="43.52908" lon="5.62642">
        <ele>560.59</ele>
        <time>2019-05-01T13:11:34Z</time>
      </trkpt>
      <trkpt lat="43.52906" lon="5.62643">
        <ele>558.66</ele>
        <time>2019-05-01T13:11:42Z</time>
      </trkpt>
      <trkpt lat="43.52906" lon="5.62642">
        <ele>559.62</ele>
        <time>2019-05-01T13:11:50Z</time>
      </trkpt>
      <trkpt lat="43.52906" lon="5.62643">
        <ele>559.62</ele>
        <time>2019-05-01T13:12:05Z</time>
      </trkpt>
      <trkpt lat="43.52906" lon="5.62645">
        <ele>556.26</ele>
        <time>2019-05-01T13:12:07Z</time>
      </trkpt>
      <trkpt lat="43.52906" lon="5.62644">
        <ele>561.07</ele>
        <time>2019-05-01T13:12:08Z</time>
      </trkpt>
      <trkpt lat="43.52907" lon="5.62643">
        <ele>561.07</ele>
        <time>2019-05-01T13:12:12Z</time>
      </trkpt>
      <trkpt lat="43.52907" lon="5.62642">
        <ele>560.59</ele>
        <time>2019-05-01T13:12:14Z</time>
      </trkpt>
      <trkpt lat="43.5291" lon="5.62639">
        <ele>562.03</ele>
        <time>2019-05-01T13:12:18Z</time>
      </trkpt>
      <trkpt lat="43.52914" lon="5.62638">
        <ele>562.51</ele>
        <time>2019-05-01T13:12:22Z</time>
      </trkpt>
      <trkpt lat="43.52916" lon="5.62636">
        <ele>563.47</ele>
        <time>2019-05-01T13:12:39Z</time>
      </trkpt>
      <trkpt lat="43.52921" lon="5.62632">
        <ele>563.95</ele>
        <time>2019-05-01T13:12:56Z</time>
      </trkpt>
      <trkpt lat="43.5292" lon="5.6263">
        <ele>564.43</ele>
        <time>2019-05-01T13:13:09Z</time>
      </trkpt>
      <trkpt lat="43.52923" lon="5.62628">
        <ele>564.43</ele>
        <time>2019-05-01T13:13:16Z</time>
      </trkpt>
      <trkpt lat="43.52924" lon="5.62626">
        <ele>565.87</ele>
        <time>2019-05-01T13:13:19Z</time>
      </trkpt>
      <trkpt lat="43.52925" lon="5.62625">
        <ele>564.43</ele>
        <time>2019-05-01T13:13:24Z</time>
      </trkpt>
      <trkpt lat="43.52927" lon="5.62625">
        <ele>566.35</ele>
        <time>2019-05-01T13:13:27Z</time>
      </trkpt>
      <trkpt lat="43.52935" lon="5.62619">
        <ele>566.83</ele>
        <time>2019-05-01T13:13:40Z</time>
      </trkpt>
      <trkpt lat="43.52936" lon="5.62619">
        <ele>568.28</ele>
        <time>2019-05-01T13:13:42Z</time>
      </trkpt>
      <trkpt lat="43.5294" lon="5.62616">
        <ele>569.72</ele>
        <time>2019-05-01T13:13:49Z</time>
      </trkpt>
      <trkpt lat="43.52946" lon="5.6261">
        <ele>571.64</ele>
        <time>2019-05-01T13:14:01Z</time>
      </trkpt>
      <trkpt lat="43.52952" lon="5.62605">
        <ele>573.56</ele>
        <time>2019-05-01T13:14:12Z</time>
      </trkpt>
      <trkpt lat="43.52957" lon="5.626">
        <ele>575.97</ele>
        <time>2019-05-01T13:14:20Z</time>
      </trkpt>
      <trkpt lat="43.52959" lon="5.62598">
        <ele>576.93</ele>
        <time>2019-05-01T13:14:24Z</time>
      </trkpt>
      <trkpt lat="43.5296" lon="5.62597">
        <ele>575.49</ele>
        <time>2019-05-01T13:14:27Z</time>
      </trkpt>
      <trkpt lat="43.52958" lon="5.62598">
        <ele>575.49</ele>
        <time>2019-05-01T13:14:48Z</time>
      </trkpt>
      <trkpt lat="43.52958" lon="5.62598">
        <ele>576.45</ele>
        <time>2019-05-01T13:15:08Z</time>
      </trkpt>
      <trkpt lat="43.52959" lon="5.62596">
        <ele>576.93</ele>
        <time>2019-05-01T13:15:34Z</time>
      </trkpt>
      <trkpt lat="43.52958" lon="5.62593">
        <ele>576.93</ele>
        <time>2019-05-01T13:15:55Z</time>
      </trkpt>
      <trkpt lat="43.52959" lon="5.62591">
        <ele>575.97</ele>
        <time>2019-05-01T13:16:16Z</time>
      </trkpt>
      <trkpt lat="43.5296" lon="5.6259">
        <ele>577.41</ele>
        <time>2019-05-01T13:16:23Z</time>
      </trkpt>
      <trkpt lat="43.5296" lon="5.6259">
        <ele>576.93</ele>
        <time>2019-05-01T13:16:28Z</time>
      </trkpt>
      <trkpt lat="43.52961" lon="5.62588">
        <ele>577.89</ele>
        <time>2019-05-01T13:16:32Z</time>
      </trkpt>
      <trkpt lat="43.52964" lon="5.6259">
        <ele>580.29</ele>
        <time>2019-05-01T13:16:44Z</time>
      </trkpt>
      <trkpt lat="43.52963" lon="5.62587">
        <ele>580.29</ele>
        <time>2019-05-01T13:17:00Z</time>
      </trkpt>
      <trkpt lat="43.52966" lon="5.6258">
        <ele>582.22</ele>
        <time>2019-05-01T13:17:08Z</time>
      </trkpt>
      <trkpt lat="43.52968" lon="5.62576">
        <ele>582.7</ele>
        <time>2019-05-01T13:17:13Z</time>
      </trkpt>
      <trkpt lat="43.52969" lon="5.62571">
        <ele>583.18</ele>
        <time>2019-05-01T13:17:18Z</time>
      </trkpt>
      <trkpt lat="43.52972" lon="5.62567">
        <ele>586.06</ele>
        <time>2019-05-01T13:17:23Z</time>
      </trkpt>
      <trkpt lat="43.52976" lon="5.6256">
        <ele>587.02</ele>
        <time>2019-05-01T13:17:30Z</time>
      </trkpt>
      <trkpt lat="43.52979" lon="5.62558">
        <ele>588.46</ele>
        <time>2019-05-01T13:17:34Z</time>
      </trkpt>
      <trkpt lat="43.5298" lon="5.62553">
        <ele>589.91</ele>
        <time>2019-05-01T13:17:38Z</time>
      </trkpt>
      <trkpt lat="43.52979" lon="5.62547">
        <ele>586.06</ele>
        <time>2019-05-01T13:17:46Z</time>
      </trkpt>
      <trkpt lat="43.52979" lon="5.62547">
        <ele>589.91</ele>
        <time>2019-05-01T13:17:47Z</time>
      </trkpt>
      <trkpt lat="43.5298" lon="5.62544">
        <ele>592.79</ele>
        <time>2019-05-01T13:17:56Z</time>
      </trkpt>
      <trkpt lat="43.52979" lon="5.62544">
        <ele>589.43</ele>
        <time>2019-05-01T13:17:57Z</time>
      </trkpt>
      <trkpt lat="43.52979" lon="5.62544">
        <ele>590.39</ele>
        <time>2019-05-01T13:18:02Z</time>
      </trkpt>
      <trkpt lat="43.52978" lon="5.62545">
        <ele>589.91</ele>
        <time>2019-05-01T13:18:18Z</time>
      </trkpt>
      <trkpt lat="43.5298" lon="5.62542">
        <ele>590.87</ele>
        <time>2019-05-01T13:18:24Z</time>
      </trkpt>
      <trkpt lat="43.52984" lon="5.62529">
        <ele>592.79</ele>
        <time>2019-05-01T13:18:37Z</time>
      </trkpt>
      <trkpt lat="43.52987" lon="5.6252">
        <ele>594.23</ele>
        <time>2019-05-01T13:18:46Z</time>
      </trkpt>
      <trkpt lat="43.52991" lon="5.62508">
        <ele>595.67</ele>
        <time>2019-05-01T13:19:00Z</time>
      </trkpt>
      <trkpt lat="43.52992" lon="5.62506">
        <ele>595.19</ele>
        <time>2019-05-01T13:19:15Z</time>
      </trkpt>
      <trkpt lat="43.52996" lon="5.62503">
        <ele>596.15</ele>
        <time>2019-05-01T13:19:25Z</time>
      </trkpt>
      <trkpt lat="43.52995" lon="5.62501">
        <ele>595.67</ele>
        <time>2019-05-01T13:19:37Z</time>
      </trkpt>
      <trkpt lat="43.52992" lon="5.625">
        <ele>597.12</ele>
        <time>2019-05-01T13:19:49Z</time>
      </trkpt>
      <trkpt lat="43.52988" lon="5.62501">
        <ele>595.19</ele>
        <time>2019-05-01T13:20:03Z</time>
      </trkpt>
      <trkpt lat="43.52985" lon="5.6251">
        <ele>594.23</ele>
        <time>2019-05-01T13:20:19Z</time>
      </trkpt>
      <trkpt lat="43.52983" lon="5.6251">
        <ele>593.75</ele>
        <time>2019-05-01T13:20:35Z</time>
      </trkpt>
      <trkpt lat="43.5298" lon="5.62519">
        <ele>593.27</ele>
        <time>2019-05-01T13:20:45Z</time>
      </trkpt>
      <trkpt lat="43.52978" lon="5.62536">
        <ele>591.83</ele>
        <time>2019-05-01T13:21:01Z</time>
      </trkpt>
      <trkpt lat="43.52975" lon="5.62547">
        <ele>589.43</ele>
        <time>2019-05-01T13:21:14Z</time>
      </trkpt>
      <trkpt lat="43.52968" lon="5.62556">
        <ele>586.54</ele>
        <time>2019-05-01T13:21:30Z</time>
      </trkpt>
      <trkpt lat="43.52964" lon="5.62561">
        <ele>586.06</ele>
        <time>2019-05-01T13:21:44Z</time>
      </trkpt>
      <trkpt lat="43.52963" lon="5.62562">
        <ele>584.62</ele>
        <time>2019-05-01T13:21:49Z</time>
      </trkpt>
      <trkpt lat="43.52964" lon="5.62564">
        <ele>586.06</ele>
        <time>2019-05-01T13:21:53Z</time>
      </trkpt>
      <trkpt lat="43.52963" lon="5.62568">
        <ele>584.14</ele>
        <time>2019-05-01T13:21:59Z</time>
      </trkpt>
      <trkpt lat="43.5296" lon="5.62577">
        <ele>581.73</ele>
        <time>2019-05-01T13:22:13Z</time>
      </trkpt>
      <trkpt lat="43.52957" lon="5.6258">
        <ele>582.22</ele>
        <time>2019-05-01T13:22:28Z</time>
      </trkpt>
      <trkpt lat="43.52958" lon="5.6258">
        <ele>581.73</ele>
        <time>2019-05-01T13:22:29Z</time>
      </trkpt>
      <trkpt lat="43.52956" lon="5.62579">
        <ele>582.22</ele>
        <time>2019-05-01T13:22:42Z</time>
      </trkpt>
      <trkpt lat="43.52955" lon="5.6258">
        <ele>580.77</ele>
        <time>2019-05-01T13:22:50Z</time>
      </trkpt>
      <trkpt lat="43.52951" lon="5.62588">
        <ele>578.37</ele>
        <time>2019-05-01T13:23:03Z</time>
      </trkpt>
      <trkpt lat="43.52949" lon="5.62593">
        <ele>578.85</ele>
        <time>2019-05-01T13:23:17Z</time>
      </trkpt>
      <trkpt lat="43.52949" lon="5.62599">
        <ele>576.93</ele>
        <time>2019-05-01T13:23:31Z</time>
      </trkpt>
      <trkpt lat="43.52941" lon="5.62605">
        <ele>574.53</ele>
        <time>2019-05-01T13:23:45Z</time>
      </trkpt>
      <trkpt lat="43.52935" lon="5.62609">
        <ele>572.6</ele>
        <time>2019-05-01T13:24:00Z</time>
      </trkpt>
      <trkpt lat="43.5293" lon="5.62616">
        <ele>571.64</ele>
        <time>2019-05-01T13:24:08Z</time>
      </trkpt>
      <trkpt lat="43.52921" lon="5.62626">
        <ele>568.28</ele>
        <time>2019-05-01T13:24:23Z</time>
      </trkpt>
      <trkpt lat="43.52911" lon="5.62632">
        <ele>566.35</ele>
        <time>2019-05-01T13:24:38Z</time>
      </trkpt>
      <trkpt lat="43.52911" lon="5.62633">
        <ele>566.83</ele>
        <time>2019-05-01T13:24:40Z</time>
      </trkpt>
      <trkpt lat="43.52907" lon="5.6264">
        <ele>566.83</ele>
        <time>2019-05-01T13:24:52Z</time>
      </trkpt>
      <trkpt lat="43.52907" lon="5.62637">
        <ele>565.39</ele>
        <time>2019-05-01T13:24:54Z</time>
      </trkpt>
      <trkpt lat="43.52909" lon="5.62626">
        <ele>562.99</ele>
        <time>2019-05-01T13:25:07Z</time>
      </trkpt>
      <trkpt lat="43.52908" lon="5.62617">
        <ele>561.07</ele>
        <time>2019-05-01T13:25:19Z</time>
      </trkpt>
      <trkpt lat="43.52902" lon="5.62609">
        <ele>559.62</ele>
        <time>2019-05-01T13:25:34Z</time>
      </trkpt>
      <trkpt lat="43.52899" lon="5.62607">
        <ele>556.26</ele>
        <time>2019-05-01T13:25:40Z</time>
      </trkpt>
      <trkpt lat="43.52898" lon="5.62605">
        <ele>560.11</ele>
        <time>2019-05-01T13:25:41Z</time>
      </trkpt>
      <trkpt lat="43.52898" lon="5.62605">
        <ele>560.11</ele>
        <time>2019-05-01T13:25:42Z</time>
      </trkpt>
      <trkpt lat="43.52897" lon="5.62603">
        <ele>561.55</ele>
        <time>2019-05-01T13:25:46Z</time>
      </trkpt>
      <trkpt lat="43.52895" lon="5.62601">
        <ele>559.14</ele>
        <time>2019-05-01T13:25:49Z</time>
      </trkpt>
      <trkpt lat="43.52891" lon="5.62594">
        <ele>558.66</ele>
        <time>2019-05-01T13:26:02Z</time>
      </trkpt>
      <trkpt lat="43.52889" lon="5.62591">
        <ele>558.18</ele>
        <time>2019-05-01T13:26:10Z</time>
      </trkpt>
      <trkpt lat="43.52888" lon="5.62594">
        <ele>557.7</ele>
        <time>2019-05-01T13:26:25Z</time>
      </trkpt>
      <trkpt lat="43.52886" lon="5.62592">
        <ele>557.7</ele>
        <time>2019-05-01T13:26:42Z</time>
      </trkpt>
      <trkpt lat="43.52884" lon="5.62593">
        <ele>557.22</ele>
        <time>2019-05-01T13:26:43Z</time>
      </trkpt>
      <trkpt lat="43.52871" lon="5.62598">
        <ele>555.3</ele>
        <time>2019-05-01T13:27:00Z</time>
      </trkpt>
      <trkpt lat="43.5287" lon="5.62598">
        <ele>555.78</ele>
        <time>2019-05-01T13:27:01Z</time>
      </trkpt>
      <trkpt lat="43.52858" lon="5.62604">
        <ele>552.9</ele>
        <time>2019-05-01T13:27:16Z</time>
      </trkpt>
      <trkpt lat="43.52845" lon="5.62606">
        <ele>550.49</ele>
        <time>2019-05-01T13:27:31Z</time>
      </trkpt>
      <trkpt lat="43.52837" lon="5.62605">
        <ele>549.05</ele>
        <time>2019-05-01T13:27:39Z</time>
      </trkpt>
      <trkpt lat="43.52827" lon="5.62609">
        <ele>547.61</ele>
        <time>2019-05-01T13:27:53Z</time>
      </trkpt>
      <trkpt lat="43.52827" lon="5.62609">
        <ele>547.61</ele>
        <time>2019-05-01T13:27:54Z</time>
      </trkpt>
      <trkpt lat="43.52824" lon="5.6261">
        <ele>547.61</ele>
        <time>2019-05-01T13:27:57Z</time>
      </trkpt>
      <trkpt lat="43.52813" lon="5.62617">
        <ele>546.65</ele>
        <time>2019-05-01T13:28:10Z</time>
      </trkpt>
      <trkpt lat="43.52808" lon="5.62619">
        <ele>546.65</ele>
        <time>2019-05-01T13:28:16Z</time>
      </trkpt>
      <trkpt lat="43.52802" lon="5.62619">
        <ele>545.2</ele>
        <time>2019-05-01T13:28:20Z</time>
      </trkpt>
      <trkpt lat="43.52792" lon="5.6262">
        <ele>543.28</ele>
        <time>2019-05-01T13:28:33Z</time>
      </trkpt>
      <trkpt lat="43.52791" lon="5.6262">
        <ele>544.24</ele>
        <time>2019-05-01T13:28:35Z</time>
      </trkpt>
      <trkpt lat="43.52788" lon="5.62621">
        <ele>542.8</ele>
        <time>2019-05-01T13:28:39Z</time>
      </trkpt>
      <trkpt lat="43.5278" lon="5.62628">
        <ele>540.88</ele>
        <time>2019-05-01T13:28:54Z</time>
      </trkpt>
      <trkpt lat="43.52779" lon="5.6263">
        <ele>539.44</ele>
        <time>2019-05-01T13:28:56Z</time>
      </trkpt>
      <trkpt lat="43.52772" lon="5.62637">
        <ele>538.48</ele>
        <time>2019-05-01T13:29:10Z</time>
      </trkpt>
      <trkpt lat="43.52771" lon="5.62637">
        <ele>538.48</ele>
        <time>2019-05-01T13:29:11Z</time>
      </trkpt>
      <trkpt lat="43.52762" lon="5.62637">
        <ele>537.03</ele>
        <time>2019-05-01T13:29:25Z</time>
      </trkpt>
      <trkpt lat="43.52749" lon="5.62635">
        <ele>536.55</ele>
        <time>2019-05-01T13:29:40Z</time>
      </trkpt>
      <trkpt lat="43.52735" lon="5.62633">
        <ele>535.11</ele>
        <time>2019-05-01T13:29:53Z</time>
      </trkpt>
      <trkpt lat="43.52731" lon="5.62635">
        <ele>533.67</ele>
        <time>2019-05-01T13:29:58Z</time>
      </trkpt>
      <trkpt lat="43.5272" lon="5.62642">
        <ele>531.27</ele>
        <time>2019-05-01T13:30:12Z</time>
      </trkpt>
      <trkpt lat="43.52714" lon="5.62655">
        <ele>528.86</ele>
        <time>2019-05-01T13:30:26Z</time>
      </trkpt>
      <trkpt lat="43.52708" lon="5.62665">
        <ele>527.42</ele>
        <time>2019-05-01T13:30:40Z</time>
      </trkpt>
      <trkpt lat="43.52705" lon="5.62675">
        <ele>525.5</ele>
        <time>2019-05-01T13:30:55Z</time>
      </trkpt>
      <trkpt lat="43.52697" lon="5.62688">
        <ele>524.54</ele>
        <time>2019-05-01T13:31:08Z</time>
      </trkpt>
      <trkpt lat="43.52694" lon="5.62705">
        <ele>522.13</ele>
        <time>2019-05-01T13:31:23Z</time>
      </trkpt>
      <trkpt lat="43.52694" lon="5.6272">
        <ele>521.65</ele>
        <time>2019-05-01T13:31:35Z</time>
      </trkpt>
      <trkpt lat="43.52696" lon="5.62733">
        <ele>520.69</ele>
        <time>2019-05-01T13:31:48Z</time>
      </trkpt>
      <trkpt lat="43.52696" lon="5.62735">
        <ele>519.25</ele>
        <time>2019-05-01T13:31:51Z</time>
      </trkpt>
      <trkpt lat="43.52694" lon="5.62749">
        <ele>517.81</ele>
        <time>2019-05-01T13:32:05Z</time>
      </trkpt>
      <trkpt lat="43.52689" lon="5.62759">
        <ele>515.88</ele>
        <time>2019-05-01T13:32:14Z</time>
      </trkpt>
      <trkpt lat="43.52684" lon="5.62768">
        <ele>514.92</ele>
        <time>2019-05-01T13:32:25Z</time>
      </trkpt>
      <trkpt lat="43.52678" lon="5.6278">
        <ele>512.52</ele>
        <time>2019-05-01T13:32:37Z</time>
      </trkpt>
      <trkpt lat="43.52667" lon="5.62794">
        <ele>510.6</ele>
        <time>2019-05-01T13:32:53Z</time>
      </trkpt>
      <trkpt lat="43.52659" lon="5.62808">
        <ele>508.19</ele>
        <time>2019-05-01T13:33:08Z</time>
      </trkpt>
      <trkpt lat="43.52656" lon="5.62817">
        <ele>507.23</ele>
        <time>2019-05-01T13:33:24Z</time>
      </trkpt>
      <trkpt lat="43.52647" lon="5.62826">
        <ele>507.23</ele>
        <time>2019-05-01T13:33:41Z</time>
      </trkpt>
      <trkpt lat="43.52641" lon="5.62834">
        <ele>504.83</ele>
        <time>2019-05-01T13:33:52Z</time>
      </trkpt>
      <trkpt lat="43.52641" lon="5.62848">
        <ele>502.43</ele>
        <time>2019-05-01T13:34:06Z</time>
      </trkpt>
      <trkpt lat="43.52641" lon="5.62849">
        <ele>504.35</ele>
        <time>2019-05-01T13:34:07Z</time>
      </trkpt>
      <trkpt lat="43.52641" lon="5.62864">
        <ele>500.5</ele>
        <time>2019-05-01T13:34:19Z</time>
      </trkpt>
      <trkpt lat="43.52641" lon="5.62868">
        <ele>500.5</ele>
        <time>2019-05-01T13:34:22Z</time>
      </trkpt>
      <trkpt lat="43.52642" lon="5.62881">
        <ele>500.5</ele>
        <time>2019-05-01T13:34:38Z</time>
      </trkpt>
      <trkpt lat="43.52644" lon="5.62892">
        <ele>499.06</ele>
        <time>2019-05-01T13:34:49Z</time>
      </trkpt>
      <trkpt lat="43.5265" lon="5.62906">
        <ele>498.1</ele>
        <time>2019-05-01T13:35:02Z</time>
      </trkpt>
      <trkpt lat="43.52653" lon="5.62903">
        <ele>497.62</ele>
        <time>2019-05-01T13:35:24Z</time>
      </trkpt>
      <trkpt lat="43.52653" lon="5.62902">
        <ele>496.18</ele>
        <time>2019-05-01T13:35:50Z</time>
      </trkpt>
      <trkpt lat="43.52653" lon="5.62902">
        <ele>498.1</ele>
        <time>2019-05-01T13:35:51Z</time>
      </trkpt>
      <trkpt lat="43.52653" lon="5.62903">
        <ele>500.02</ele>
        <time>2019-05-01T13:35:53Z</time>
      </trkpt>
      <trkpt lat="43.52654" lon="5.62903">
        <ele>498.58</ele>
        <time>2019-05-01T13:35:55Z</time>
      </trkpt>
      <trkpt lat="43.52653" lon="5.6291">
        <ele>497.62</ele>
        <time>2019-05-01T13:36:04Z</time>
      </trkpt>
      <trkpt lat="43.52651" lon="5.62914">
        <ele>496.66</ele>
        <time>2019-05-01T13:36:15Z</time>
      </trkpt>
      <trkpt lat="43.52652" lon="5.62934">
        <ele>492.81</ele>
        <time>2019-05-01T13:36:29Z</time>
      </trkpt>
      <trkpt lat="43.52653" lon="5.62941">
        <ele>491.85</ele>
        <time>2019-05-01T13:36:35Z</time>
      </trkpt>
      <trkpt lat="43.52649" lon="5.62957">
        <ele>488.49</ele>
        <time>2019-05-01T13:36:49Z</time>
      </trkpt>
      <trkpt lat="43.52649" lon="5.6296">
        <ele>488.01</ele>
        <time>2019-05-01T13:36:52Z</time>
      </trkpt>
      <trkpt lat="43.52646" lon="5.62973">
        <ele>485.6</ele>
        <time>2019-05-01T13:37:06Z</time>
      </trkpt>
      <trkpt lat="43.5265" lon="5.62987">
        <ele>484.64</ele>
        <time>2019-05-01T13:37:20Z</time>
      </trkpt>
      <trkpt lat="43.52645" lon="5.63001">
        <ele>482.72</ele>
        <time>2019-05-01T13:37:35Z</time>
      </trkpt>
      <trkpt lat="43.5264" lon="5.63019">
        <ele>481.76</ele>
        <time>2019-05-01T13:37:49Z</time>
      </trkpt>
      <trkpt lat="43.52638" lon="5.63025">
        <ele>481.76</ele>
        <time>2019-05-01T13:38:16Z</time>
      </trkpt>
      <trkpt lat="43.52637" lon="5.6303">
        <ele>480.32</ele>
        <time>2019-05-01T13:38:31Z</time>
      </trkpt>
      <trkpt lat="43.52635" lon="5.63035">
        <ele>479.35</ele>
        <time>2019-05-01T13:38:37Z</time>
      </trkpt>
      <trkpt lat="43.52629" lon="5.63059">
        <ele>475.99</ele>
        <time>2019-05-01T13:38:53Z</time>
      </trkpt>
      <trkpt lat="43.52622" lon="5.63071">
        <ele>474.55</ele>
        <time>2019-05-01T13:39:04Z</time>
      </trkpt>
      <trkpt lat="43.52614" lon="5.63087">
        <ele>471.66</ele>
        <time>2019-05-01T13:39:19Z</time>
      </trkpt>
      <trkpt lat="43.5261" lon="5.63098">
        <ele>469.26</ele>
        <time>2019-05-01T13:39:32Z</time>
      </trkpt>
      <trkpt lat="43.52609" lon="5.63104">
        <ele>471.18</ele>
        <time>2019-05-01T13:39:41Z</time>
      </trkpt>
      <trkpt lat="43.52605" lon="5.63118">
        <ele>468.3</ele>
        <time>2019-05-01T13:39:53Z</time>
      </trkpt>
      <trkpt lat="43.52608" lon="5.63127">
        <ele>467.82</ele>
        <time>2019-05-01T13:39:57Z</time>
      </trkpt>
      <trkpt lat="43.52604" lon="5.63123">
        <ele>467.82</ele>
        <time>2019-05-01T13:40:14Z</time>
      </trkpt>
      <trkpt lat="43.52601" lon="5.63123">
        <ele>467.82</ele>
        <time>2019-05-01T13:40:36Z</time>
      </trkpt>
      <trkpt lat="43.52602" lon="5.63123">
        <ele>469.26</ele>
        <time>2019-05-01T13:40:43Z</time>
      </trkpt>
      <trkpt lat="43.52604" lon="5.63122">
        <ele>468.78</ele>
        <time>2019-05-01T13:41:05Z</time>
      </trkpt>
      <trkpt lat="43.52604" lon="5.63124">
        <ele>468.78</ele>
        <time>2019-05-01T13:41:26Z</time>
      </trkpt>
      <trkpt lat="43.52606" lon="5.63128">
        <ele>468.3</ele>
        <time>2019-05-01T13:41:45Z</time>
      </trkpt>
      <trkpt lat="43.52604" lon="5.63131">
        <ele>468.3</ele>
        <time>2019-05-01T13:42:02Z</time>
      </trkpt>
      <trkpt lat="43.52604" lon="5.6313">
        <ele>465.9</ele>
        <time>2019-05-01T13:42:05Z</time>
      </trkpt>
      <trkpt lat="43.52604" lon="5.63131">
        <ele>467.34</ele>
        <time>2019-05-01T13:42:07Z</time>
      </trkpt>
      <trkpt lat="43.52604" lon="5.63132">
        <ele>466.86</ele>
        <time>2019-05-01T13:42:20Z</time>
      </trkpt>
      <trkpt lat="43.52604" lon="5.63133">
        <ele>465.9</ele>
        <time>2019-05-01T13:42:35Z</time>
      </trkpt>
      <trkpt lat="43.52602" lon="5.63136">
        <ele>467.34</ele>
        <time>2019-05-01T13:42:53Z</time>
      </trkpt>
      <trkpt lat="43.52602" lon="5.63137">
        <ele>465.9</ele>
        <time>2019-05-01T13:42:55Z</time>
      </trkpt>
      <trkpt lat="43.52603" lon="5.63138">
        <ele>465.42</ele>
        <time>2019-05-01T13:43:07Z</time>
      </trkpt>
      <trkpt lat="43.52602" lon="5.63145">
        <ele>463.97</ele>
        <time>2019-05-01T13:43:21Z</time>
      </trkpt>
      <trkpt lat="43.52603" lon="5.63145">
        <ele>465.42</ele>
        <time>2019-05-01T13:43:33Z</time>
      </trkpt>
      <trkpt lat="43.526" lon="5.63152">
        <ele>463.97</ele>
        <time>2019-05-01T13:43:44Z</time>
      </trkpt>
      <trkpt lat="43.52594" lon="5.63163">
        <ele>462.05</ele>
        <time>2019-05-01T13:43:57Z</time>
      </trkpt>
      <trkpt lat="43.52589" lon="5.63172">
        <ele>460.61</ele>
        <time>2019-05-01T13:44:11Z</time>
      </trkpt>
      <trkpt lat="43.5258" lon="5.63177">
        <ele>459.65</ele>
        <time>2019-05-01T13:44:27Z</time>
      </trkpt>
      <trkpt lat="43.52574" lon="5.63181">
        <ele>459.17</ele>
        <time>2019-05-01T13:44:44Z</time>
      </trkpt>
      <trkpt lat="43.52567" lon="5.63188">
        <ele>457.24</ele>
        <time>2019-05-01T13:44:57Z</time>
      </trkpt>
      <trkpt lat="43.52559" lon="5.63195">
        <ele>456.28</ele>
        <time>2019-05-01T13:45:09Z</time>
      </trkpt>
      <trkpt lat="43.52557" lon="5.63201">
        <ele>455.8</ele>
        <time>2019-05-01T13:45:17Z</time>
      </trkpt>
      <trkpt lat="43.52552" lon="5.63205">
        <ele>454.36</ele>
        <time>2019-05-01T13:45:26Z</time>
      </trkpt>
      <trkpt lat="43.52541" lon="5.6321">
        <ele>452.44</ele>
        <time>2019-05-01T13:45:39Z</time>
      </trkpt>
      <trkpt lat="43.52535" lon="5.63218">
        <ele>451.48</ele>
        <time>2019-05-01T13:45:51Z</time>
      </trkpt>
      <trkpt lat="43.52528" lon="5.63225">
        <ele>450.03</ele>
        <time>2019-05-01T13:46:04Z</time>
      </trkpt>
      <trkpt lat="43.52526" lon="5.63228">
        <ele>450.03</ele>
        <time>2019-05-01T13:46:08Z</time>
      </trkpt>
      <trkpt lat="43.52525" lon="5.63229">
        <ele>450.03</ele>
        <time>2019-05-01T13:46:11Z</time>
      </trkpt>
      <trkpt lat="43.52515" lon="5.63237">
        <ele>447.63</ele>
        <time>2019-05-01T13:46:27Z</time>
      </trkpt>
      <trkpt lat="43.5251" lon="5.63247">
        <ele>446.19</ele>
        <time>2019-05-01T13:46:40Z</time>
      </trkpt>
      <trkpt lat="43.52504" lon="5.63258">
        <ele>445.71</ele>
        <time>2019-05-01T13:46:55Z</time>
      </trkpt>
      <trkpt lat="43.52504" lon="5.63262">
        <ele>445.71</ele>
        <time>2019-05-01T13:47:01Z</time>
      </trkpt>
      <trkpt lat="43.52512" lon="5.63288">
        <ele>444.75</ele>
        <time>2019-05-01T13:47:13Z</time>
      </trkpt>
      <trkpt lat="43.52513" lon="5.63294">
        <ele>444.75</ele>
        <time>2019-05-01T13:47:35Z</time>
      </trkpt>
      <trkpt lat="43.52513" lon="5.63295">
        <ele>445.23</ele>
        <time>2019-05-01T13:47:52Z</time>
      </trkpt>
      <trkpt lat="43.52515" lon="5.63289">
        <ele>444.75</ele>
        <time>2019-05-01T13:48:23Z</time>
      </trkpt>
      <trkpt lat="43.52513" lon="5.63288">
        <ele>444.75</ele>
        <time>2019-05-01T13:48:57Z</time>
      </trkpt>
      <trkpt lat="43.5251" lon="5.63288">
        <ele>444.27</ele>
        <time>2019-05-01T13:49:13Z</time>
      </trkpt>
      <trkpt lat="43.52511" lon="5.63288">
        <ele>444.27</ele>
        <time>2019-05-01T13:49:48Z</time>
      </trkpt>
      <trkpt lat="43.52514" lon="5.63305">
        <ele>444.27</ele>
        <time>2019-05-01T13:49:54Z</time>
      </trkpt>
      <trkpt lat="43.52516" lon="5.63311">
        <ele>444.75</ele>
        <time>2019-05-01T13:49:55Z</time>
      </trkpt>
      <trkpt lat="43.52519" lon="5.63317">
        <ele>445.71</ele>
        <time>2019-05-01T13:49:56Z</time>
      </trkpt>
      <trkpt lat="43.52522" lon="5.63323">
        <ele>445.71</ele>
        <time>2019-05-01T13:49:57Z</time>
      </trkpt>
      <trkpt lat="43.52578" lon="5.63405">
        <ele>445.71</ele>
        <time>2019-05-01T13:50:07Z</time>
      </trkpt>
      <trkpt lat="43.52593" lon="5.63421">
        <ele>444.27</ele>
        <time>2019-05-01T13:50:09Z</time>
      </trkpt>
      <trkpt lat="43.52618" lon="5.63447">
        <ele>442.82</ele>
        <time>2019-05-01T13:50:12Z</time>
      </trkpt>
      <trkpt lat="43.52636" lon="5.63466">
        <ele>440.9</ele>
        <time>2019-05-01T13:50:14Z</time>
      </trkpt>
      <trkpt lat="43.52655" lon="5.63485">
        <ele>438.98</ele>
        <time>2019-05-01T13:50:16Z</time>
      </trkpt>
      <trkpt lat="43.52678" lon="5.63509">
        <ele>434.65</ele>
        <time>2019-05-01T13:50:19Z</time>
      </trkpt>
      <trkpt lat="43.52688" lon="5.6352">
        <ele>433.21</ele>
        <time>2019-05-01T13:50:21Z</time>
      </trkpt>
      <trkpt lat="43.527" lon="5.63532">
        <ele>434.17</ele>
        <time>2019-05-01T13:50:23Z</time>
      </trkpt>
      <trkpt lat="43.52706" lon="5.6354">
        <ele>432.73</ele>
        <time>2019-05-01T13:50:24Z</time>
      </trkpt>
      <trkpt lat="43.52713" lon="5.6355">
        <ele>432.73</ele>
        <time>2019-05-01T13:50:25Z</time>
      </trkpt>
      <trkpt lat="43.52719" lon="5.63561">
        <ele>434.17</ele>
        <time>2019-05-01T13:50:26Z</time>
      </trkpt>
      <trkpt lat="43.52724" lon="5.63572">
        <ele>434.17</ele>
        <time>2019-05-01T13:50:27Z</time>
      </trkpt>
      <trkpt lat="43.52729" lon="5.63584">
        <ele>434.17</ele>
        <time>2019-05-01T13:50:28Z</time>
      </trkpt>
      <trkpt lat="43.52734" lon="5.63597">
        <ele>434.17</ele>
        <time>2019-05-01T13:50:29Z</time>
      </trkpt>
      <trkpt lat="43.52737" lon="5.63611">
        <ele>434.17</ele>
        <time>2019-05-01T13:50:30Z</time>
      </trkpt>
      <trkpt lat="43.5274" lon="5.63625">
        <ele>434.17</ele>
        <time>2019-05-01T13:50:31Z</time>
      </trkpt>
      <trkpt lat="43.52742" lon="5.63639">
        <ele>432.25</ele>
        <time>2019-05-01T13:50:32Z</time>
      </trkpt>
      <trkpt lat="43.52747" lon="5.63686">
        <ele>436.1</ele>
        <time>2019-05-01T13:50:35Z</time>
      </trkpt>
      <trkpt lat="43.52749" lon="5.63702">
        <ele>436.1</ele>
        <time>2019-05-01T13:50:36Z</time>
      </trkpt>
      <trkpt lat="43.52761" lon="5.63815">
        <ele>436.1</ele>
        <time>2019-05-01T13:50:43Z</time>
      </trkpt>
      <trkpt lat="43.52761" lon="5.63832">
        <ele>436.1</ele>
        <time>2019-05-01T13:50:44Z</time>
      </trkpt>
      <trkpt lat="43.52759" lon="5.63848">
        <ele>438.02</ele>
        <time>2019-05-01T13:50:45Z</time>
      </trkpt>
      <trkpt lat="43.52753" lon="5.63915">
        <ele>437.54</ele>
        <time>2019-05-01T13:50:49Z</time>
      </trkpt>
      <trkpt lat="43.52752" lon="5.63983">
        <ele>435.61</ele>
        <time>2019-05-01T13:50:53Z</time>
      </trkpt>
      <trkpt lat="43.52763" lon="5.6409">
        <ele>432.73</ele>
        <time>2019-05-01T13:50:59Z</time>
      </trkpt>
      <trkpt lat="43.52768" lon="5.64131">
        <ele>429.37</ele>
        <time>2019-05-01T13:51:01Z</time>
      </trkpt>
      <trkpt lat="43.52771" lon="5.64151">
        <ele>429.37</ele>
        <time>2019-05-01T13:51:02Z</time>
      </trkpt>
      <trkpt lat="43.52776" lon="5.64189">
        <ele>426.48</ele>
        <time>2019-05-01T13:51:04Z</time>
      </trkpt>
      <trkpt lat="43.5278" lon="5.6422">
        <ele>423.12</ele>
        <time>2019-05-01T13:51:06Z</time>
      </trkpt>
      <trkpt lat="43.52784" lon="5.64253">
        <ele>421.68</ele>
        <time>2019-05-01T13:51:08Z</time>
      </trkpt>
      <trkpt lat="43.52785" lon="5.64286">
        <ele>420.23</ele>
        <time>2019-05-01T13:51:10Z</time>
      </trkpt>
      <trkpt lat="43.52784" lon="5.64302">
        <ele>420.23</ele>
        <time>2019-05-01T13:51:11Z</time>
      </trkpt>
      <trkpt lat="43.52757" lon="5.64506">
        <ele>421.68</ele>
        <time>2019-05-01T13:51:22Z</time>
      </trkpt>
      <trkpt lat="43.52723" lon="5.64647">
        <ele>425.52</ele>
        <time>2019-05-01T13:51:29Z</time>
      </trkpt>
      <trkpt lat="43.52717" lon="5.64667">
        <ele>425.52</ele>
        <time>2019-05-01T13:51:30Z</time>
      </trkpt>
      <trkpt lat="43.52704" lon="5.64704">
        <ele>424.08</ele>
        <time>2019-05-01T13:51:32Z</time>
      </trkpt>
      <trkpt lat="43.5269" lon="5.64741">
        <ele>426</ele>
        <time>2019-05-01T13:51:34Z</time>
      </trkpt>
      <trkpt lat="43.52674" lon="5.64773">
        <ele>427.44</ele>
        <time>2019-05-01T13:51:36Z</time>
      </trkpt>
      <trkpt lat="43.52635" lon="5.64853">
        <ele>425.04</ele>
        <time>2019-05-01T13:51:41Z</time>
      </trkpt>
      <trkpt lat="43.52609" lon="5.64926">
        <ele>421.68</ele>
        <time>2019-05-01T13:51:45Z</time>
      </trkpt>
      <trkpt lat="43.52603" lon="5.64945">
        <ele>421.68</ele>
        <time>2019-05-01T13:51:46Z</time>
      </trkpt>
      <trkpt lat="43.52589" lon="5.64983">
        <ele>420.23</ele>
        <time>2019-05-01T13:51:48Z</time>
      </trkpt>
      <trkpt lat="43.5257" lon="5.65036">
        <ele>416.39</ele>
        <time>2019-05-01T13:51:51Z</time>
      </trkpt>
      <trkpt lat="43.52559" lon="5.6507">
        <ele>412.54</ele>
        <time>2019-05-01T13:51:53Z</time>
      </trkpt>
      <trkpt lat="43.52549" lon="5.6514">
        <ele>410.14</ele>
        <time>2019-05-01T13:51:57Z</time>
      </trkpt>
      <trkpt lat="43.52546" lon="5.65199">
        <ele>407.74</ele>
        <time>2019-05-01T13:52:00Z</time>
      </trkpt>
      <trkpt lat="43.52544" lon="5.65241">
        <ele>406.29</ele>
        <time>2019-05-01T13:52:02Z</time>
      </trkpt>
      <trkpt lat="43.52542" lon="5.65323">
        <ele>403.89</ele>
        <time>2019-05-01T13:52:06Z</time>
      </trkpt>
      <trkpt lat="43.52535" lon="5.65405">
        <ele>399.57</ele>
        <time>2019-05-01T13:52:10Z</time>
      </trkpt>
      <trkpt lat="43.52531" lon="5.65423">
        <ele>401.01</ele>
        <time>2019-05-01T13:52:11Z</time>
      </trkpt>
      <trkpt lat="43.52525" lon="5.65441">
        <ele>401.01</ele>
        <time>2019-05-01T13:52:12Z</time>
      </trkpt>
      <trkpt lat="43.52511" lon="5.65476">
        <ele>399.08</ele>
        <time>2019-05-01T13:52:14Z</time>
      </trkpt>
      <trkpt lat="43.52486" lon="5.65547">
        <ele>397.16</ele>
        <time>2019-05-01T13:52:18Z</time>
      </trkpt>
      <trkpt lat="43.52482" lon="5.65567">
        <ele>394.76</ele>
        <time>2019-05-01T13:52:19Z</time>
      </trkpt>
      <trkpt lat="43.5248" lon="5.65587">
        <ele>394.76</ele>
        <time>2019-05-01T13:52:20Z</time>
      </trkpt>
      <trkpt lat="43.52472" lon="5.65714">
        <ele>391.39</ele>
        <time>2019-05-01T13:52:26Z</time>
      </trkpt>
      <trkpt lat="43.52471" lon="5.65736">
        <ele>391.39</ele>
        <time>2019-05-01T13:52:27Z</time>
      </trkpt>
      <trkpt lat="43.52465" lon="5.65805">
        <ele>389.47</ele>
        <time>2019-05-01T13:52:30Z</time>
      </trkpt>
      <trkpt lat="43.5246" lon="5.65828">
        <ele>388.51</ele>
        <time>2019-05-01T13:52:31Z</time>
      </trkpt>
      <trkpt lat="43.52454" lon="5.65849">
        <ele>388.51</ele>
        <time>2019-05-01T13:52:32Z</time>
      </trkpt>
      <trkpt lat="43.5244" lon="5.65889">
        <ele>390.43</ele>
        <time>2019-05-01T13:52:34Z</time>
      </trkpt>
      <trkpt lat="43.52423" lon="5.65925">
        <ele>387.55</ele>
        <time>2019-05-01T13:52:36Z</time>
      </trkpt>
      <trkpt lat="43.52405" lon="5.65959">
        <ele>389.47</ele>
        <time>2019-05-01T13:52:38Z</time>
      </trkpt>
      <trkpt lat="43.52397" lon="5.65976">
        <ele>387.55</ele>
        <time>2019-05-01T13:52:39Z</time>
      </trkpt>
      <trkpt lat="43.5239" lon="5.65994">
        <ele>388.03</ele>
        <time>2019-05-01T13:52:40Z</time>
      </trkpt>
      <trkpt lat="43.52385" lon="5.66018">
        <ele>387.07</ele>
        <time>2019-05-01T13:52:41Z</time>
      </trkpt>
      <trkpt lat="43.52384" lon="5.66037">
        <ele>385.63</ele>
        <time>2019-05-01T13:52:42Z</time>
      </trkpt>
      <trkpt lat="43.52384" lon="5.6606">
        <ele>387.55</ele>
        <time>2019-05-01T13:52:43Z</time>
      </trkpt>
      <trkpt lat="43.52385" lon="5.66079">
        <ele>387.07</ele>
        <time>2019-05-01T13:52:44Z</time>
      </trkpt>
      <trkpt lat="43.52391" lon="5.66168">
        <ele>382.74</ele>
        <time>2019-05-01T13:52:48Z</time>
      </trkpt>
      <trkpt lat="43.52398" lon="5.66248">
        <ele>379.86</ele>
        <time>2019-05-01T13:52:52Z</time>
      </trkpt>
      <trkpt lat="43.52417" lon="5.6636">
        <ele>377.45</ele>
        <time>2019-05-01T13:53:00Z</time>
      </trkpt>
      <trkpt lat="43.52418" lon="5.66374">
        <ele>373.61</ele>
        <time>2019-05-01T13:53:02Z</time>
      </trkpt>
      <trkpt lat="43.52419" lon="5.66381">
        <ele>373.61</ele>
        <time>2019-05-01T13:53:03Z</time>
      </trkpt>
      <trkpt lat="43.5242" lon="5.66399">
        <ele>373.61</ele>
        <time>2019-05-01T13:53:05Z</time>
      </trkpt>
      <trkpt lat="43.52419" lon="5.6641">
        <ele>373.61</ele>
        <time>2019-05-01T13:53:06Z</time>
      </trkpt>
      <trkpt lat="43.52412" lon="5.66514">
        <ele>370.73</ele>
        <time>2019-05-01T13:53:13Z</time>
      </trkpt>
      <trkpt lat="43.52408" lon="5.66569">
        <ele>368.32</ele>
        <time>2019-05-01T13:53:16Z</time>
      </trkpt>
      <trkpt lat="43.52403" lon="5.66677">
        <ele>366.4</ele>
        <time>2019-05-01T13:53:23Z</time>
      </trkpt>
      <trkpt lat="43.52401" lon="5.66779">
        <ele>362.55</ele>
        <time>2019-05-01T13:53:30Z</time>
      </trkpt>
      <trkpt lat="43.52398" lon="5.66865">
        <ele>359.19</ele>
        <time>2019-05-01T13:53:37Z</time>
      </trkpt>
      <trkpt lat="43.52407" lon="5.6697">
        <ele>359.19</ele>
        <time>2019-05-01T13:53:46Z</time>
      </trkpt>
      <trkpt lat="43.52415" lon="5.66997">
        <ele>356.79</ele>
        <time>2019-05-01T13:53:48Z</time>
      </trkpt>
      <trkpt lat="43.52437" lon="5.67058">
        <ele>353.9</ele>
        <time>2019-05-01T13:53:53Z</time>
      </trkpt>
      <trkpt lat="43.52439" lon="5.67066">
        <ele>353.9</ele>
        <time>2019-05-01T13:53:54Z</time>
      </trkpt>
      <trkpt lat="43.52441" lon="5.67071">
        <ele>352.46</ele>
        <time>2019-05-01T13:53:55Z</time>
      </trkpt>
      <trkpt lat="43.52442" lon="5.67076">
        <ele>351.5</ele>
        <time>2019-05-01T13:53:56Z</time>
      </trkpt>
      <trkpt lat="43.52442" lon="5.67079">
        <ele>350.54</ele>
        <time>2019-05-01T13:53:57Z</time>
      </trkpt>
      <trkpt lat="43.52441" lon="5.67082">
        <ele>350.06</ele>
        <time>2019-05-01T13:54:00Z</time>
      </trkpt>
      <trkpt lat="43.52439" lon="5.67083">
        <ele>350.06</ele>
        <time>2019-05-01T13:54:01Z</time>
      </trkpt>
      <trkpt lat="43.52435" lon="5.67081">
        <ele>350.06</ele>
        <time>2019-05-01T13:54:02Z</time>
      </trkpt>
      <trkpt lat="43.52431" lon="5.67076">
        <ele>350.06</ele>
        <time>2019-05-01T13:54:03Z</time>
      </trkpt>
      <trkpt lat="43.52427" lon="5.67071">
        <ele>351.5</ele>
        <time>2019-05-01T13:54:04Z</time>
      </trkpt>
      <trkpt lat="43.52375" lon="5.67002">
        <ele>350.06</ele>
        <time>2019-05-01T13:54:12Z</time>
      </trkpt>
      <trkpt lat="43.52348" lon="5.66966">
        <ele>346.69</ele>
        <time>2019-05-01T13:54:16Z</time>
      </trkpt>
      <trkpt lat="43.52338" lon="5.66953">
        <ele>345.73</ele>
        <time>2019-05-01T13:54:18Z</time>
      </trkpt>
      <trkpt lat="43.52277" lon="5.66875">
        <ele>344.29</ele>
        <time>2019-05-01T13:54:26Z</time>
      </trkpt>
      <trkpt lat="43.52225" lon="5.66825">
        <ele>346.69</ele>
        <time>2019-05-01T13:54:31Z</time>
      </trkpt>
      <trkpt lat="43.52106" lon="5.66722">
        <ele>349.1</ele>
        <time>2019-05-01T13:54:41Z</time>
      </trkpt>
      <trkpt lat="43.52031" lon="5.66655">
        <ele>351.02</ele>
        <time>2019-05-01T13:54:47Z</time>
      </trkpt>
      <trkpt lat="43.52009" lon="5.66632">
        <ele>351.02</ele>
        <time>2019-05-01T13:54:49Z</time>
      </trkpt>
      <trkpt lat="43.51999" lon="5.66617">
        <ele>349.58</ele>
        <time>2019-05-01T13:54:50Z</time>
      </trkpt>
      <trkpt lat="43.5199" lon="5.66602">
        <ele>351.02</ele>
        <time>2019-05-01T13:54:51Z</time>
      </trkpt>
      <trkpt lat="43.51983" lon="5.66586">
        <ele>351.5</ele>
        <time>2019-05-01T13:54:52Z</time>
      </trkpt>
      <trkpt lat="43.51975" lon="5.66567">
        <ele>351.5</ele>
        <time>2019-05-01T13:54:53Z</time>
      </trkpt>
      <trkpt lat="43.51936" lon="5.66477">
        <ele>352.46</ele>
        <time>2019-05-01T13:54:58Z</time>
      </trkpt>
      <trkpt lat="43.51925" lon="5.6646">
        <ele>352.46</ele>
        <time>2019-05-01T13:54:59Z</time>
      </trkpt>
      <trkpt lat="43.51914" lon="5.66445">
        <ele>352.46</ele>
        <time>2019-05-01T13:55:00Z</time>
      </trkpt>
      <trkpt lat="43.51901" lon="5.66432">
        <ele>352.46</ele>
        <time>2019-05-01T13:55:01Z</time>
      </trkpt>
      <trkpt lat="43.51889" lon="5.66419">
        <ele>352.46</ele>
        <time>2019-05-01T13:55:02Z</time>
      </trkpt>
      <trkpt lat="43.51857" lon="5.66387">
        <ele>348.62</ele>
        <time>2019-05-01T13:55:05Z</time>
      </trkpt>
      <trkpt lat="43.51849" lon="5.66378">
        <ele>345.25</ele>
        <time>2019-05-01T13:55:06Z</time>
      </trkpt>
      <trkpt lat="43.51842" lon="5.6637">
        <ele>346.69</ele>
        <time>2019-05-01T13:55:07Z</time>
      </trkpt>
      <trkpt lat="43.5183" lon="5.66357">
        <ele>344.29</ele>
        <time>2019-05-01T13:55:09Z</time>
      </trkpt>
      <trkpt lat="43.51825" lon="5.66354">
        <ele>343.81</ele>
        <time>2019-05-01T13:55:10Z</time>
      </trkpt>
      <trkpt lat="43.5182" lon="5.66354">
        <ele>343.33</ele>
        <time>2019-05-01T13:55:11Z</time>
      </trkpt>
      <trkpt lat="43.51814" lon="5.66358">
        <ele>343.33</ele>
        <time>2019-05-01T13:55:12Z</time>
      </trkpt>
      <trkpt lat="43.5181" lon="5.66362">
        <ele>343.33</ele>
        <time>2019-05-01T13:55:13Z</time>
      </trkpt>
      <trkpt lat="43.51804" lon="5.66368">
        <ele>343.33</ele>
        <time>2019-05-01T13:55:14Z</time>
      </trkpt>
      <trkpt lat="43.5176" lon="5.66399">
        <ele>341.89</ele>
        <time>2019-05-01T13:55:20Z</time>
      </trkpt>
      <trkpt lat="43.51712" lon="5.66424">
        <ele>340.92</ele>
        <time>2019-05-01T13:55:26Z</time>
      </trkpt>
      <trkpt lat="43.51652" lon="5.66489">
        <ele>337.56</ele>
        <time>2019-05-01T13:55:34Z</time>
      </trkpt>
      <trkpt lat="43.51645" lon="5.66498">
        <ele>337.56</ele>
        <time>2019-05-01T13:55:35Z</time>
      </trkpt>
      <trkpt lat="43.51599" lon="5.6656">
        <ele>334.68</ele>
        <time>2019-05-01T13:55:42Z</time>
      </trkpt>
      <trkpt lat="43.51587" lon="5.66577">
        <ele>336.6</ele>
        <time>2019-05-01T13:55:44Z</time>
      </trkpt>
      <trkpt lat="43.51567" lon="5.66603">
        <ele>334.68</ele>
        <time>2019-05-01T13:55:47Z</time>
      </trkpt>
      <trkpt lat="43.51504" lon="5.66686">
        <ele>331.31</ele>
        <time>2019-05-01T13:55:56Z</time>
      </trkpt>
      <trkpt lat="43.51476" lon="5.66723">
        <ele>330.35</ele>
        <time>2019-05-01T13:56:00Z</time>
      </trkpt>
      <trkpt lat="43.51441" lon="5.66767">
        <ele>330.83</ele>
        <time>2019-05-01T13:56:05Z</time>
      </trkpt>
      <trkpt lat="43.5142" lon="5.66794">
        <ele>326.99</ele>
        <time>2019-05-01T13:56:08Z</time>
      </trkpt>
      <trkpt lat="43.51393" lon="5.66829">
        <ele>326.5</ele>
        <time>2019-05-01T13:56:12Z</time>
      </trkpt>
      <trkpt lat="43.51353" lon="5.66882">
        <ele>325.06</ele>
        <time>2019-05-01T13:56:18Z</time>
      </trkpt>
      <trkpt lat="43.51324" lon="5.6692">
        <ele>321.7</ele>
        <time>2019-05-01T13:56:22Z</time>
      </trkpt>
      <trkpt lat="43.51279" lon="5.6698">
        <ele>320.26</ele>
        <time>2019-05-01T13:56:28Z</time>
      </trkpt>
      <trkpt lat="43.51256" lon="5.6701">
        <ele>318.81</ele>
        <time>2019-05-01T13:56:31Z</time>
      </trkpt>
      <trkpt lat="43.51243" lon="5.67028">
        <ele>318.81</ele>
        <time>2019-05-01T13:56:33Z</time>
      </trkpt>
      <trkpt lat="43.51236" lon="5.67034">
        <ele>315.93</ele>
        <time>2019-05-01T13:56:34Z</time>
      </trkpt>
      <trkpt lat="43.51228" lon="5.67037">
        <ele>314.49</ele>
        <time>2019-05-01T13:56:35Z</time>
      </trkpt>
      <trkpt lat="43.51219" lon="5.67039">
        <ele>316.89</ele>
        <time>2019-05-01T13:56:36Z</time>
      </trkpt>
      <trkpt lat="43.51207" lon="5.67038">
        <ele>314.97</ele>
        <time>2019-05-01T13:56:37Z</time>
      </trkpt>
      <trkpt lat="43.51198" lon="5.67037">
        <ele>314.97</ele>
        <time>2019-05-01T13:56:38Z</time>
      </trkpt>
      <trkpt lat="43.51153" lon="5.67027">
        <ele>313.53</ele>
        <time>2019-05-01T13:56:42Z</time>
      </trkpt>
      <trkpt lat="43.51141" lon="5.67024">
        <ele>317.37</ele>
        <time>2019-05-01T13:56:43Z</time>
      </trkpt>
      <trkpt lat="43.51129" lon="5.67022">
        <ele>314.97</ele>
        <time>2019-05-01T13:56:44Z</time>
      </trkpt>
      <trkpt lat="43.51082" lon="5.67012">
        <ele>315.93</ele>
        <time>2019-05-01T13:56:48Z</time>
      </trkpt>
      <trkpt lat="43.51058" lon="5.67008">
        <ele>314.49</ele>
        <time>2019-05-01T13:56:50Z</time>
      </trkpt>
      <trkpt lat="43.51023" lon="5.67004">
        <ele>313.05</ele>
        <time>2019-05-01T13:56:53Z</time>
      </trkpt>
      <trkpt lat="43.50915" lon="5.66971">
        <ele>309.68</ele>
        <time>2019-05-01T13:57:03Z</time>
      </trkpt>
      <trkpt lat="43.50875" lon="5.66956">
        <ele>310.16</ele>
        <time>2019-05-01T13:57:07Z</time>
      </trkpt>
      <trkpt lat="43.50807" lon="5.66949">
        <ele>310.16</ele>
        <time>2019-05-01T13:57:13Z</time>
      </trkpt>
      <trkpt lat="43.50776" lon="5.66953">
        <ele>309.68</ele>
        <time>2019-05-01T13:57:16Z</time>
      </trkpt>
      <trkpt lat="43.50766" lon="5.66952">
        <ele>309.68</ele>
        <time>2019-05-01T13:57:17Z</time>
      </trkpt>
      <trkpt lat="43.50746" lon="5.6695">
        <ele>310.64</ele>
        <time>2019-05-01T13:57:19Z</time>
      </trkpt>
      <trkpt lat="43.50736" lon="5.66951">
        <ele>307.76</ele>
        <time>2019-05-01T13:57:20Z</time>
      </trkpt>
      <trkpt lat="43.50725" lon="5.66953">
        <ele>310.16</ele>
        <time>2019-05-01T13:57:21Z</time>
      </trkpt>
      <trkpt lat="43.50714" lon="5.66956">
        <ele>306.8</ele>
        <time>2019-05-01T13:57:22Z</time>
      </trkpt>
      <trkpt lat="43.50623" lon="5.66982">
        <ele>308.24</ele>
        <time>2019-05-01T13:57:30Z</time>
      </trkpt>
      <trkpt lat="43.50612" lon="5.66982">
        <ele>308.24</ele>
        <time>2019-05-01T13:57:31Z</time>
      </trkpt>
      <trkpt lat="43.50601" lon="5.6698">
        <ele>306.32</ele>
        <time>2019-05-01T13:57:32Z</time>
      </trkpt>
      <trkpt lat="43.50589" lon="5.66975">
        <ele>306.32</ele>
        <time>2019-05-01T13:57:33Z</time>
      </trkpt>
      <trkpt lat="43.50578" lon="5.6697">
        <ele>305.36</ele>
        <time>2019-05-01T13:57:34Z</time>
      </trkpt>
      <trkpt lat="43.50487" lon="5.66962">
        <ele>305.36</ele>
        <time>2019-05-01T13:57:41Z</time>
      </trkpt>
      <trkpt lat="43.50474" lon="5.66962">
        <ele>307.76</ele>
        <time>2019-05-01T13:57:42Z</time>
      </trkpt>
      <trkpt lat="43.50396" lon="5.66954">
        <ele>306.32</ele>
        <time>2019-05-01T13:57:48Z</time>
      </trkpt>
      <trkpt lat="43.50344" lon="5.66957">
        <ele>309.68</ele>
        <time>2019-05-01T13:57:52Z</time>
      </trkpt>
      <trkpt lat="43.50332" lon="5.66957">
        <ele>309.68</ele>
        <time>2019-05-01T13:57:53Z</time>
      </trkpt>
      <trkpt lat="43.50321" lon="5.66955">
        <ele>311.6</ele>
        <time>2019-05-01T13:57:54Z</time>
      </trkpt>
      <trkpt lat="43.50311" lon="5.66952">
        <ele>311.6</ele>
        <time>2019-05-01T13:57:55Z</time>
      </trkpt>
      <trkpt lat="43.503" lon="5.66948">
        <ele>310.16</ele>
        <time>2019-05-01T13:57:56Z</time>
      </trkpt>
      <trkpt lat="43.50289" lon="5.66941">
        <ele>314.49</ele>
        <time>2019-05-01T13:57:57Z</time>
      </trkpt>
      <trkpt lat="43.50279" lon="5.66934">
        <ele>311.6</ele>
        <time>2019-05-01T13:57:58Z</time>
      </trkpt>
      <trkpt lat="43.50268" lon="5.66924">
        <ele>311.6</ele>
        <time>2019-05-01T13:57:59Z</time>
      </trkpt>
      <trkpt lat="43.50259" lon="5.66914">
        <ele>311.6</ele>
        <time>2019-05-01T13:58:00Z</time>
      </trkpt>
      <trkpt lat="43.5025" lon="5.66903">
        <ele>311.12</ele>
        <time>2019-05-01T13:58:01Z</time>
      </trkpt>
      <trkpt lat="43.50223" lon="5.66876">
        <ele>310.64</ele>
        <time>2019-05-01T13:58:04Z</time>
      </trkpt>
      <trkpt lat="43.50213" lon="5.6687">
        <ele>310.64</ele>
        <time>2019-05-01T13:58:05Z</time>
      </trkpt>
      <trkpt lat="43.50203" lon="5.66867">
        <ele>308.72</ele>
        <time>2019-05-01T13:58:06Z</time>
      </trkpt>
      <trkpt lat="43.50192" lon="5.66868">
        <ele>307.28</ele>
        <time>2019-05-01T13:58:07Z</time>
      </trkpt>
      <trkpt lat="43.50181" lon="5.6687">
        <ele>306.8</ele>
        <time>2019-05-01T13:58:08Z</time>
      </trkpt>
      <trkpt lat="43.5017" lon="5.66875">
        <ele>310.16</ele>
        <time>2019-05-01T13:58:09Z</time>
      </trkpt>
      <trkpt lat="43.5016" lon="5.66879">
        <ele>310.16</ele>
        <time>2019-05-01T13:58:10Z</time>
      </trkpt>
      <trkpt lat="43.50148" lon="5.66883">
        <ele>306.32</ele>
        <time>2019-05-01T13:58:11Z</time>
      </trkpt>
      <trkpt lat="43.50138" lon="5.66887">
        <ele>308.24</ele>
        <time>2019-05-01T13:58:12Z</time>
      </trkpt>
      <trkpt lat="43.50106" lon="5.66895">
        <ele>306.8</ele>
        <time>2019-05-01T13:58:15Z</time>
      </trkpt>
      <trkpt lat="43.50094" lon="5.66896">
        <ele>308.72</ele>
        <time>2019-05-01T13:58:16Z</time>
      </trkpt>
      <trkpt lat="43.49976" lon="5.66884">
        <ele>306.32</ele>
        <time>2019-05-01T13:58:25Z</time>
      </trkpt>
      <trkpt lat="43.49964" lon="5.6688">
        <ele>306.32</ele>
        <time>2019-05-01T13:58:26Z</time>
      </trkpt>
      <trkpt lat="43.49952" lon="5.66874">
        <ele>306.32</ele>
        <time>2019-05-01T13:58:27Z</time>
      </trkpt>
      <trkpt lat="43.4994" lon="5.66866">
        <ele>307.76</ele>
        <time>2019-05-01T13:58:28Z</time>
      </trkpt>
      <trkpt lat="43.49928" lon="5.66855">
        <ele>306.32</ele>
        <time>2019-05-01T13:58:29Z</time>
      </trkpt>
      <trkpt lat="43.49917" lon="5.66844">
        <ele>306.32</ele>
        <time>2019-05-01T13:58:30Z</time>
      </trkpt>
      <trkpt lat="43.49769" lon="5.66696">
        <ele>301.99</ele>
        <time>2019-05-01T13:58:43Z</time>
      </trkpt>
      <trkpt lat="43.49758" lon="5.66687">
        <ele>301.99</ele>
        <time>2019-05-01T13:58:44Z</time>
      </trkpt>
      <trkpt lat="43.49727" lon="5.66656">
        <ele>300.55</ele>
        <time>2019-05-01T13:58:47Z</time>
      </trkpt>
      <trkpt lat="43.49719" lon="5.66644">
        <ele>298.63</ele>
        <time>2019-05-01T13:58:48Z</time>
      </trkpt>
      <trkpt lat="43.49702" lon="5.66619">
        <ele>297.18</ele>
        <time>2019-05-01T13:58:50Z</time>
      </trkpt>
      <trkpt lat="43.49683" lon="5.66595">
        <ele>298.63</ele>
        <time>2019-05-01T13:58:52Z</time>
      </trkpt>
      <trkpt lat="43.4964" lon="5.66547">
        <ele>296.22</ele>
        <time>2019-05-01T13:58:56Z</time>
      </trkpt>
      <trkpt lat="43.49608" lon="5.66511">
        <ele>292.38</ele>
        <time>2019-05-01T13:58:59Z</time>
      </trkpt>
      <trkpt lat="43.49566" lon="5.66466">
        <ele>289.01</ele>
        <time>2019-05-01T13:59:03Z</time>
      </trkpt>
      <trkpt lat="43.49555" lon="5.66457">
        <ele>289.01</ele>
        <time>2019-05-01T13:59:04Z</time>
      </trkpt>
      <trkpt lat="43.49542" lon="5.6645">
        <ele>289.01</ele>
        <time>2019-05-01T13:59:05Z</time>
      </trkpt>
      <trkpt lat="43.49489" lon="5.66427">
        <ele>291.9</ele>
        <time>2019-05-01T13:59:09Z</time>
      </trkpt>
      <trkpt lat="43.49463" lon="5.6642">
        <ele>292.86</ele>
        <time>2019-05-01T13:59:11Z</time>
      </trkpt>
      <trkpt lat="43.49439" lon="5.66412">
        <ele>294.3</ele>
        <time>2019-05-01T13:59:13Z</time>
      </trkpt>
      <trkpt lat="43.49428" lon="5.66405">
        <ele>291.9</ele>
        <time>2019-05-01T13:59:14Z</time>
      </trkpt>
      <trkpt lat="43.49419" lon="5.66394">
        <ele>294.3</ele>
        <time>2019-05-01T13:59:15Z</time>
      </trkpt>
      <trkpt lat="43.49411" lon="5.66381">
        <ele>295.26</ele>
        <time>2019-05-01T13:59:16Z</time>
      </trkpt>
      <trkpt lat="43.49404" lon="5.66366">
        <ele>295.26</ele>
        <time>2019-05-01T13:59:17Z</time>
      </trkpt>
      <trkpt lat="43.49398" lon="5.6635">
        <ele>295.26</ele>
        <time>2019-05-01T13:59:18Z</time>
      </trkpt>
      <trkpt lat="43.49363" lon="5.66267">
        <ele>297.67</ele>
        <time>2019-05-01T13:59:23Z</time>
      </trkpt>
      <trkpt lat="43.49354" lon="5.66252">
        <ele>299.11</ele>
        <time>2019-05-01T13:59:24Z</time>
      </trkpt>
      <trkpt lat="43.49345" lon="5.66239">
        <ele>297.67</ele>
        <time>2019-05-01T13:59:25Z</time>
      </trkpt>
      <trkpt lat="43.49335" lon="5.66227">
        <ele>302.47</ele>
        <time>2019-05-01T13:59:26Z</time>
      </trkpt>
      <trkpt lat="43.49325" lon="5.66215">
        <ele>301.51</ele>
        <time>2019-05-01T13:59:27Z</time>
      </trkpt>
      <trkpt lat="43.49314" lon="5.66206">
        <ele>301.51</ele>
        <time>2019-05-01T13:59:28Z</time>
      </trkpt>
      <trkpt lat="43.49302" lon="5.66199">
        <ele>303.91</ele>
        <time>2019-05-01T13:59:29Z</time>
      </trkpt>
      <trkpt lat="43.4929" lon="5.66195">
        <ele>307.28</ele>
        <time>2019-05-01T13:59:30Z</time>
      </trkpt>
      <trkpt lat="43.49277" lon="5.66192">
        <ele>305.36</ele>
        <time>2019-05-01T13:59:31Z</time>
      </trkpt>
      <trkpt lat="43.49266" lon="5.66188">
        <ele>303.91</ele>
        <time>2019-05-01T13:59:32Z</time>
      </trkpt>
      <trkpt lat="43.49254" lon="5.66179">
        <ele>301.99</ele>
        <time>2019-05-01T13:59:33Z</time>
      </trkpt>
      <trkpt lat="43.49245" lon="5.66169">
        <ele>303.91</ele>
        <time>2019-05-01T13:59:34Z</time>
      </trkpt>
      <trkpt lat="43.49236" lon="5.66156">
        <ele>301.99</ele>
        <time>2019-05-01T13:59:35Z</time>
      </trkpt>
      <trkpt lat="43.49227" lon="5.66141">
        <ele>301.99</ele>
        <time>2019-05-01T13:59:36Z</time>
      </trkpt>
      <trkpt lat="43.4921" lon="5.66112">
        <ele>302.95</ele>
        <time>2019-05-01T13:59:38Z</time>
      </trkpt>
      <trkpt lat="43.49176" lon="5.66053">
        <ele>299.59</ele>
        <time>2019-05-01T13:59:42Z</time>
      </trkpt>
      <trkpt lat="43.49168" lon="5.66038">
        <ele>299.59</ele>
        <time>2019-05-01T13:59:43Z</time>
      </trkpt>
      <trkpt lat="43.49155" lon="5.66012">
        <ele>294.3</ele>
        <time>2019-05-01T13:59:45Z</time>
      </trkpt>
      <trkpt lat="43.49149" lon="5.66002">
        <ele>294.78</ele>
        <time>2019-05-01T13:59:46Z</time>
      </trkpt>
      <trkpt lat="43.4914" lon="5.65984">
        <ele>291.9</ele>
        <time>2019-05-01T13:59:48Z</time>
      </trkpt>
      <trkpt lat="43.49137" lon="5.65978">
        <ele>290.46</ele>
        <time>2019-05-01T13:59:49Z</time>
      </trkpt>
      <trkpt lat="43.49134" lon="5.65975">
        <ele>290.46</ele>
        <time>2019-05-01T13:59:50Z</time>
      </trkpt>
      <trkpt lat="43.49132" lon="5.65974">
        <ele>290.46</ele>
        <time>2019-05-01T13:59:51Z</time>
      </trkpt>
      <trkpt lat="43.49129" lon="5.65973">
        <ele>289.49</ele>
        <time>2019-05-01T13:59:54Z</time>
      </trkpt>
      <trkpt lat="43.49126" lon="5.65975">
        <ele>288.53</ele>
        <time>2019-05-01T13:59:55Z</time>
      </trkpt>
      <trkpt lat="43.49122" lon="5.65981">
        <ele>288.53</ele>
        <time>2019-05-01T13:59:56Z</time>
      </trkpt>
      <trkpt lat="43.49119" lon="5.65991">
        <ele>288.53</ele>
        <time>2019-05-01T13:59:57Z</time>
      </trkpt>
      <trkpt lat="43.49117" lon="5.66004">
        <ele>289.49</ele>
        <time>2019-05-01T13:59:58Z</time>
      </trkpt>
      <trkpt lat="43.49114" lon="5.66022">
        <ele>289.97</ele>
        <time>2019-05-01T13:59:59Z</time>
      </trkpt>
      <trkpt lat="43.49106" lon="5.66068">
        <ele>293.82</ele>
        <time>2019-05-01T14:00:01Z</time>
      </trkpt>
      <trkpt lat="43.49094" lon="5.66122">
        <ele>297.18</ele>
        <time>2019-05-01T14:00:03Z</time>
      </trkpt>
      <trkpt lat="43.49078" lon="5.66181">
        <ele>298.63</ele>
        <time>2019-05-01T14:00:05Z</time>
      </trkpt>
      <trkpt lat="43.49046" lon="5.66292">
        <ele>296.7</ele>
        <time>2019-05-01T14:00:09Z</time>
      </trkpt>
      <trkpt lat="43.49004" lon="5.66435">
        <ele>294.78</ele>
        <time>2019-05-01T14:00:15Z</time>
      </trkpt>
      <trkpt lat="43.4897" lon="5.66553">
        <ele>295.74</ele>
        <time>2019-05-01T14:00:20Z</time>
      </trkpt>
      <trkpt lat="43.48949" lon="5.66624">
        <ele>292.38</ele>
        <time>2019-05-01T14:00:23Z</time>
      </trkpt>
      <trkpt lat="43.48943" lon="5.66647">
        <ele>292.38</ele>
        <time>2019-05-01T14:00:24Z</time>
      </trkpt>
      <trkpt lat="43.48895" lon="5.66811">
        <ele>289.49</ele>
        <time>2019-05-01T14:00:31Z</time>
      </trkpt>
      <trkpt lat="43.48826" lon="5.67019">
        <ele>285.65</ele>
        <time>2019-05-01T14:00:40Z</time>
      </trkpt>
      <trkpt lat="43.48761" lon="5.67149">
        <ele>290.46</ele>
        <time>2019-05-01T14:00:46Z</time>
      </trkpt>
      <trkpt lat="43.48749" lon="5.67169">
        <ele>285.17</ele>
        <time>2019-05-01T14:00:47Z</time>
      </trkpt>
      <trkpt lat="43.48727" lon="5.67213">
        <ele>283.25</ele>
        <time>2019-05-01T14:00:49Z</time>
      </trkpt>
      <trkpt lat="43.48717" lon="5.67236">
        <ele>279.88</ele>
        <time>2019-05-01T14:00:50Z</time>
      </trkpt>
      <trkpt lat="43.48708" lon="5.6726">
        <ele>281.8</ele>
        <time>2019-05-01T14:00:51Z</time>
      </trkpt>
      <trkpt lat="43.48679" lon="5.67337">
        <ele>277.48</ele>
        <time>2019-05-01T14:00:54Z</time>
      </trkpt>
      <trkpt lat="43.48662" lon="5.67388">
        <ele>277</ele>
        <time>2019-05-01T14:00:56Z</time>
      </trkpt>
      <trkpt lat="43.48636" lon="5.67468">
        <ele>280.36</ele>
        <time>2019-05-01T14:00:59Z</time>
      </trkpt>
      <trkpt lat="43.48628" lon="5.67494">
        <ele>279.88</ele>
        <time>2019-05-01T14:01:00Z</time>
      </trkpt>
      <trkpt lat="43.48612" lon="5.67549">
        <ele>278.92</ele>
        <time>2019-05-01T14:01:02Z</time>
      </trkpt>
      <trkpt lat="43.48578" lon="5.67662">
        <ele>275.07</ele>
        <time>2019-05-01T14:01:06Z</time>
      </trkpt>
      <trkpt lat="43.48553" lon="5.67749">
        <ele>271.23</ele>
        <time>2019-05-01T14:01:09Z</time>
      </trkpt>
      <trkpt lat="43.48545" lon="5.67777">
        <ele>271.71</ele>
        <time>2019-05-01T14:01:10Z</time>
      </trkpt>
      <trkpt lat="43.48529" lon="5.67835">
        <ele>277</ele>
        <time>2019-05-01T14:01:12Z</time>
      </trkpt>
      <trkpt lat="43.4852" lon="5.67863">
        <ele>275.56</ele>
        <time>2019-05-01T14:01:13Z</time>
      </trkpt>
      <trkpt lat="43.4848" lon="5.68008">
        <ele>271.71</ele>
        <time>2019-05-01T14:01:18Z</time>
      </trkpt>
      <trkpt lat="43.48464" lon="5.68065">
        <ele>268.35</ele>
        <time>2019-05-01T14:01:20Z</time>
      </trkpt>
      <trkpt lat="43.48456" lon="5.68094">
        <ele>268.35</ele>
        <time>2019-05-01T14:01:21Z</time>
      </trkpt>
      <trkpt lat="43.48434" lon="5.68182">
        <ele>272.67</ele>
        <time>2019-05-01T14:01:24Z</time>
      </trkpt>
      <trkpt lat="43.48422" lon="5.6824">
        <ele>275.07</ele>
        <time>2019-05-01T14:01:26Z</time>
      </trkpt>
      <trkpt lat="43.48409" lon="5.68298">
        <ele>272.67</ele>
        <time>2019-05-01T14:01:28Z</time>
      </trkpt>
      <trkpt lat="43.48375" lon="5.6846">
        <ele>268.83</ele>
        <time>2019-05-01T14:01:34Z</time>
      </trkpt>
      <trkpt lat="43.48335" lon="5.6865">
        <ele>273.15</ele>
        <time>2019-05-01T14:01:42Z</time>
      </trkpt>
      <trkpt lat="43.48331" lon="5.68676">
        <ele>272.67</ele>
        <time>2019-05-01T14:01:43Z</time>
      </trkpt>
      <trkpt lat="43.48323" lon="5.68753">
        <ele>270.27</ele>
        <time>2019-05-01T14:01:46Z</time>
      </trkpt>
      <trkpt lat="43.48309" lon="5.6907">
        <ele>270.75</ele>
        <time>2019-05-01T14:01:57Z</time>
      </trkpt>
      <trkpt lat="43.4831" lon="5.69268">
        <ele>270.27</ele>
        <time>2019-05-01T14:02:04Z</time>
      </trkpt>
      <trkpt lat="43.4831" lon="5.69295">
        <ele>266.42</ele>
        <time>2019-05-01T14:02:05Z</time>
      </trkpt>
      <trkpt lat="43.48311" lon="5.69322">
        <ele>266.42</ele>
        <time>2019-05-01T14:02:06Z</time>
      </trkpt>
      <trkpt lat="43.48315" lon="5.69403">
        <ele>263.54</ele>
        <time>2019-05-01T14:02:09Z</time>
      </trkpt>
      <trkpt lat="43.4832" lon="5.69556">
        <ele>261.62</ele>
        <time>2019-05-01T14:02:15Z</time>
      </trkpt>
      <trkpt lat="43.48316" lon="5.69581">
        <ele>261.62</ele>
        <time>2019-05-01T14:02:16Z</time>
      </trkpt>
      <trkpt lat="43.48311" lon="5.69606">
        <ele>264.5</ele>
        <time>2019-05-01T14:02:17Z</time>
      </trkpt>
      <trkpt lat="43.48303" lon="5.6963">
        <ele>263.06</ele>
        <time>2019-05-01T14:02:18Z</time>
      </trkpt>
      <trkpt lat="43.48232" lon="5.6984">
        <ele>260.17</ele>
        <time>2019-05-01T14:02:27Z</time>
      </trkpt>
      <trkpt lat="43.48221" lon="5.69883">
        <ele>256.81</ele>
        <time>2019-05-01T14:02:29Z</time>
      </trkpt>
      <trkpt lat="43.48216" lon="5.69906">
        <ele>256.81</ele>
        <time>2019-05-01T14:02:30Z</time>
      </trkpt>
      <trkpt lat="43.48214" lon="5.69932">
        <ele>257.77</ele>
        <time>2019-05-01T14:02:31Z</time>
      </trkpt>
      <trkpt lat="43.48214" lon="5.69955">
        <ele>258.73</ele>
        <time>2019-05-01T14:02:32Z</time>
      </trkpt>
      <trkpt lat="43.48214" lon="5.69978">
        <ele>259.21</ele>
        <time>2019-05-01T14:02:33Z</time>
      </trkpt>
      <trkpt lat="43.48216" lon="5.70005">
        <ele>259.21</ele>
        <time>2019-05-01T14:02:34Z</time>
      </trkpt>
      <trkpt lat="43.48221" lon="5.70053">
        <ele>263.06</ele>
        <time>2019-05-01T14:02:36Z</time>
      </trkpt>
      <trkpt lat="43.48223" lon="5.70078">
        <ele>263.06</ele>
        <time>2019-05-01T14:02:37Z</time>
      </trkpt>
      <trkpt lat="43.48258" lon="5.70387">
        <ele>262.58</ele>
        <time>2019-05-01T14:02:48Z</time>
      </trkpt>
      <trkpt lat="43.48266" lon="5.70441">
        <ele>262.1</ele>
        <time>2019-05-01T14:02:50Z</time>
      </trkpt>
      <trkpt lat="43.48293" lon="5.70549">
        <ele>266.9</ele>
        <time>2019-05-01T14:02:54Z</time>
      </trkpt>
      <trkpt lat="43.483" lon="5.70576">
        <ele>264.5</ele>
        <time>2019-05-01T14:02:55Z</time>
      </trkpt>
      <trkpt lat="43.48368" lon="5.7084">
        <ele>269.31</ele>
        <time>2019-05-01T14:03:05Z</time>
      </trkpt>
      <trkpt lat="43.48374" lon="5.70865">
        <ele>269.31</ele>
        <time>2019-05-01T14:03:06Z</time>
      </trkpt>
      <trkpt lat="43.48401" lon="5.7097">
        <ele>266.42</ele>
        <time>2019-05-01T14:03:10Z</time>
      </trkpt>
      <trkpt lat="43.48455" lon="5.7118">
        <ele>268.83</ele>
        <time>2019-05-01T14:03:18Z</time>
      </trkpt>
      <trkpt lat="43.4849" lon="5.71305">
        <ele>266.9</ele>
        <time>2019-05-01T14:03:23Z</time>
      </trkpt>
      <trkpt lat="43.48513" lon="5.71378">
        <ele>268.83</ele>
        <time>2019-05-01T14:03:26Z</time>
      </trkpt>
      <trkpt lat="43.48527" lon="5.71425">
        <ele>267.38</ele>
        <time>2019-05-01T14:03:28Z</time>
      </trkpt>
      <trkpt lat="43.48561" lon="5.71545">
        <ele>267.86</ele>
        <time>2019-05-01T14:03:33Z</time>
      </trkpt>
      <trkpt lat="43.48573" lon="5.71702">
        <ele>268.35</ele>
        <time>2019-05-01T14:03:39Z</time>
      </trkpt>
      <trkpt lat="43.48566" lon="5.71825">
        <ele>265.94</ele>
        <time>2019-05-01T14:03:44Z</time>
      </trkpt>
      <trkpt lat="43.48564" lon="5.71882">
        <ele>263.06</ele>
        <time>2019-05-01T14:03:47Z</time>
      </trkpt>
      <trkpt lat="43.4856" lon="5.71918">
        <ele>260.17</ele>
        <time>2019-05-01T14:03:50Z</time>
      </trkpt>
      <trkpt lat="43.48557" lon="5.71927">
        <ele>259.69</ele>
        <time>2019-05-01T14:03:51Z</time>
      </trkpt>
      <trkpt lat="43.48549" lon="5.71949">
        <ele>259.21</ele>
        <time>2019-05-01T14:03:53Z</time>
      </trkpt>
      <trkpt lat="43.48548" lon="5.71961">
        <ele>261.62</ele>
        <time>2019-05-01T14:03:54Z</time>
      </trkpt>
      <trkpt lat="43.48551" lon="5.71975">
        <ele>263.06</ele>
        <time>2019-05-01T14:03:55Z</time>
      </trkpt>
      <trkpt lat="43.48554" lon="5.71991">
        <ele>264.5</ele>
        <time>2019-05-01T14:03:56Z</time>
      </trkpt>
      <trkpt lat="43.48555" lon="5.72005">
        <ele>264.5</ele>
        <time>2019-05-01T14:03:57Z</time>
      </trkpt>
      <trkpt lat="43.48555" lon="5.72022">
        <ele>264.98</ele>
        <time>2019-05-01T14:03:58Z</time>
      </trkpt>
      <trkpt lat="43.48554" lon="5.72041">
        <ele>264.98</ele>
        <time>2019-05-01T14:03:59Z</time>
      </trkpt>
      <trkpt lat="43.48552" lon="5.7208">
        <ele>266.42</ele>
        <time>2019-05-01T14:04:01Z</time>
      </trkpt>
      <trkpt lat="43.48549" lon="5.72142">
        <ele>269.79</ele>
        <time>2019-05-01T14:04:04Z</time>
      </trkpt>
      <trkpt lat="43.48548" lon="5.72162">
        <ele>269.79</ele>
        <time>2019-05-01T14:04:05Z</time>
      </trkpt>
      <trkpt lat="43.48545" lon="5.72209">
        <ele>268.35</ele>
        <time>2019-05-01T14:04:07Z</time>
      </trkpt>
      <trkpt lat="43.48541" lon="5.7228">
        <ele>273.15</ele>
        <time>2019-05-01T14:04:10Z</time>
      </trkpt>
      <trkpt lat="43.48539" lon="5.72331">
        <ele>274.59</ele>
        <time>2019-05-01T14:04:12Z</time>
      </trkpt>
      <trkpt lat="43.48536" lon="5.72381">
        <ele>273.15</ele>
        <time>2019-05-01T14:04:14Z</time>
      </trkpt>
      <trkpt lat="43.48528" lon="5.72518">
        <ele>277</ele>
        <time>2019-05-01T14:04:19Z</time>
      </trkpt>
      <trkpt lat="43.48527" lon="5.72548">
        <ele>276.52</ele>
        <time>2019-05-01T14:04:20Z</time>
      </trkpt>
      <trkpt lat="43.4852" lon="5.72687">
        <ele>280.36</ele>
        <time>2019-05-01T14:04:25Z</time>
      </trkpt>
      <trkpt lat="43.48515" lon="5.72774">
        <ele>281.8</ele>
        <time>2019-05-01T14:04:28Z</time>
      </trkpt>
      <trkpt lat="43.48499" lon="5.73087">
        <ele>282.77</ele>
        <time>2019-05-01T14:04:39Z</time>
      </trkpt>
      <trkpt lat="43.48495" lon="5.73143">
        <ele>285.17</ele>
        <time>2019-05-01T14:04:41Z</time>
      </trkpt>
      <trkpt lat="43.48481" lon="5.73394">
        <ele>288.53</ele>
        <time>2019-05-01T14:04:50Z</time>
      </trkpt>
      <trkpt lat="43.4848" lon="5.73422">
        <ele>288.53</ele>
        <time>2019-05-01T14:04:51Z</time>
      </trkpt>
      <trkpt lat="43.48474" lon="5.73534">
        <ele>292.38</ele>
        <time>2019-05-01T14:04:55Z</time>
      </trkpt>
      <trkpt lat="43.48472" lon="5.73561">
        <ele>292.38</ele>
        <time>2019-05-01T14:04:56Z</time>
      </trkpt>
      <trkpt lat="43.48466" lon="5.73671">
        <ele>294.78</ele>
        <time>2019-05-01T14:05:00Z</time>
      </trkpt>
      <trkpt lat="43.48455" lon="5.73884">
        <ele>296.22</ele>
        <time>2019-05-01T14:05:08Z</time>
      </trkpt>
      <trkpt lat="43.48451" lon="5.73937">
        <ele>297.67</ele>
        <time>2019-05-01T14:05:10Z</time>
      </trkpt>
      <trkpt lat="43.48422" lon="5.74123">
        <ele>295.74</ele>
        <time>2019-05-01T14:05:17Z</time>
      </trkpt>
      <trkpt lat="43.48407" lon="5.74201">
        <ele>292.86</ele>
        <time>2019-05-01T14:05:20Z</time>
      </trkpt>
      <trkpt lat="43.48398" lon="5.74251">
        <ele>292.38</ele>
        <time>2019-05-01T14:05:22Z</time>
      </trkpt>
      <trkpt lat="43.48366" lon="5.74415">
        <ele>288.53</ele>
        <time>2019-05-01T14:05:29Z</time>
      </trkpt>
      <trkpt lat="43.48338" lon="5.74574">
        <ele>284.69</ele>
        <time>2019-05-01T14:05:37Z</time>
      </trkpt>
      <trkpt lat="43.48336" lon="5.74589">
        <ele>284.69</ele>
        <time>2019-05-01T14:05:38Z</time>
      </trkpt>
      <trkpt lat="43.4833" lon="5.74618">
        <ele>286.13</ele>
        <time>2019-05-01T14:05:40Z</time>
      </trkpt>
      <trkpt lat="43.48324" lon="5.74651">
        <ele>288.05</ele>
        <time>2019-05-01T14:05:42Z</time>
      </trkpt>
      <trkpt lat="43.48298" lon="5.74734">
        <ele>293.34</ele>
        <time>2019-05-01T14:05:46Z</time>
      </trkpt>
      <trkpt lat="43.48285" lon="5.7478">
        <ele>295.26</ele>
        <time>2019-05-01T14:05:48Z</time>
      </trkpt>
      <trkpt lat="43.48241" lon="5.74929">
        <ele>298.15</ele>
        <time>2019-05-01T14:05:54Z</time>
      </trkpt>
      <trkpt lat="43.48183" lon="5.75127">
        <ele>301.99</ele>
        <time>2019-05-01T14:06:02Z</time>
      </trkpt>
      <trkpt lat="43.48168" lon="5.75177">
        <ele>305.36</ele>
        <time>2019-05-01T14:06:04Z</time>
      </trkpt>
      <trkpt lat="43.48161" lon="5.75202">
        <ele>305.36</ele>
        <time>2019-05-01T14:06:05Z</time>
      </trkpt>
      <trkpt lat="43.48137" lon="5.75278">
        <ele>308.72</ele>
        <time>2019-05-01T14:06:08Z</time>
      </trkpt>
      <trkpt lat="43.48108" lon="5.75348">
        <ele>311.12</ele>
        <time>2019-05-01T14:06:11Z</time>
      </trkpt>
      <trkpt lat="43.48075" lon="5.75409">
        <ele>312.57</ele>
        <time>2019-05-01T14:06:14Z</time>
      </trkpt>
      <trkpt lat="43.4803" lon="5.75479">
        <ele>315.93</ele>
        <time>2019-05-01T14:06:18Z</time>
      </trkpt>
      <trkpt lat="43.47996" lon="5.75525">
        <ele>314.01</ele>
        <time>2019-05-01T14:06:21Z</time>
      </trkpt>
      <trkpt lat="43.47945" lon="5.75582">
        <ele>317.37</ele>
        <time>2019-05-01T14:06:25Z</time>
      </trkpt>
      <trkpt lat="43.47932" lon="5.75595">
        <ele>317.37</ele>
        <time>2019-05-01T14:06:26Z</time>
      </trkpt>
      <trkpt lat="43.47824" lon="5.75692">
        <ele>320.74</ele>
        <time>2019-05-01T14:06:33Z</time>
      </trkpt>
      <trkpt lat="43.47808" lon="5.7571">
        <ele>320.74</ele>
        <time>2019-05-01T14:06:34Z</time>
      </trkpt>
      <trkpt lat="43.47708" lon="5.7588">
        <ele>322.18</ele>
        <time>2019-05-01T14:06:42Z</time>
      </trkpt>
      <trkpt lat="43.47552" lon="5.76205">
        <ele>322.18</ele>
        <time>2019-05-01T14:06:57Z</time>
      </trkpt>
      <trkpt lat="43.47459" lon="5.76398">
        <ele>326.02</ele>
        <time>2019-05-01T14:07:07Z</time>
      </trkpt>
      <trkpt lat="43.47449" lon="5.76418">
        <ele>326.02</ele>
        <time>2019-05-01T14:07:08Z</time>
      </trkpt>
      <trkpt lat="43.47408" lon="5.76506">
        <ele>329.39</ele>
        <time>2019-05-01T14:07:12Z</time>
      </trkpt>
      <trkpt lat="43.47399" lon="5.76528">
        <ele>329.39</ele>
        <time>2019-05-01T14:07:13Z</time>
      </trkpt>
      <trkpt lat="43.47352" lon="5.76644">
        <ele>332.27</ele>
        <time>2019-05-01T14:07:18Z</time>
      </trkpt>
      <trkpt lat="43.47342" lon="5.76668">
        <ele>332.75</ele>
        <time>2019-05-01T14:07:19Z</time>
      </trkpt>
      <trkpt lat="43.47305" lon="5.76761">
        <ele>336.6</ele>
        <time>2019-05-01T14:07:23Z</time>
      </trkpt>
      <trkpt lat="43.47296" lon="5.76784">
        <ele>336.6</ele>
        <time>2019-05-01T14:07:24Z</time>
      </trkpt>
      <trkpt lat="43.47257" lon="5.7688">
        <ele>339.96</ele>
        <time>2019-05-01T14:07:28Z</time>
      </trkpt>
      <trkpt lat="43.47227" lon="5.76954">
        <ele>343.81</ele>
        <time>2019-05-01T14:07:31Z</time>
      </trkpt>
      <trkpt lat="43.47218" lon="5.76978">
        <ele>343.33</ele>
        <time>2019-05-01T14:07:32Z</time>
      </trkpt>
      <trkpt lat="43.47198" lon="5.77026">
        <ele>347.17</ele>
        <time>2019-05-01T14:07:34Z</time>
      </trkpt>
      <trkpt lat="43.47159" lon="5.77123">
        <ele>353.42</ele>
        <time>2019-05-01T14:07:38Z</time>
      </trkpt>
      <trkpt lat="43.47149" lon="5.77146">
        <ele>351.5</ele>
        <time>2019-05-01T14:07:39Z</time>
      </trkpt>
      <trkpt lat="43.4712" lon="5.77224">
        <ele>354.86</ele>
        <time>2019-05-01T14:07:42Z</time>
      </trkpt>
      <trkpt lat="43.47112" lon="5.77249">
        <ele>354.86</ele>
        <time>2019-05-01T14:07:43Z</time>
      </trkpt>
      <trkpt lat="43.47095" lon="5.77304">
        <ele>357.75</ele>
        <time>2019-05-01T14:07:45Z</time>
      </trkpt>
      <trkpt lat="43.47087" lon="5.77331">
        <ele>357.75</ele>
        <time>2019-05-01T14:07:46Z</time>
      </trkpt>
      <trkpt lat="43.47079" lon="5.7736">
        <ele>361.11</ele>
        <time>2019-05-01T14:07:47Z</time>
      </trkpt>
      <trkpt lat="43.47056" lon="5.77448">
        <ele>364</ele>
        <time>2019-05-01T14:07:50Z</time>
      </trkpt>
      <trkpt lat="43.47034" lon="5.77536">
        <ele>367.36</ele>
        <time>2019-05-01T14:07:53Z</time>
      </trkpt>
      <trkpt lat="43.47012" lon="5.77622">
        <ele>368.32</ele>
        <time>2019-05-01T14:07:56Z</time>
      </trkpt>
      <trkpt lat="43.46979" lon="5.77755">
        <ele>372.17</ele>
        <time>2019-05-01T14:08:01Z</time>
      </trkpt>
      <trkpt lat="43.4696" lon="5.77831">
        <ele>377.94</ele>
        <time>2019-05-01T14:08:04Z</time>
      </trkpt>
      <trkpt lat="43.46954" lon="5.77856">
        <ele>375.53</ele>
        <time>2019-05-01T14:08:05Z</time>
      </trkpt>
      <trkpt lat="43.46934" lon="5.77936">
        <ele>377.45</ele>
        <time>2019-05-01T14:08:08Z</time>
      </trkpt>
      <trkpt lat="43.46889" lon="5.78117">
        <ele>369.76</ele>
        <time>2019-05-01T14:08:15Z</time>
      </trkpt>
      <trkpt lat="43.46882" lon="5.78144">
        <ele>369.76</ele>
        <time>2019-05-01T14:08:16Z</time>
      </trkpt>
      <trkpt lat="43.46869" lon="5.78198">
        <ele>371.69</ele>
        <time>2019-05-01T14:08:18Z</time>
      </trkpt>
      <trkpt lat="43.46829" lon="5.78356">
        <ele>370.73</ele>
        <time>2019-05-01T14:08:24Z</time>
      </trkpt>
      <trkpt lat="43.46796" lon="5.78489">
        <ele>369.28</ele>
        <time>2019-05-01T14:08:29Z</time>
      </trkpt>
      <trkpt lat="43.46782" lon="5.78542">
        <ele>367.36</ele>
        <time>2019-05-01T14:08:31Z</time>
      </trkpt>
      <trkpt lat="43.46764" lon="5.78626">
        <ele>369.76</ele>
        <time>2019-05-01T14:08:34Z</time>
      </trkpt>
      <trkpt lat="43.46745" lon="5.78738">
        <ele>373.13</ele>
        <time>2019-05-01T14:08:38Z</time>
      </trkpt>
      <trkpt lat="43.46718" lon="5.78905">
        <ele>375.05</ele>
        <time>2019-05-01T14:08:44Z</time>
      </trkpt>
      <trkpt lat="43.46704" lon="5.78988">
        <ele>376.49</ele>
        <time>2019-05-01T14:08:47Z</time>
      </trkpt>
      <trkpt lat="43.46673" lon="5.79175">
        <ele>379.86</ele>
        <time>2019-05-01T14:08:54Z</time>
      </trkpt>
      <trkpt lat="43.46669" lon="5.79197">
        <ele>379.86</ele>
        <time>2019-05-01T14:08:55Z</time>
      </trkpt>
      <trkpt lat="43.4664" lon="5.79366">
        <ele>378.42</ele>
        <time>2019-05-01T14:09:03Z</time>
      </trkpt>
      <trkpt lat="43.46623" lon="5.79461">
        <ele>376.49</ele>
        <time>2019-05-01T14:09:10Z</time>
      </trkpt>
      <trkpt lat="43.46618" lon="5.79478">
        <ele>376.01</ele>
        <time>2019-05-01T14:09:12Z</time>
      </trkpt>
      <trkpt lat="43.46609" lon="5.79499">
        <ele>375.53</ele>
        <time>2019-05-01T14:09:15Z</time>
      </trkpt>
      <trkpt lat="43.46607" lon="5.79509">
        <ele>375.53</ele>
        <time>2019-05-01T14:09:16Z</time>
      </trkpt>
      <trkpt lat="43.46574" lon="5.79623">
        <ele>372.17</ele>
        <time>2019-05-01T14:09:24Z</time>
      </trkpt>
      <trkpt lat="43.46569" lon="5.79637">
        <ele>372.17</ele>
        <time>2019-05-01T14:09:25Z</time>
      </trkpt>
      <trkpt lat="43.46502" lon="5.79821">
        <ele>372.17</ele>
        <time>2019-05-01T14:09:34Z</time>
      </trkpt>
      <trkpt lat="43.46477" lon="5.79891">
        <ele>369.28</ele>
        <time>2019-05-01T14:09:37Z</time>
      </trkpt>
      <trkpt lat="43.46425" lon="5.80032">
        <ele>370.24</ele>
        <time>2019-05-01T14:09:43Z</time>
      </trkpt>
      <trkpt lat="43.46407" lon="5.80079">
        <ele>374.09</ele>
        <time>2019-05-01T14:09:45Z</time>
      </trkpt>
      <trkpt lat="43.4639" lon="5.80127">
        <ele>376.97</ele>
        <time>2019-05-01T14:09:47Z</time>
      </trkpt>
      <trkpt lat="43.46363" lon="5.80199">
        <ele>379.86</ele>
        <time>2019-05-01T14:09:50Z</time>
      </trkpt>
      <trkpt lat="43.46346" lon="5.80248">
        <ele>381.78</ele>
        <time>2019-05-01T14:09:52Z</time>
      </trkpt>
      <trkpt lat="43.46328" lon="5.80298">
        <ele>383.7</ele>
        <time>2019-05-01T14:09:54Z</time>
      </trkpt>
      <trkpt lat="43.463" lon="5.80373">
        <ele>387.55</ele>
        <time>2019-05-01T14:09:57Z</time>
      </trkpt>
      <trkpt lat="43.46291" lon="5.804">
        <ele>387.55</ele>
        <time>2019-05-01T14:09:58Z</time>
      </trkpt>
      <trkpt lat="43.4626" lon="5.80507">
        <ele>390.43</ele>
        <time>2019-05-01T14:10:02Z</time>
      </trkpt>
      <trkpt lat="43.46256" lon="5.80536">
        <ele>391.87</ele>
        <time>2019-05-01T14:10:03Z</time>
      </trkpt>
      <trkpt lat="43.46254" lon="5.80564">
        <ele>391.87</ele>
        <time>2019-05-01T14:10:04Z</time>
      </trkpt>
      <trkpt lat="43.46253" lon="5.80593">
        <ele>392.36</ele>
        <time>2019-05-01T14:10:05Z</time>
      </trkpt>
      <trkpt lat="43.46253" lon="5.80623">
        <ele>392.84</ele>
        <time>2019-05-01T14:10:06Z</time>
      </trkpt>
      <trkpt lat="43.46255" lon="5.8065">
        <ele>392.84</ele>
        <time>2019-05-01T14:10:07Z</time>
      </trkpt>
      <trkpt lat="43.46259" lon="5.80678">
        <ele>392.84</ele>
        <time>2019-05-01T14:10:08Z</time>
      </trkpt>
      <trkpt lat="43.46264" lon="5.80705">
        <ele>392.84</ele>
        <time>2019-05-01T14:10:09Z</time>
      </trkpt>
      <trkpt lat="43.46271" lon="5.80732">
        <ele>392.84</ele>
        <time>2019-05-01T14:10:10Z</time>
      </trkpt>
      <trkpt lat="43.46326" lon="5.809">
        <ele>390.91</ele>
        <time>2019-05-01T14:10:17Z</time>
      </trkpt>
      <trkpt lat="43.46373" lon="5.81042">
        <ele>392.84</ele>
        <time>2019-05-01T14:10:23Z</time>
      </trkpt>
      <trkpt lat="43.46409" lon="5.81136">
        <ele>396.2</ele>
        <time>2019-05-01T14:10:27Z</time>
      </trkpt>
      <trkpt lat="43.4643" lon="5.81179">
        <ele>398.12</ele>
        <time>2019-05-01T14:10:29Z</time>
      </trkpt>
      <trkpt lat="43.46454" lon="5.81222">
        <ele>401.49</ele>
        <time>2019-05-01T14:10:31Z</time>
      </trkpt>
      <trkpt lat="43.4649" lon="5.81282">
        <ele>404.85</ele>
        <time>2019-05-01T14:10:34Z</time>
      </trkpt>
      <trkpt lat="43.46503" lon="5.81303">
        <ele>404.85</ele>
        <time>2019-05-01T14:10:35Z</time>
      </trkpt>
      <trkpt lat="43.4655" lon="5.81384">
        <ele>407.26</ele>
        <time>2019-05-01T14:10:39Z</time>
      </trkpt>
      <trkpt lat="43.46627" lon="5.81531">
        <ele>407.26</ele>
        <time>2019-05-01T14:10:46Z</time>
      </trkpt>
      <trkpt lat="43.46677" lon="5.81675">
        <ele>402.93</ele>
        <time>2019-05-01T14:10:52Z</time>
      </trkpt>
      <trkpt lat="43.46693" lon="5.81752">
        <ele>401.01</ele>
        <time>2019-05-01T14:10:55Z</time>
      </trkpt>
      <trkpt lat="43.467" lon="5.81806">
        <ele>398.12</ele>
        <time>2019-05-01T14:10:57Z</time>
      </trkpt>
      <trkpt lat="43.46702" lon="5.81862">
        <ele>395.24</ele>
        <time>2019-05-01T14:10:59Z</time>
      </trkpt>
      <trkpt lat="43.46698" lon="5.81948">
        <ele>392.36</ele>
        <time>2019-05-01T14:11:02Z</time>
      </trkpt>
      <trkpt lat="43.46689" lon="5.82005">
        <ele>389.95</ele>
        <time>2019-05-01T14:11:04Z</time>
      </trkpt>
      <trkpt lat="43.46674" lon="5.82064">
        <ele>384.66</ele>
        <time>2019-05-01T14:11:06Z</time>
      </trkpt>
      <trkpt lat="43.46666" lon="5.82089">
        <ele>384.66</ele>
        <time>2019-05-01T14:11:07Z</time>
      </trkpt>
      <trkpt lat="43.46633" lon="5.82169">
        <ele>380.82</ele>
        <time>2019-05-01T14:11:10Z</time>
      </trkpt>
      <trkpt lat="43.46606" lon="5.82219">
        <ele>378.42</ele>
        <time>2019-05-01T14:11:12Z</time>
      </trkpt>
      <trkpt lat="43.46592" lon="5.82244">
        <ele>375.05</ele>
        <time>2019-05-01T14:11:13Z</time>
      </trkpt>
      <trkpt lat="43.46528" lon="5.82333">
        <ele>369.76</ele>
        <time>2019-05-01T14:11:17Z</time>
      </trkpt>
      <trkpt lat="43.46495" lon="5.82374">
        <ele>368.8</ele>
        <time>2019-05-01T14:11:19Z</time>
      </trkpt>
      <trkpt lat="43.4646" lon="5.82414">
        <ele>364</ele>
        <time>2019-05-01T14:11:21Z</time>
      </trkpt>
      <trkpt lat="43.46442" lon="5.82433">
        <ele>364.48</ele>
        <time>2019-05-01T14:11:22Z</time>
      </trkpt>
      <trkpt lat="43.46406" lon="5.82473">
        <ele>361.59</ele>
        <time>2019-05-01T14:11:24Z</time>
      </trkpt>
      <trkpt lat="43.4637" lon="5.82513">
        <ele>359.67</ele>
        <time>2019-05-01T14:11:26Z</time>
      </trkpt>
      <trkpt lat="43.46333" lon="5.82552">
        <ele>356.31</ele>
        <time>2019-05-01T14:11:28Z</time>
      </trkpt>
      <trkpt lat="43.46283" lon="5.82605">
        <ele>351.5</ele>
        <time>2019-05-01T14:11:31Z</time>
      </trkpt>
      <trkpt lat="43.46253" lon="5.82639">
        <ele>347.65</ele>
        <time>2019-05-01T14:11:33Z</time>
      </trkpt>
      <trkpt lat="43.46238" lon="5.82657">
        <ele>347.65</ele>
        <time>2019-05-01T14:11:34Z</time>
      </trkpt>
      <trkpt lat="43.46205" lon="5.82697">
        <ele>346.21</ele>
        <time>2019-05-01T14:11:36Z</time>
      </trkpt>
      <trkpt lat="43.46177" lon="5.8273">
        <ele>342.37</ele>
        <time>2019-05-01T14:11:38Z</time>
      </trkpt>
      <trkpt lat="43.46132" lon="5.82786">
        <ele>340.92</ele>
        <time>2019-05-01T14:11:41Z</time>
      </trkpt>
      <trkpt lat="43.46088" lon="5.82846">
        <ele>338.04</ele>
        <time>2019-05-01T14:11:44Z</time>
      </trkpt>
      <trkpt lat="43.4606" lon="5.82887">
        <ele>334.2</ele>
        <time>2019-05-01T14:11:46Z</time>
      </trkpt>
      <trkpt lat="43.46046" lon="5.8291">
        <ele>334.2</ele>
        <time>2019-05-01T14:11:47Z</time>
      </trkpt>
      <trkpt lat="43.45975" lon="5.83048">
        <ele>329.87</ele>
        <time>2019-05-01T14:11:53Z</time>
      </trkpt>
      <trkpt lat="43.45929" lon="5.83219">
        <ele>326.99</ele>
        <time>2019-05-01T14:12:00Z</time>
      </trkpt>
      <trkpt lat="43.45913" lon="5.83295">
        <ele>324.58</ele>
        <time>2019-05-01T14:12:03Z</time>
      </trkpt>
      <trkpt lat="43.45902" lon="5.83348">
        <ele>322.66</ele>
        <time>2019-05-01T14:12:05Z</time>
      </trkpt>
      <trkpt lat="43.45891" lon="5.83402">
        <ele>320.74</ele>
        <time>2019-05-01T14:12:07Z</time>
      </trkpt>
      <trkpt lat="43.4588" lon="5.83457">
        <ele>316.89</ele>
        <time>2019-05-01T14:12:09Z</time>
      </trkpt>
      <trkpt lat="43.45868" lon="5.83513">
        <ele>313.05</ele>
        <time>2019-05-01T14:12:11Z</time>
      </trkpt>
      <trkpt lat="43.45837" lon="5.83655">
        <ele>309.2</ele>
        <time>2019-05-01T14:12:16Z</time>
      </trkpt>
      <trkpt lat="43.45825" lon="5.83711">
        <ele>307.28</ele>
        <time>2019-05-01T14:12:18Z</time>
      </trkpt>
      <trkpt lat="43.45807" lon="5.83791">
        <ele>303.91</ele>
        <time>2019-05-01T14:12:21Z</time>
      </trkpt>
      <trkpt lat="43.45802" lon="5.83817">
        <ele>308.24</ele>
        <time>2019-05-01T14:12:22Z</time>
      </trkpt>
      <trkpt lat="43.45796" lon="5.83843">
        <ele>312.09</ele>
        <time>2019-05-01T14:12:23Z</time>
      </trkpt>
      <trkpt lat="43.45791" lon="5.83868">
        <ele>310.64</ele>
        <time>2019-05-01T14:12:24Z</time>
      </trkpt>
      <trkpt lat="43.45769" lon="5.83968">
        <ele>307.76</ele>
        <time>2019-05-01T14:12:28Z</time>
      </trkpt>
      <trkpt lat="43.45747" lon="5.84063">
        <ele>307.28</ele>
        <time>2019-05-01T14:12:32Z</time>
      </trkpt>
      <trkpt lat="43.45737" lon="5.8411">
        <ele>308.72</ele>
        <time>2019-05-01T14:12:34Z</time>
      </trkpt>
      <trkpt lat="43.45713" lon="5.84219">
        <ele>305.84</ele>
        <time>2019-05-01T14:12:39Z</time>
      </trkpt>
      <trkpt lat="43.45617" lon="5.8465">
        <ele>303.91</ele>
        <time>2019-05-01T14:12:59Z</time>
      </trkpt>
      <trkpt lat="43.45604" lon="5.84714">
        <ele>305.36</ele>
        <time>2019-05-01T14:13:02Z</time>
      </trkpt>
      <trkpt lat="43.4558" lon="5.84814">
        <ele>300.55</ele>
        <time>2019-05-01T14:13:07Z</time>
      </trkpt>
      <trkpt lat="43.45576" lon="5.84832">
        <ele>300.55</ele>
        <time>2019-05-01T14:13:08Z</time>
      </trkpt>
      <trkpt lat="43.45562" lon="5.84879">
        <ele>299.11</ele>
        <time>2019-05-01T14:13:11Z</time>
      </trkpt>
      <trkpt lat="43.45556" lon="5.8489">
        <ele>297.67</ele>
        <time>2019-05-01T14:13:12Z</time>
      </trkpt>
      <trkpt lat="43.4555" lon="5.849">
        <ele>297.67</ele>
        <time>2019-05-01T14:13:13Z</time>
      </trkpt>
      <trkpt lat="43.45544" lon="5.84909">
        <ele>296.22</ele>
        <time>2019-05-01T14:13:14Z</time>
      </trkpt>
      <trkpt lat="43.4554" lon="5.84919">
        <ele>296.22</ele>
        <time>2019-05-01T14:13:15Z</time>
      </trkpt>
      <trkpt lat="43.45538" lon="5.84931">
        <ele>295.26</ele>
        <time>2019-05-01T14:13:16Z</time>
      </trkpt>
      <trkpt lat="43.4554" lon="5.84942">
        <ele>295.26</ele>
        <time>2019-05-01T14:13:17Z</time>
      </trkpt>
      <trkpt lat="43.45543" lon="5.84954">
        <ele>297.67</ele>
        <time>2019-05-01T14:13:18Z</time>
      </trkpt>
      <trkpt lat="43.45545" lon="5.84965">
        <ele>297.67</ele>
        <time>2019-05-01T14:13:19Z</time>
      </trkpt>
      <trkpt lat="43.45545" lon="5.84974">
        <ele>297.67</ele>
        <time>2019-05-01T14:13:20Z</time>
      </trkpt>
      <trkpt lat="43.45544" lon="5.84983">
        <ele>295.74</ele>
        <time>2019-05-01T14:13:21Z</time>
      </trkpt>
      <trkpt lat="43.45543" lon="5.84991">
        <ele>295.26</ele>
        <time>2019-05-01T14:13:22Z</time>
      </trkpt>
      <trkpt lat="43.45541" lon="5.84999">
        <ele>295.26</ele>
        <time>2019-05-01T14:13:23Z</time>
      </trkpt>
      <trkpt lat="43.45519" lon="5.851">
        <ele>294.78</ele>
        <time>2019-05-01T14:13:35Z</time>
      </trkpt>
      <trkpt lat="43.4551" lon="5.85144">
        <ele>296.7</ele>
        <time>2019-05-01T14:13:39Z</time>
      </trkpt>
      <trkpt lat="43.45491" lon="5.8523">
        <ele>295.26</ele>
        <time>2019-05-01T14:13:47Z</time>
      </trkpt>
      <trkpt lat="43.45488" lon="5.85247">
        <ele>294.78</ele>
        <time>2019-05-01T14:13:54Z</time>
      </trkpt>
      <trkpt lat="43.45488" lon="5.85249">
        <ele>294.3</ele>
        <time>2019-05-01T14:14:00Z</time>
      </trkpt>
      <trkpt lat="43.45488" lon="5.85252">
        <ele>294.3</ele>
        <time>2019-05-01T14:14:01Z</time>
      </trkpt>
      <trkpt lat="43.45487" lon="5.85256">
        <ele>294.3</ele>
        <time>2019-05-01T14:14:02Z</time>
      </trkpt>
      <trkpt lat="43.45473" lon="5.85319">
        <ele>296.22</ele>
        <time>2019-05-01T14:14:09Z</time>
      </trkpt>
      <trkpt lat="43.45463" lon="5.85365">
        <ele>297.67</ele>
        <time>2019-05-01T14:14:13Z</time>
      </trkpt>
      <trkpt lat="43.45445" lon="5.85449">
        <ele>296.22</ele>
        <time>2019-05-01T14:14:22Z</time>
      </trkpt>
      <trkpt lat="43.45441" lon="5.85473">
        <ele>297.67</ele>
        <time>2019-05-01T14:14:26Z</time>
      </trkpt>
      <trkpt lat="43.45437" lon="5.85488">
        <ele>296.22</ele>
        <time>2019-05-01T14:14:28Z</time>
      </trkpt>
      <trkpt lat="43.45433" lon="5.85506">
        <ele>297.18</ele>
        <time>2019-05-01T14:14:30Z</time>
      </trkpt>
      <trkpt lat="43.45428" lon="5.85529">
        <ele>298.63</ele>
        <time>2019-05-01T14:14:32Z</time>
      </trkpt>
      <trkpt lat="43.45417" lon="5.85576">
        <ele>300.55</ele>
        <time>2019-05-01T14:14:36Z</time>
      </trkpt>
      <trkpt lat="43.45362" lon="5.85811">
        <ele>303.91</ele>
        <time>2019-05-01T14:14:55Z</time>
      </trkpt>
      <trkpt lat="43.45359" lon="5.85822">
        <ele>303.91</ele>
        <time>2019-05-01T14:14:56Z</time>
      </trkpt>
      <trkpt lat="43.45334" lon="5.85934">
        <ele>304.88</ele>
        <time>2019-05-01T14:15:06Z</time>
      </trkpt>
      <trkpt lat="43.45315" lon="5.86008">
        <ele>308.72</ele>
        <time>2019-05-01T14:15:13Z</time>
      </trkpt>
      <trkpt lat="43.4531" lon="5.86015">
        <ele>304.88</ele>
        <time>2019-05-01T14:15:14Z</time>
      </trkpt>
      <trkpt lat="43.45304" lon="5.86019">
        <ele>303.91</ele>
        <time>2019-05-01T14:15:15Z</time>
      </trkpt>
      <trkpt lat="43.45298" lon="5.86021">
        <ele>303.43</ele>
        <time>2019-05-01T14:15:16Z</time>
      </trkpt>
      <trkpt lat="43.45293" lon="5.86022">
        <ele>303.43</ele>
        <time>2019-05-01T14:15:17Z</time>
      </trkpt>
      <trkpt lat="43.45287" lon="5.86021">
        <ele>303.43</ele>
        <time>2019-05-01T14:15:18Z</time>
      </trkpt>
      <trkpt lat="43.45256" lon="5.86019">
        <ele>304.88</ele>
        <time>2019-05-01T14:15:23Z</time>
      </trkpt>
      <trkpt lat="43.452" lon="5.86018">
        <ele>303.43</ele>
        <time>2019-05-01T14:15:32Z</time>
      </trkpt>
      <trkpt lat="43.45195" lon="5.86023">
        <ele>305.36</ele>
        <time>2019-05-01T14:15:33Z</time>
      </trkpt>
      <trkpt lat="43.45192" lon="5.86029">
        <ele>306.32</ele>
        <time>2019-05-01T14:15:34Z</time>
      </trkpt>
      <trkpt lat="43.45189" lon="5.86035">
        <ele>306.32</ele>
        <time>2019-05-01T14:15:35Z</time>
      </trkpt>
      <trkpt lat="43.45187" lon="5.86043">
        <ele>306.32</ele>
        <time>2019-05-01T14:15:36Z</time>
      </trkpt>
      <trkpt lat="43.45176" lon="5.86077">
        <ele>307.28</ele>
        <time>2019-05-01T14:15:40Z</time>
      </trkpt>
      <trkpt lat="43.45169" lon="5.86105">
        <ele>308.24</ele>
        <time>2019-05-01T14:15:43Z</time>
      </trkpt>
      <trkpt lat="43.45144" lon="5.86182">
        <ele>309.68</ele>
        <time>2019-05-01T14:15:52Z</time>
      </trkpt>
      <trkpt lat="43.45135" lon="5.862">
        <ele>309.68</ele>
        <time>2019-05-01T14:15:54Z</time>
      </trkpt>
      <trkpt lat="43.45129" lon="5.86205">
        <ele>310.16</ele>
        <time>2019-05-01T14:15:55Z</time>
      </trkpt>
      <trkpt lat="43.45121" lon="5.86206">
        <ele>310.16</ele>
        <time>2019-05-01T14:15:56Z</time>
      </trkpt>
      <trkpt lat="43.45112" lon="5.86203">
        <ele>310.64</ele>
        <time>2019-05-01T14:15:57Z</time>
      </trkpt>
      <trkpt lat="43.45106" lon="5.862">
        <ele>310.16</ele>
        <time>2019-05-01T14:15:58Z</time>
      </trkpt>
      <trkpt lat="43.45098" lon="5.86196">
        <ele>310.16</ele>
        <time>2019-05-01T14:15:59Z</time>
      </trkpt>
      <trkpt lat="43.45071" lon="5.86185">
        <ele>308.72</ele>
        <time>2019-05-01T14:16:03Z</time>
      </trkpt>
      <trkpt lat="43.45047" lon="5.86178">
        <ele>310.16</ele>
        <time>2019-05-01T14:16:08Z</time>
      </trkpt>
      <trkpt lat="43.45032" lon="5.86172">
        <ele>311.6</ele>
        <time>2019-05-01T14:16:10Z</time>
      </trkpt>
      <trkpt lat="43.45015" lon="5.86164">
        <ele>313.05</ele>
        <time>2019-05-01T14:16:12Z</time>
      </trkpt>
      <trkpt lat="43.44972" lon="5.86148">
        <ele>315.45</ele>
        <time>2019-05-01T14:16:16Z</time>
      </trkpt>
      <trkpt lat="43.44869" lon="5.8611">
        <ele>315.93</ele>
        <time>2019-05-01T14:16:26Z</time>
      </trkpt>
      <trkpt lat="43.44864" lon="5.86105">
        <ele>314.97</ele>
        <time>2019-05-01T14:16:27Z</time>
      </trkpt>
      <trkpt lat="43.44858" lon="5.86098">
        <ele>312.57</ele>
        <time>2019-05-01T14:16:28Z</time>
      </trkpt>
      <trkpt lat="43.44852" lon="5.8609">
        <ele>312.57</ele>
        <time>2019-05-01T14:16:29Z</time>
      </trkpt>
      <trkpt lat="43.44843" lon="5.86084">
        <ele>314.49</ele>
        <time>2019-05-01T14:16:30Z</time>
      </trkpt>
      <trkpt lat="43.44832" lon="5.86079">
        <ele>316.89</ele>
        <time>2019-05-01T14:16:31Z</time>
      </trkpt>
      <trkpt lat="43.44824" lon="5.86076">
        <ele>315.45</ele>
        <time>2019-05-01T14:16:32Z</time>
      </trkpt>
      <trkpt lat="43.44812" lon="5.86074">
        <ele>315.45</ele>
        <time>2019-05-01T14:16:33Z</time>
      </trkpt>
      <trkpt lat="43.44801" lon="5.86074">
        <ele>317.37</ele>
        <time>2019-05-01T14:16:34Z</time>
      </trkpt>
      <trkpt lat="43.44778" lon="5.86075">
        <ele>318.33</ele>
        <time>2019-05-01T14:16:36Z</time>
      </trkpt>
      <trkpt lat="43.44767" lon="5.86073">
        <ele>318.33</ele>
        <time>2019-05-01T14:16:37Z</time>
      </trkpt>
      <trkpt lat="43.44755" lon="5.86069">
        <ele>319.3</ele>
        <time>2019-05-01T14:16:38Z</time>
      </trkpt>
      <trkpt lat="43.44731" lon="5.86061">
        <ele>320.26</ele>
        <time>2019-05-01T14:16:40Z</time>
      </trkpt>
      <trkpt lat="43.44675" lon="5.8604">
        <ele>324.1</ele>
        <time>2019-05-01T14:16:45Z</time>
      </trkpt>
      <trkpt lat="43.44664" lon="5.86036">
        <ele>322.66</ele>
        <time>2019-05-01T14:16:46Z</time>
      </trkpt>
      <trkpt lat="43.44583" lon="5.86007">
        <ele>325.54</ele>
        <time>2019-05-01T14:16:53Z</time>
      </trkpt>
      <trkpt lat="43.44498" lon="5.85975">
        <ele>328.91</ele>
        <time>2019-05-01T14:17:00Z</time>
      </trkpt>
      <trkpt lat="43.44448" lon="5.85958">
        <ele>328.43</ele>
        <time>2019-05-01T14:17:05Z</time>
      </trkpt>
      <trkpt lat="43.44431" lon="5.85952">
        <ele>327.47</ele>
        <time>2019-05-01T14:17:07Z</time>
      </trkpt>
      <trkpt lat="43.44424" lon="5.85951">
        <ele>327.47</ele>
        <time>2019-05-01T14:17:08Z</time>
      </trkpt>
      <trkpt lat="43.44418" lon="5.85954">
        <ele>326.99</ele>
        <time>2019-05-01T14:17:09Z</time>
      </trkpt>
      <trkpt lat="43.44414" lon="5.85963">
        <ele>326.99</ele>
        <time>2019-05-01T14:17:10Z</time>
      </trkpt>
      <trkpt lat="43.44412" lon="5.85971">
        <ele>328.43</ele>
        <time>2019-05-01T14:17:11Z</time>
      </trkpt>
      <trkpt lat="43.44409" lon="5.85983">
        <ele>329.39</ele>
        <time>2019-05-01T14:17:12Z</time>
      </trkpt>
      <trkpt lat="43.44381" lon="5.86094">
        <ele>333.71</ele>
        <time>2019-05-01T14:17:19Z</time>
      </trkpt>
      <trkpt lat="43.44367" lon="5.86129">
        <ele>336.6</ele>
        <time>2019-05-01T14:17:21Z</time>
      </trkpt>
      <trkpt lat="43.44359" lon="5.86144">
        <ele>337.08</ele>
        <time>2019-05-01T14:17:22Z</time>
      </trkpt>
      <trkpt lat="43.44348" lon="5.86158">
        <ele>338.52</ele>
        <time>2019-05-01T14:17:23Z</time>
      </trkpt>
      <trkpt lat="43.44334" lon="5.86174">
        <ele>339</ele>
        <time>2019-05-01T14:17:24Z</time>
      </trkpt>
      <trkpt lat="43.44325" lon="5.86182">
        <ele>339</ele>
        <time>2019-05-01T14:17:25Z</time>
      </trkpt>
      <trkpt lat="43.44311" lon="5.86192">
        <ele>339</ele>
        <time>2019-05-01T14:17:26Z</time>
      </trkpt>
      <trkpt lat="43.44299" lon="5.86199">
        <ele>339.96</ele>
        <time>2019-05-01T14:17:27Z</time>
      </trkpt>
      <trkpt lat="43.44287" lon="5.86204">
        <ele>339.96</ele>
        <time>2019-05-01T14:17:28Z</time>
      </trkpt>
      <trkpt lat="43.44175" lon="5.86245">
        <ele>340.92</ele>
        <time>2019-05-01T14:17:36Z</time>
      </trkpt>
      <trkpt lat="43.4415" lon="5.86253">
        <ele>339.48</ele>
        <time>2019-05-01T14:17:38Z</time>
      </trkpt>
      <trkpt lat="43.44088" lon="5.86276">
        <ele>339</ele>
        <time>2019-05-01T14:17:43Z</time>
      </trkpt>
      <trkpt lat="43.44047" lon="5.86291">
        <ele>336.6</ele>
        <time>2019-05-01T14:17:49Z</time>
      </trkpt>
      <trkpt lat="43.44043" lon="5.8629">
        <ele>336.6</ele>
        <time>2019-05-01T14:17:50Z</time>
      </trkpt>
      <trkpt lat="43.44039" lon="5.86286">
        <ele>336.6</ele>
        <time>2019-05-01T14:17:51Z</time>
      </trkpt>
      <trkpt lat="43.44036" lon="5.86278">
        <ele>336.6</ele>
        <time>2019-05-01T14:17:52Z</time>
      </trkpt>
      <trkpt lat="43.44035" lon="5.86271">
        <ele>336.6</ele>
        <time>2019-05-01T14:17:53Z</time>
      </trkpt>
      <trkpt lat="43.44034" lon="5.86262">
        <ele>337.56</ele>
        <time>2019-05-01T14:17:54Z</time>
      </trkpt>
      <trkpt lat="43.44034" lon="5.86252">
        <ele>339.48</ele>
        <time>2019-05-01T14:17:55Z</time>
      </trkpt>
      <trkpt lat="43.44028" lon="5.86199">
        <ele>343.33</ele>
        <time>2019-05-01T14:18:00Z</time>
      </trkpt>
      <trkpt lat="43.44027" lon="5.8619">
        <ele>340.44</ele>
        <time>2019-05-01T14:18:01Z</time>
      </trkpt>
      <trkpt lat="43.44026" lon="5.86182">
        <ele>344.29</ele>
        <time>2019-05-01T14:18:02Z</time>
      </trkpt>
      <trkpt lat="43.44032" lon="5.86111">
        <ele>345.25</ele>
        <time>2019-05-01T14:18:12Z</time>
      </trkpt>
      <trkpt lat="43.44036" lon="5.86084">
        <ele>344.77</ele>
        <time>2019-05-01T14:18:16Z</time>
      </trkpt>
      <trkpt lat="43.44034" lon="5.86078">
        <ele>344.77</ele>
        <time>2019-05-01T14:18:17Z</time>
      </trkpt>
      <trkpt lat="43.4403" lon="5.86073">
        <ele>344.77</ele>
        <time>2019-05-01T14:18:18Z</time>
      </trkpt>
      <trkpt lat="43.4401" lon="5.86051">
        <ele>346.69</ele>
        <time>2019-05-01T14:18:22Z</time>
      </trkpt>
      <trkpt lat="43.43982" lon="5.86019">
        <ele>348.13</ele>
        <time>2019-05-01T14:18:30Z</time>
      </trkpt>
      <trkpt lat="43.4398" lon="5.86021">
        <ele>349.1</ele>
        <time>2019-05-01T14:18:31Z</time>
      </trkpt>
      <trkpt lat="43.43978" lon="5.86023">
        <ele>349.1</ele>
        <time>2019-05-01T14:18:32Z</time>
      </trkpt>
      <trkpt lat="43.43977" lon="5.86026">
        <ele>349.1</ele>
        <time>2019-05-01T14:18:33Z</time>
      </trkpt>
      <trkpt lat="43.43975" lon="5.8603">
        <ele>349.1</ele>
        <time>2019-05-01T14:18:34Z</time>
      </trkpt>
      <trkpt lat="43.43969" lon="5.86052">
        <ele>347.65</ele>
        <time>2019-05-01T14:18:39Z</time>
      </trkpt>
      <trkpt lat="43.43971" lon="5.86055">
        <ele>349.1</ele>
        <time>2019-05-01T14:18:40Z</time>
      </trkpt>
      <trkpt lat="43.43976" lon="5.86065">
        <ele>346.69</ele>
        <time>2019-05-01T14:18:44Z</time>
      </trkpt>
      <trkpt lat="43.43976" lon="5.86067">
        <ele>346.69</ele>
        <time>2019-05-01T14:18:45Z</time>
      </trkpt>
      <trkpt lat="43.43975" lon="5.86069">
        <ele>346.69</ele>
        <time>2019-05-01T14:18:46Z</time>
      </trkpt>
      <trkpt lat="43.43978" lon="5.86067">
        <ele>346.69</ele>
        <time>2019-05-01T14:19:00Z</time>
      </trkpt>
      <trkpt lat="43.43978" lon="5.86064">
        <ele>347.17</ele>
        <time>2019-05-01T14:19:18Z</time>
      </trkpt>
      <trkpt lat="43.43978" lon="5.86064">
        <ele>348.13</ele>
        <time>2019-05-01T14:19:41Z</time>
      </trkpt>
      <trkpt lat="43.4398" lon="5.86065">
        <ele>346.69</ele>
        <time>2019-05-01T14:19:45Z</time>
      </trkpt>
      <trkpt lat="43.4398" lon="5.86067">
        <ele>346.69</ele>
        <time>2019-05-01T14:19:57Z</time>
      </trkpt>
      <trkpt lat="43.43979" lon="5.86069">
        <ele>346.69</ele>
        <time>2019-05-01T14:20:09Z</time>
      </trkpt>
      <trkpt lat="43.43976" lon="5.86063">
        <ele>347.65</ele>
        <time>2019-05-01T14:20:29Z</time>
      </trkpt>
      <trkpt lat="43.43971" lon="5.86055">
        <ele>348.13</ele>
        <time>2019-05-01T14:20:41Z</time>
      </trkpt>
      <trkpt lat="43.4397" lon="5.86045">
        <ele>348.62</ele>
        <time>2019-05-01T14:20:54Z</time>
      </trkpt>
      <trkpt lat="43.4397" lon="5.86033">
        <ele>349.1</ele>
        <time>2019-05-01T14:21:08Z</time>
      </trkpt>
      <trkpt lat="43.43972" lon="5.86025">
        <ele>349.58</ele>
        <time>2019-05-01T14:21:21Z</time>
      </trkpt>
      <trkpt lat="43.43974" lon="5.86023">
        <ele>350.06</ele>
        <time>2019-05-01T14:21:40Z</time>
      </trkpt>
      <trkpt lat="43.43963" lon="5.86021">
        <ele>350.06</ele>
        <time>2019-05-01T14:21:57Z</time>
      </trkpt>
      <trkpt lat="43.43961" lon="5.8602">
        <ele>348.13</ele>
        <time>2019-05-01T14:22:03Z</time>
      </trkpt>
    </trkseg>
  </trk>
</gpx>